Date StartTime U_cm/s V_cm/s W_cm/s Ustd_cm/s Vstd_cm/s Wstd_cm/s Uvar_(cm/s)^2 Vvar_(cm/s)^2 Wvar_(cm/s)^2 KE_(m/s)^2 TurbulentKE_(m/s)^2 HorizWindSpeed_cm/s FrictionSpeec_cm/s DragCoef SpeedOfSound_m/s SonicTemperature_C Pressure_mb 
12/13/2014  00:00:00      -45.256       53.148      -19.671       40.800       66.880       31.474     1664.626     4472.917      990.583        0.619        0.356       69.806       38.329        0.301      333.986        3.663      859.342
12/13/2014  00:01:00     -115.976       38.769      -13.837       52.950       50.844       28.713     2803.660     2585.065      824.425        1.068        0.311      122.284       32.631        0.071      333.954        3.608      859.346
12/13/2014  00:02:00     -114.613      -23.334      -12.316       45.388       49.617       31.921     2060.027     2461.832     1018.925        0.969        0.277      116.964       26.325        0.051      333.904        3.525      859.346
12/13/2014  00:03:00      -91.149      -13.406      -14.347       47.394       37.608       24.279     2246.165     1414.371      589.486        0.647        0.213       92.129       20.534        0.050      333.933        3.572      859.353
12/13/2014  00:04:00     -123.281       46.294      -28.019       28.486       28.763       19.763      811.472      827.313      390.590        1.008        0.101      131.686       12.572        0.009      334.039        3.748      859.358
12/13/2014  00:05:00      -85.193       16.791      -13.327       30.515       37.508       24.421      931.155     1406.834      596.366        0.533        0.147       86.832       16.010        0.034      334.076        3.809      859.366
12/13/2014  00:06:00      -91.321      -32.480      -10.867       27.535       35.346       21.553      758.180     1249.373      464.548        0.599        0.124       96.925       13.314        0.019      333.876        3.478      859.372
12/13/2014  00:07:00      -87.419      -36.137      -11.164       31.325       26.147       19.821      981.229      683.653      392.884        0.556        0.103       94.594       13.409        0.020      333.856        3.445      859.383
12/13/2014  00:08:00     -119.903      -30.543      -17.116       28.651       29.056       17.244      820.853      844.240      297.372        0.878        0.098      123.732       18.047        0.021      333.789        3.333      859.393
12/13/2014  00:09:00      -57.622      -17.570       -5.048       30.933       27.993       19.978      956.873      783.607      399.132        0.290        0.107       60.241       15.529        0.066      333.790        3.336      859.387
12/13/2014  00:10:00      -41.161       16.271       -7.794       23.127       23.846       15.153      534.875      568.628      229.602        0.168        0.067       44.260       11.024        0.062      333.907        3.531      859.383
12/13/2014  00:11:00      -46.802       26.880       -8.629       24.473       24.473       17.928      598.903      598.950      321.405        0.225        0.076       53.972       12.311        0.052      334.033        3.740      859.377
12/13/2014  00:12:00      -79.402       67.078      -18.222       35.641       45.328       24.890     1270.301     2054.648      619.526        0.754        0.197      103.943       23.937        0.053      334.018        3.713      859.373
12/13/2014  00:13:00      -80.704      105.683      -17.941       44.316       71.377       28.422     1963.898     5094.659      807.791        1.293        0.393      132.974       20.244        0.023      334.073        3.805      859.366
12/13/2014  00:14:00     -110.867       43.143      -11.886       51.359       43.014       25.386     2637.751     1850.232      644.444        0.971        0.257      118.966       20.083        0.028      334.103        3.856      859.361
12/13/2014  00:15:00     -100.988       41.976      -21.355       23.727       39.078       20.435      562.981     1527.097      417.599        0.746        0.125      109.364       10.976        0.010      334.068        3.796      859.370
12/13/2014  00:16:00      -45.067       -7.438       -6.017       25.257       15.413       14.830      637.941      237.555      219.932        0.161        0.055       45.677       12.725        0.078      334.109        3.865      859.372
12/13/2014  00:17:00     -100.748      -50.355        0.107       32.476       30.706       20.108     1054.703      942.831      404.349        0.754        0.120      112.631       20.474        0.033      333.899        3.516      859.374
12/13/2014  00:18:00      -96.373      -25.403      -10.427       24.376       13.155        9.712      594.200      173.060       94.326        0.545        0.043       99.664        5.049        0.003      333.847        3.431      859.371
12/13/2014  00:19:00      -62.596      -25.512      -10.240       15.939       13.639       12.099      254.050      186.022      146.394        0.263        0.029       67.595        5.123        0.006      333.897        3.513      859.364
12/13/2014  00:20:00      -60.565      -31.444      -12.098       13.560       11.293        9.804      183.878      127.528       96.110        0.261        0.020       68.241        7.664        0.013      333.876        3.479      859.358
12/13/2014  00:21:00      -62.870      -30.945       -4.702       20.014       18.763       11.101      400.564      352.043      123.222        0.290        0.044       70.073        8.705        0.015      333.901        3.519      859.353
12/13/2014  00:22:00      -72.676       10.218      -12.130       33.094       21.339       17.844     1095.215      455.355      318.418        0.370        0.093       73.390       19.208        0.068      334.077        3.812      859.349
12/13/2014  00:23:00      -24.229       12.419       -4.674       16.820       28.908       11.798      282.927      835.645      139.188        0.101        0.063       27.227       12.068        0.196      334.128        3.898      859.342
12/13/2014  00:24:00      -15.284      -11.138       15.020       29.828       18.721       10.851      889.733      350.477      117.750        0.097        0.068       18.911       11.355        0.361      334.053        3.771      859.338
12/13/2014  00:25:00      -34.592       -8.587       -2.451       22.319       20.490       11.020      498.127      419.850      121.445        0.116        0.052       35.642       10.959        0.095      334.027        3.729      859.334
12/13/2014  00:26:00      -69.020       36.895      -17.900       21.539       48.549       15.788      463.921     2357.053      249.273        0.476        0.154       78.263       16.958        0.047      334.059        3.782      859.349
12/13/2014  00:27:00      -71.001        9.230      -10.100       26.260       34.152       14.489      689.605     1166.361      209.929        0.365        0.103       71.598       14.304        0.040      334.057        3.779      859.369
12/13/2014  00:28:00      -55.571      -34.831       -1.033       50.392       16.122       13.632     2539.370      259.933      185.841        0.364        0.149       65.585       17.787        0.074      333.959        3.616      859.388
12/13/2014  00:29:00      -55.005      -44.359        7.018       37.657       21.661       17.619     1418.086      469.209      310.447        0.362        0.110       70.663       19.677        0.078      333.952        3.605      859.407
12/13/2014  00:30:00      -31.729      -34.389        7.493       27.840       19.084       18.195      775.049      364.189      331.073        0.186        0.074       46.790       18.431        0.155      333.933        3.574      859.416
12/13/2014  00:31:00      -31.198      -12.867        1.376       14.397       11.441        8.185      207.275      130.895       66.986        0.077        0.020       33.747        5.601        0.028      333.947        3.598      859.431
12/13/2014  00:32:00      -13.482       -9.830        1.157       10.565       11.754        8.555      111.617      138.149       73.182        0.030        0.016       16.685        4.396        0.069      333.976        3.646      859.447
12/13/2014  00:33:00      -14.576      -15.671        4.568       17.827       18.082       10.625      317.795      326.956      112.885        0.062        0.038       21.402        8.625        0.162      333.946        3.595      859.470
12/13/2014  00:34:00       28.419       26.051       14.969       19.107       26.914       13.352      365.062      724.363      178.269        0.149        0.063       38.553       11.459        0.088      333.935        3.577      859.484
12/13/2014  00:35:00       33.822       55.754       50.080       50.566       33.984       27.420     2556.910     1154.916      751.882        0.561        0.223       65.211       16.668        0.065      333.889        3.500      859.501
12/13/2014  00:36:00       78.559       11.241       40.019       47.290       23.147       30.286     2236.309      535.783      917.239        0.579        0.184       79.359       20.290        0.065      333.704        3.194      859.508
12/13/2014  00:37:00       74.320       52.663       71.151       52.535       43.020       40.597     2759.936     1850.755     1648.112        0.981        0.313       91.087       30.059        0.109      333.723        3.226      859.511
12/13/2014  00:38:00       91.215       23.034       50.910       74.400       58.549       40.860     5535.306     3427.996     1669.526        1.104        0.532       94.078       50.071        0.283      333.731        3.238      859.518
12/13/2014  00:39:00       21.434       21.958       46.092       27.722       33.671       21.250      768.502     1133.716      451.551        0.271        0.118       30.685       15.992        0.272      333.742        3.256      859.533
12/13/2014  00:40:00       51.667        8.317       27.776       44.411       27.788       26.114     1972.368      772.166      681.916        0.347        0.171       52.332       30.754        0.345      333.759        3.283      859.540
12/13/2014  00:41:00       45.175      -76.126        0.878       33.184       25.977       23.040     1101.196      674.806      530.859        0.507        0.115       88.521       21.077        0.057      333.865        3.461      859.540
12/13/2014  00:42:00       42.102      -62.461       -1.663       25.151       32.593       17.736      632.598     1062.320      314.554        0.384        0.100       75.326       22.612        0.090      333.791        3.338      859.542
12/13/2014  00:43:00       13.301       34.853       30.681       21.265       16.521       18.410      452.193      272.927      338.920        0.170        0.053       37.304       14.995        0.162      333.681        3.154      859.550
12/13/2014  00:44:00       66.938       55.904       24.375       24.244       15.712       18.532      587.766      246.866      343.419        0.469        0.059       87.212       16.498        0.036      333.708        3.200      859.559
12/13/2014  00:45:00       97.904       53.947       19.784       26.031       27.296       22.010      677.622      745.055      484.457        0.740        0.095      111.783       15.090        0.018      333.669        3.135      859.561
12/13/2014  00:46:00      101.474       68.238       35.767       26.095       20.733       29.662      680.939      429.871      879.806        0.911        0.100      122.284       15.799        0.017      333.624        3.061      859.567
12/13/2014  00:47:00      101.291       51.257        8.992       33.609       27.135       25.384     1129.553      736.319      644.366        0.774        0.126      113.522       15.387        0.018      333.578        2.985      859.573
12/13/2014  00:48:00       93.012       47.207       21.325       31.997       23.028       20.349     1023.803      530.296      414.078        0.665        0.098      104.306       17.565        0.028      333.545        2.931      859.586
12/13/2014  00:49:00       54.071       13.857       30.935       40.382       35.309       20.334     1630.708     1246.752      413.470        0.368        0.165       55.819       21.857        0.153      333.549        2.937      859.600
12/13/2014  00:50:00       41.078       13.148       26.649       35.171       25.109       23.309     1236.969      630.481      543.296        0.249        0.121       43.131       23.548        0.298      333.599        3.018      859.609
12/13/2014  00:51:00       28.575      -38.860       -5.107       28.973       54.647       21.875      839.431     2986.320      478.523        0.333        0.215       48.236       21.469        0.198      333.884        3.493      859.608
12/13/2014  00:52:00       22.509      -98.423      -20.656       32.841       30.406       23.658     1078.542      924.517      559.712        0.659        0.128      100.964       16.373        0.026      334.006        3.694      859.600
12/13/2014  00:53:00        5.323      -37.003        5.222       23.035       51.424       27.978      530.630     2644.439      782.748        0.269        0.198       37.384       16.921        0.205      333.870        3.469      859.598
12/13/2014  00:54:00        8.304      -20.002       19.510       17.155       32.434       21.171      294.305     1051.954      448.216        0.132        0.090       21.657       14.833        0.469      333.776        3.313      859.605
12/13/2014  00:55:00        0.980       -7.580       29.560       16.783       27.257       13.223      281.660      742.925      174.853        0.107        0.060        7.643        9.480        1.539      333.685        3.162      859.606
12/13/2014  00:56:00      -17.063       33.247       54.813       13.707       22.048       14.773      187.881      486.094      218.233        0.265        0.045       37.370       13.672        0.134      333.651        3.106      859.598
12/13/2014  00:57:00      -11.479       31.496       61.419       12.955       19.557       12.939      167.840      382.457      167.430        0.281        0.036       33.523       12.487        0.139      333.697        3.183      859.597
12/13/2014  00:58:00       -2.377       34.860       51.506       16.978       24.577       13.944      288.239      604.029      194.423        0.248        0.054       34.941       16.034        0.211      333.708        3.199      859.604
12/13/2014  00:59:00       19.976       39.023       50.877       23.442       19.022       11.571      549.532      361.847      133.890        0.278        0.052       43.839       10.192        0.054      333.792        3.339      859.611
12/13/2014  01:00:00       72.792       61.848       36.083       34.603       21.706       29.209     1197.374      471.171      853.144        0.647        0.126       95.518       16.144        0.029      333.773        3.309      859.614
12/13/2014  01:01:00      102.392       71.815       45.628       50.647       37.648       39.936     2565.115     1417.349     1594.883        1.165        0.279      125.066       30.299        0.059      333.527        2.900      859.624
12/13/2014  01:02:00       86.175       81.766       44.484       32.592       26.177       31.062     1062.270      685.225      964.821        0.940        0.136      118.794       20.353        0.029      333.408        2.702      859.636
12/13/2014  01:03:00      121.161       74.424       14.499       30.088       23.851       30.615      905.282      568.887      937.266        1.142        0.121      142.193       19.705        0.019      333.323        2.563      859.641
12/13/2014  01:04:00      109.127       59.353       13.012       37.293       26.642       24.412     1390.794      709.795      595.957        0.915        0.135      124.223       15.058        0.015      333.307        2.536      859.654
12/13/2014  01:05:00       87.468       75.331       21.427       42.942       28.899       31.912     1844.012      835.131     1018.381        0.874        0.185      115.436       27.302        0.056      333.367        2.635      859.664
12/13/2014  01:06:00       63.675       51.440       11.906       35.448       24.707       24.964     1256.530      610.459      623.215        0.467        0.125       81.857       18.183        0.049      333.413        2.711      859.666
12/13/2014  01:07:00       44.446       45.086        2.508       25.644       20.220       19.743      657.626      408.868      389.778        0.274        0.073       63.310       12.772        0.041      333.541        2.924      859.676
12/13/2014  01:08:00        5.564       39.028       -6.638       11.417       15.142        8.435      130.355      229.273       71.151        0.101        0.022       39.423        8.545        0.047      333.550        2.934      859.693
12/13/2014  01:09:00       31.309       27.637        5.472       15.851       16.853       11.349      251.270      284.019      128.793        0.122        0.033       41.762        7.742        0.034      333.498        2.853      859.712
12/13/2014  01:10:00       28.100       19.964        8.430       15.372       10.873       13.880      236.306      118.227      192.653        0.090        0.027       34.469        7.970        0.053      333.447        2.766      859.734
12/13/2014  01:11:00       25.010       21.006        0.544        9.394       15.438        9.624       88.248      238.333       92.612        0.074        0.021       32.662        6.080        0.035      333.441        2.757      859.752
12/13/2014  01:12:00       47.622       19.441        1.249       15.311       11.503       10.458      234.440      132.330      109.375        0.156        0.024       51.437        7.265        0.020      333.460        2.786      859.759
12/13/2014  01:13:00       20.451        1.894       15.477       14.100       15.401       13.087      198.816      237.187      171.276        0.063        0.030       20.538       12.469        0.369      333.466        2.799      859.776
12/13/2014  01:14:00       17.533       13.545       -1.571       11.541        7.626        5.418      133.204       58.159       29.360        0.036        0.011       22.156        2.583        0.014      333.460        2.785      859.799
12/13/2014  01:15:00       -0.829        8.983       -3.423        6.077       10.313        2.748       36.934      106.350        7.549        0.012        0.008        9.021        2.189        0.059      333.411        2.708      859.823
12/13/2014  01:16:00      -13.523       -1.793       -2.153        6.483        8.114        8.705       42.035       65.832       75.781        0.019        0.009       13.641        6.927        0.258      333.440        2.756      859.844
12/13/2014  01:17:00      -31.525      -19.607        2.748       14.493        8.648        6.720      210.060       74.796       45.164        0.086        0.017       37.125        6.283        0.029      333.546        2.931      859.853
12/13/2014  01:18:00      -48.069      -16.730       -5.941       10.127       13.086        6.970      102.555      171.247       48.580        0.147        0.016       50.897        6.078        0.014      333.593        3.009      859.869
12/13/2014  01:19:00      -44.788      -27.162       -7.464        6.845        5.629        6.789       46.857       31.688       46.089        0.146        0.006       52.381        4.159        0.006      333.589        3.003      859.878
12/13/2014  01:20:00      -43.737      -33.752       -0.808       13.982        7.210        8.166      195.506       51.979       66.678        0.168        0.016       55.246        7.343        0.018      333.709        3.200      859.889
12/13/2014  01:21:00      -33.587      -29.034       -2.820        7.424        7.664        4.836       55.123       58.734       23.391        0.106        0.007       44.396        1.904        0.002      333.723        3.224      859.905
12/13/2014  01:22:00      -12.891      -20.553       -0.915       17.435       15.948        5.915      303.966      254.352       34.985        0.059        0.030       24.261        6.680        0.076      333.714        3.212      859.925
12/13/2014  01:23:00       -6.939      -18.971        6.387       10.927       17.468        8.251      119.396      305.116       68.086        0.047        0.025       20.200        7.831        0.150      333.695        3.178      859.942
12/13/2014  01:24:00       26.593       38.603       35.065       34.569       23.078       26.170     1195.028      532.601      684.881        0.292        0.121       46.876       22.332        0.227      333.426        2.732      859.958
12/13/2014  01:25:00       69.966       52.418       42.501       39.017       36.051       40.176     1522.331     1299.688     1614.140        0.694        0.222       87.424       25.230        0.083      333.302        2.529      859.973
12/13/2014  01:26:00       82.549       47.128       48.246       44.222       31.619       29.032     1955.619      999.787      842.885        0.758        0.190       95.055       27.882        0.086      333.236        2.418      859.989
12/13/2014  01:27:00      101.224       42.645       21.765       37.809       23.886       25.526     1429.489      570.530      651.590        0.759        0.133      109.840       19.960        0.033      333.306        2.532      860.004
12/13/2014  01:28:00       59.536       42.063       11.913       30.546       17.488       18.605      933.050      305.819      346.136        0.352        0.079       72.896        8.403        0.013      333.302        2.526      860.022
12/13/2014  01:29:00       18.114       40.832       -2.257       11.081       14.777       10.437      122.787      218.359      108.931        0.123        0.023       44.670       10.113        0.051      333.292        2.512      860.029
12/13/2014  01:30:00       -6.167       45.881       -4.081       13.077       16.411        9.005      171.020      269.323       81.094        0.134        0.026       46.293       10.690        0.053      333.388        2.670      860.043
12/13/2014  01:31:00      -24.706       11.935       -0.986       21.667       19.478       10.996      469.450      379.374      120.918        0.086        0.048       27.438       10.120        0.136      333.159        2.291      860.057
12/13/2014  01:32:00      -48.615       24.786       -3.690       21.473       17.017       15.169      461.093      289.578      230.107        0.199        0.049       54.568        9.174        0.028      333.163        2.298      860.076
12/13/2014  01:33:00      -57.804       34.509       -5.581       23.187       19.374       16.386      537.659      375.368      268.492        0.287        0.059       67.321       11.196        0.028      333.316        2.551      860.090
12/13/2014  01:34:00      -77.945       -0.350       -7.330       24.564       31.599       12.995      603.401      998.514      168.857        0.395        0.089       77.946       13.400        0.030      333.448        2.768      860.102
12/13/2014  01:35:00     -105.224      -33.482      -16.278       23.016       21.680       13.255      529.727      470.023      175.692        0.682        0.059      110.423        8.403        0.006      333.296        2.518      860.108
12/13/2014  01:36:00      -71.450       -3.295       -4.501       44.419       29.578       21.851     1973.038      874.870      477.469        0.423        0.166       71.526       26.139        0.134      333.220        2.391      860.112
12/13/2014  01:37:00     -142.755       -3.172      -11.024       34.677       22.865       22.107     1202.522      522.813      488.729        1.136        0.111      142.790       23.477        0.027      333.319        2.556      860.115
12/13/2014  01:38:00     -133.905       -9.930      -19.897       28.260       20.105       18.699      798.649      404.216      349.658        0.999        0.078      134.273       16.713        0.015      333.248        2.438      860.119
12/13/2014  01:39:00     -111.699        1.029       -6.457       29.415       27.277       21.345      865.265      744.030      455.601        0.729        0.103      111.704       18.898        0.029      333.467        2.799      860.128
12/13/2014  01:40:00      -73.545       -9.774       -4.734       41.150       28.253       21.222     1693.349      798.255      450.381        0.423        0.147       74.192       20.443        0.076      333.333        2.577      860.138
12/13/2014  01:41:00      -85.345      -19.393       -3.135       46.437       22.136       20.351     2156.363      489.988      414.182        0.536        0.153       87.521       23.465        0.072      333.293        2.512      860.145
12/13/2014  01:42:00      -98.916        7.341       -0.775       48.441       31.493       25.976     2346.514      991.812      674.735        0.693        0.201       99.188       29.879        0.091      333.429        2.738      860.156
12/13/2014  01:43:00     -133.013       31.686      -15.348       32.502       23.255       19.100     1056.373      540.787      364.804        1.045        0.098      136.735       15.863        0.013      333.461        2.791      860.168
12/13/2014  01:44:00     -124.974       29.506       -8.403       39.778       27.585       20.004     1582.313      760.913      400.147        0.965        0.137      128.410       13.135        0.010      333.648        3.100      860.172
12/13/2014  01:45:00     -160.795       28.076      -19.921       15.608       17.810       12.958      243.594      317.212      167.911        1.388        0.036      163.228        8.125        0.002      333.322        2.560      860.181
12/13/2014  01:46:00     -161.563       11.793      -19.960       16.917       25.051       16.367      286.195      627.530      267.876        1.391        0.059      161.993        8.587        0.003      333.177        2.323      860.199
12/13/2014  01:47:00     -122.458      -21.905      -13.684       52.786       29.671       27.812     2786.357      880.380      773.529        1.005        0.222      124.402       28.806        0.054      333.086        2.170      860.227
12/13/2014  01:48:00     -116.780      -10.650      -16.668       33.488       37.187       15.331     1121.422     1382.878      235.034        0.838        0.137      117.265       14.463        0.015      333.009        2.045      860.241
12/13/2014  01:49:00     -109.364      -25.274      -15.229       41.316       32.323       23.614     1707.031     1044.804      557.624        0.807        0.165      112.246       22.514        0.040      332.982        1.998      860.251
12/13/2014  01:50:00     -107.936      -20.139       -9.604       19.610       26.048       17.327      384.536      678.522      300.228        0.676        0.068      109.799       17.027        0.024      333.095        2.185      860.258
12/13/2014  01:51:00      -77.928      -11.823      -16.691       24.922       26.928       18.655      621.124      725.139      348.010        0.409        0.085       78.820       12.374        0.025      333.034        2.085      860.269
12/13/2014  01:52:00      -40.023      -17.403       -6.559       33.958       21.494       16.452     1153.113      462.000      270.653        0.192        0.094       43.643       13.453        0.095      332.993        2.017      860.277
12/13/2014  01:53:00      -73.324      -29.536      -14.677       41.066       28.637       22.742     1686.420      820.084      517.196        0.474        0.151       79.049       24.101        0.093      332.962        1.966      860.294
12/13/2014  01:54:00      -43.034      -36.366       -1.451       38.201       26.782       14.956     1459.284      717.278      223.692        0.279        0.120       56.342       15.409        0.075      332.972        1.983      860.308
12/13/2014  01:55:00      -71.880      -17.985      -10.409       33.055       37.484       12.807     1092.664     1405.052      164.007        0.413        0.133       74.096        5.758        0.006      332.942        1.935      860.321
12/13/2014  01:56:00      -22.449       25.618       -6.854       19.195       54.873       12.764      368.440     3011.099      162.928        0.237        0.177       34.062       15.975        0.220      333.057        2.124      860.322
12/13/2014  01:57:00      -45.412       79.776       -8.802       22.280       28.452       20.697      496.420      809.489      428.365        0.512        0.087       91.795        9.566        0.011      333.032        2.083      860.326
12/13/2014  01:58:00      -64.750       11.968        2.314       22.148       20.172       20.357      490.542      406.925      414.391        0.283        0.066       65.847       12.277        0.035      333.214        2.383      860.336
12/13/2014  01:59:00      -32.809      -10.894        2.254       29.880       23.296       14.638      892.834      542.700      214.275        0.142        0.082       34.570       10.211        0.087      333.230        2.409      860.350
12/13/2014  02:00:00      -85.796      -44.887       -7.303       20.722       23.186       12.236      429.381      537.579      149.710        0.527        0.056       96.828        6.194        0.004      333.100        2.194      860.366
12/13/2014  02:01:00     -104.197      -48.466       -7.210       40.500       23.566       22.584     1640.256      555.344      510.042        0.798        0.135      114.917       18.300        0.025      332.957        1.957      860.378
12/13/2014  02:02:00     -109.435      -44.685       -8.702       34.068       22.575       19.730     1160.652      509.609      389.254        0.805        0.103      118.206       19.313        0.027      332.913        1.885      860.390
12/13/2014  02:03:00      -90.442      -20.953       -9.601       27.571       30.026       19.582      760.170      901.575      383.449        0.538        0.102       92.837       15.332        0.027      332.928        1.909      860.404
12/13/2014  02:04:00      -96.370      -22.871      -11.145       21.883       18.551       12.712      478.886      344.132      161.599        0.546        0.049       99.046       10.061        0.010      332.995        2.020      860.414
12/13/2014  02:05:00     -120.231      -12.783      -18.683       15.774       23.101       13.164      248.829      533.646      173.290        0.796        0.048      120.909        8.108        0.004      332.994        2.019      860.432
12/13/2014  02:06:00      -98.657      -30.207       -8.277       21.544       20.955       16.986      464.135      439.120      288.524        0.595        0.060      103.178       12.366        0.014      332.983        2.000      860.439
12/13/2014  02:07:00     -137.340      -12.412      -19.147       25.613       26.630       17.216      656.042      709.165      296.378        1.052        0.083      137.900       11.765        0.007      332.933        1.917      860.449
12/13/2014  02:08:00     -101.360      -42.582       -0.930       24.285       24.835       16.798      589.759      616.758      282.184        0.679        0.074      109.941       14.513        0.017      332.929        1.913      860.455
12/13/2014  02:09:00     -128.772      -49.814       -5.875       41.885       27.159       17.513     1754.378      737.634      306.688        1.095        0.140      138.071       15.963        0.013      332.987        2.007      860.452
12/13/2014  02:10:00     -143.152      -70.502       -1.179       36.996       34.033       22.717     1368.709     1158.214      516.068        1.425        0.152      159.572       16.559        0.011      332.964        1.970      860.450
12/13/2014  02:11:00     -127.401      -57.205        5.733       55.188       35.394       27.483     3045.754     1252.731      755.318        1.229        0.253      139.655       29.410        0.044      332.938        1.926      860.441
12/13/2014  02:12:00     -146.871      -49.584       -2.125       48.530       39.279       22.704     2355.169     1542.815      515.470        1.422        0.221      155.015       25.497        0.027      332.987        2.007      860.440
12/13/2014  02:13:00     -147.947      -64.405       -4.336       55.548       50.414       27.528     3085.530     2541.562      757.795        1.622        0.319      161.357       28.824        0.032      333.109        2.208      860.427
12/13/2014  02:14:00     -133.315      -37.360        5.216       64.951       45.123       30.809     4218.636     2036.122      949.177        1.320        0.360      138.451       35.067        0.064      333.055        2.118      860.431
12/13/2014  02:15:00     -130.309      -47.487        2.572       41.122       35.221       23.527     1690.984     1240.538      553.502        1.136        0.174      138.692       20.921        0.023      333.028        2.074      860.437
12/13/2014  02:16:00     -102.643      -63.476        1.727       42.243       25.406       22.755     1784.444      645.469      517.804        0.876        0.147      120.684       17.250        0.020      333.021        2.065      860.449
12/13/2014  02:17:00     -102.224      -19.987       -3.923       41.183       26.103       20.643     1696.001      681.347      426.119        0.683        0.140      104.160       23.775        0.052      332.973        1.984      860.468
12/13/2014  02:18:00      -87.732      -15.721       -7.084       38.558       24.028       13.254     1486.747      577.368      175.676        0.512        0.112       89.130       16.642        0.035      332.890        1.848      860.494
12/13/2014  02:19:00      -84.411      -11.200       -3.682       25.367       25.573       20.479      643.477      653.983      419.392        0.449        0.086       85.151       17.963        0.045      332.926        1.907      860.520
12/13/2014  02:20:00      -71.289      -25.667       -9.020       19.235       23.563       17.140      369.973      555.230      293.769        0.352        0.061       75.769       12.662        0.028      332.853        1.788      860.553
12/13/2014  02:21:00     -104.814        8.755      -12.355       30.837       29.107       22.620      950.947      847.208      511.685        0.676        0.115      105.179       19.059        0.033      332.921        1.898      860.588
12/13/2014  02:22:00      -68.823        6.694        0.430       36.508       26.933       17.442     1332.803      725.371      304.227        0.357        0.118       69.148       13.562        0.038      332.933        1.919      860.610
12/13/2014  02:23:00      -86.809       -1.683      -10.683       27.769       26.884       18.491      771.116      722.726      341.923        0.474        0.092       86.825       12.861        0.022      332.979        1.995      860.626
12/13/2014  02:24:00      -86.696       -8.176      -10.809       33.288       18.773       17.966     1108.071      352.436      322.776        0.474        0.089       87.081       19.020        0.048      332.885        1.839      860.641
12/13/2014  02:25:00      -78.330      -22.147      -10.742       19.994       28.644       11.640      399.777      820.472      135.489        0.405        0.068       81.401        6.986        0.007      332.871        1.817      860.655
12/13/2014  02:26:00     -121.671       19.844      -16.062       23.075       20.576       16.196      532.454      423.364      262.316        0.834        0.061      123.279        9.227        0.006      332.895        1.856      860.676
12/13/2014  02:27:00     -102.517       -2.619       -7.626       23.366       20.228       15.085      545.971      409.172      227.572        0.588        0.059      102.550       12.200        0.014      332.779        1.663      860.692
12/13/2014  02:28:00      -96.278      -11.721      -15.752       28.435       22.838       20.363      808.555      521.579      414.634        0.570        0.087       96.989       15.027        0.024      332.755        1.626      860.705
12/13/2014  02:29:00     -146.997      -24.823      -11.941       41.088       31.566       22.121     1688.208      996.418      489.358        1.277        0.159      149.078       22.969        0.024      332.653        1.456      860.723
12/13/2014  02:30:00      -99.153        2.676       -2.008       26.742       33.937       25.801      715.147     1151.748      665.703        0.619        0.127       99.189       14.620        0.022      332.582        1.338      860.733
12/13/2014  02:31:00      -98.407      -20.331      -11.767       25.124       39.243       16.967      631.198     1540.022      287.874        0.635        0.123      100.485        9.593        0.009      332.631        1.419      860.739
12/13/2014  02:32:00      -94.843      -28.924        0.376       33.036       32.927       18.649     1091.373     1084.196      347.773        0.618        0.126       99.156       15.976        0.026      332.603        1.372      860.751
12/13/2014  02:33:00      -94.774      -13.072       -4.007       32.911       35.618       28.644     1083.161     1268.636      820.480        0.617        0.159       95.672       24.610        0.066      332.710        1.549      860.753
12/13/2014  02:34:00      -98.892       -4.833      -13.778       26.515       41.346       18.210      703.046     1709.459      331.619        0.637        0.137       99.010       11.590        0.014      332.801        1.699      860.758
12/13/2014  02:35:00      -87.954      -16.896       -4.434       21.522       35.009       26.871      463.210     1225.658      722.074        0.523        0.121       89.562       16.316        0.033      332.765        1.640      860.759
12/13/2014  02:36:00      -95.769       -4.199      -10.678       32.075       43.138       20.239     1028.816     1860.902      409.635        0.630        0.165       95.861       14.741        0.024      332.874        1.822      860.769
12/13/2014  02:37:00     -103.692       23.786      -10.369       29.771       25.798       21.881      886.333      665.533      478.797        0.673        0.102      106.385       16.689        0.025      332.970        1.978      860.788
12/13/2014  02:38:00     -104.670       -6.393      -14.200       29.141       20.284       18.351      849.219      411.437      336.762        0.640        0.080      104.865       16.881        0.026      332.815        1.724      860.817
12/13/2014  02:39:00     -122.120      -16.580      -18.074       23.496       19.533       20.525      552.041      381.541      421.283        0.843        0.068      123.240       16.402        0.018      332.738        1.597      860.826
12/13/2014  02:40:00     -124.393       -5.430      -15.811       25.103       23.896       21.881      630.136      571.006      478.785        0.872        0.084      124.512       20.209        0.026      332.751        1.618      860.834
12/13/2014  02:41:00     -144.444        0.492      -18.313       28.453       27.105       18.615      809.560      734.673      346.509        1.154        0.095      144.444       10.857        0.006      332.659        1.466      860.839
12/13/2014  02:42:00     -145.085       22.052      -16.472       43.652       37.005       24.887     1905.468     1369.379      619.365        1.285        0.195      146.751       23.614        0.026      332.680        1.500      860.841
12/13/2014  02:43:00     -117.611        1.895      -17.498       36.033       28.420       19.910     1298.384      807.701      396.413        0.832        0.125      117.626       19.092        0.026      332.619        1.399      860.840
12/13/2014  02:44:00      -98.215      -22.165       -9.334       20.791       31.172       17.015      432.247      971.718      289.501        0.596        0.085      100.685       11.910        0.014      332.628        1.414      860.827
12/13/2014  02:45:00      -94.827      -34.279       -4.840       33.115       28.655       20.688     1096.593      821.092      428.012        0.627        0.117      100.832       17.191        0.029      332.667        1.480      860.816
12/13/2014  02:46:00     -114.430       -9.573       -8.643       42.389       44.572       24.703     1796.794     1986.659      610.251        0.883        0.220      114.830       23.767        0.043      332.642        1.438      860.807
12/13/2014  02:47:00      -94.992      -32.171       -8.924       26.109       22.705       21.393      681.663      515.535      457.642        0.590        0.083      100.292       17.635        0.031      332.603        1.372      860.814
12/13/2014  02:48:00     -108.579      -20.730       -6.793       24.559       32.925       20.680      603.134     1084.026      427.677        0.719        0.106      110.540       11.260        0.010      332.658        1.464      860.830
12/13/2014  02:49:00      -80.131      -27.151        7.656       49.023       39.092       30.556     2403.274     1528.150      933.658        0.604        0.243       84.606       28.914        0.117      332.613        1.389      860.837
12/13/2014  02:50:00     -136.010        2.973      -14.136       24.075       34.592       29.696      579.604     1196.589      881.854        1.068        0.133      136.043       19.382        0.020      332.663        1.472      860.844
12/13/2014  02:51:00     -142.879      -37.369      -16.642       44.214       45.388       20.567     1954.837     2060.093      422.985        1.326        0.222      147.685       16.967        0.013      332.614        1.391      860.848
12/13/2014  02:52:00     -139.373      -38.974       -7.961       32.032       26.226       17.950     1026.055      687.777      322.204        1.152        0.102      144.720       15.276        0.011      332.545        1.277      860.861
12/13/2014  02:53:00     -156.090      -23.023      -17.772       29.403       32.693       23.578      864.534     1068.811      555.914        1.385        0.124      157.778       18.872        0.014      332.553        1.289      860.877
12/13/2014  02:54:00     -133.130       -3.676      -14.634       44.560       29.440       22.182     1985.624      866.729      492.028        1.065        0.167      133.181       24.875        0.035      332.610        1.384      860.893
12/13/2014  02:55:00      -96.600      -14.020       -9.670       29.789       30.295       18.991      887.379      917.793      360.674        0.589        0.108       97.612       17.178        0.031      332.673        1.489      860.894
12/13/2014  02:56:00     -106.535      -51.076       -9.781       23.724       34.229       18.436      562.819     1171.603      339.898        0.806        0.104      118.146       13.071        0.012      332.603        1.374      860.904
12/13/2014  02:57:00     -113.557      -38.610       -7.134       40.580       32.736       21.762     1646.728     1071.636      473.592        0.881        0.160      119.941       22.754        0.036      332.664        1.473      860.917
12/13/2014  02:58:00     -131.695        3.743      -12.669       33.134       32.107       24.796     1097.895     1030.862      614.841        1.013        0.137      131.749       22.324        0.029      332.679        1.499      860.920
12/13/2014  02:59:00     -153.477       26.086      -13.295       40.691       36.078       21.055     1655.783     1301.653      443.333        1.391        0.170      155.678       16.827        0.012      332.689        1.516      860.923
12/13/2014  03:00:00     -238.195       54.060      -19.335       33.447       44.751       23.301     1118.698     2002.619      542.937        3.185        0.183      244.253       21.904        0.008      332.694        1.518      860.930
12/13/2014  03:01:00     -156.671       -3.931      -19.182       45.700       51.414       29.077     2088.501     2643.444      845.463        1.525        0.279      156.720       21.455        0.019      332.480        1.169      860.932
12/13/2014  03:02:00     -156.998       -0.675      -23.165       41.359       51.284       25.323     1710.527     2630.049      641.247        1.508        0.249      156.999       21.566        0.019      332.494        1.191      860.933
12/13/2014  03:03:00     -122.317       -6.973       -3.846       34.389       44.464       23.555     1182.591     1977.066      554.852        0.937        0.186      122.516       17.000        0.019      332.496        1.197      860.925
12/13/2014  03:04:00     -159.560       46.346      -18.448       36.891       28.877       19.336     1360.913      833.905      373.881        1.526        0.128      166.154       10.475        0.004      332.533        1.256      860.917
12/13/2014  03:05:00     -135.036        6.797      -12.244       30.141       49.844       17.946      908.503     2484.376      322.055        1.107        0.186      135.207       12.492        0.009      332.566        1.310      860.916
12/13/2014  03:06:00     -154.796       18.743      -18.152       31.955       34.845       19.052     1021.148     1214.190      362.962        1.362        0.130      155.927        7.331        0.002      332.604        1.375      860.923
12/13/2014  03:07:00     -119.634       -8.630      -16.390       34.840       38.810       25.864     1213.857     1506.232      668.952        0.902        0.169      119.944       21.194        0.031      332.551        1.286      860.930
12/13/2014  03:08:00     -113.242      -17.838      -17.413       31.793       45.904       26.231     1010.788     2107.149      688.059        0.862        0.190      114.638       16.338        0.020      332.597        1.363      860.926
12/13/2014  03:09:00     -123.350      -52.867       -2.716       35.849       36.187       22.190     1285.181     1309.529      492.390        1.055        0.154      134.202       13.567        0.010      332.526        1.244      860.929
12/13/2014  03:10:00     -163.881      -28.821      -10.837       39.233       50.956       21.413     1539.245     2596.523      458.500        1.620        0.230      166.396       22.687        0.019      332.506        1.211      860.923
12/13/2014  03:11:00      -92.433      -41.948        0.234       44.827       39.575       26.046     2009.422     1566.213      678.389        0.728        0.213      101.506       24.227        0.057      332.485        1.177      860.924
12/13/2014  03:12:00     -116.166      -37.054       -2.714       39.472       30.775       21.597     1558.026      947.072      466.450        0.892        0.149      121.932       19.137        0.025      332.531        1.252      860.913
12/13/2014  03:13:00     -101.351      -30.232       -1.694       39.637       41.222       20.843     1571.113     1699.272      434.428        0.745        0.185      105.764       20.346        0.037      332.561        1.303      860.901
12/13/2014  03:14:00      -51.609      -26.258        8.440       29.915       21.030       16.291      894.905      442.281      265.392        0.251        0.080       57.905       14.747        0.065      332.576        1.330      860.896
12/13/2014  03:15:00      -93.762      -29.061      -10.727       28.407       18.570       14.162      806.951      344.837      200.555        0.555        0.068       98.162       15.187        0.024      332.705        1.541      860.897
12/13/2014  03:16:00      -55.986      -20.766        1.988       23.207       25.555       12.756      538.582      653.053      162.707        0.246        0.068       59.713       12.968        0.047      332.677        1.496      860.904
12/13/2014  03:17:00      -67.295      -10.349        2.022       24.819       16.113       17.242      615.973      259.616      297.301        0.291        0.059       68.086       17.017        0.062      332.648        1.448      860.917
12/13/2014  03:18:00      -60.527      -25.829       -7.047       15.249       13.272       10.165      232.547      176.145      103.325        0.245        0.026       65.807        8.224        0.016      332.769        1.647      860.925
12/13/2014  03:19:00       -2.646      -39.559        6.348        9.901       13.172       10.470       98.030      173.491      109.616        0.100        0.019       39.648        7.677        0.037      332.844        1.772      860.939
12/13/2014  03:20:00      -17.668       -7.667        2.736       14.385       11.538        8.418      206.924      133.118       70.857        0.039        0.021       19.260        8.429        0.192      332.743        1.606      860.945
12/13/2014  03:21:00       -3.974       -0.415        3.390        9.066       12.766        9.521       82.191      162.983       90.649        0.018        0.017        3.996        7.601        3.618      332.781        1.668      860.952
12/13/2014  03:22:00       -6.247       22.211        2.088       12.362       10.959       10.896      152.812      120.099      118.714        0.046        0.020       23.073        8.134        0.124      332.772        1.653      860.966
12/13/2014  03:23:00       -3.992       13.291        0.324       15.045        4.997        5.874      226.352       24.969       34.503        0.024        0.014       13.878        8.037        0.335      332.773        1.652      860.980
12/13/2014  03:24:00       -6.794       14.566        3.213        5.753        9.388        7.405       33.101       88.131       54.834        0.022        0.009       16.073        3.034        0.036      332.753        1.621      861.001
12/13/2014  03:25:00       11.185       78.027      -10.816       26.576       32.719       15.403      706.308     1070.504      237.265        0.417        0.101       78.825       17.040        0.047      332.555        1.293      861.016
12/13/2014  03:26:00       14.860      110.050      -18.622       12.865       17.195        7.728      165.517      295.671       59.721        0.660        0.026      111.049        6.956        0.004      332.385        1.011      861.043
12/13/2014  03:27:00       16.402      100.362      -12.416       15.307       25.028       13.088      234.311      626.409      171.307        0.576        0.052      101.693       12.489        0.015      332.489        1.184      861.060
12/13/2014  03:28:00       11.855      103.259      -16.286       18.946       35.376       15.153      358.956     1251.480      229.621        0.645        0.092      103.938       14.007        0.018      332.627        1.413      861.083
12/13/2014  03:29:00       -1.236      118.097      -18.936       18.131       11.674        6.943      328.716      136.286       48.207        0.741        0.026      118.104        6.590        0.003      332.635        1.426      861.104
12/13/2014  03:30:00      -12.032       74.167       -7.791       22.483       40.387       20.736      505.495     1631.076      429.987        0.414        0.128       75.137       16.503        0.048      332.611        1.387      861.119
12/13/2014  03:31:00      -23.665       25.067       -0.755       16.091       18.241       13.833      258.920      332.731      191.358        0.099        0.039       34.474        8.371        0.059      332.580        1.335      861.136
12/13/2014  03:32:00      -21.194       66.119       -9.176       26.298       17.849       13.459      691.587      318.578      181.134        0.305        0.060       69.432       13.978        0.041      332.961        1.965      861.143
12/13/2014  03:33:00       19.508       48.672       -0.313       31.648       23.149       13.719     1001.569      535.879      188.198        0.224        0.086       52.436        9.745        0.035      332.835        1.756      861.155
12/13/2014  03:34:00       70.319       55.173       12.258       23.502       21.750       21.073      552.336      473.084      444.069        0.480        0.073       89.380       13.591        0.023      332.472        1.158      861.168
12/13/2014  03:35:00       34.485       77.233       73.440       25.577       28.004       18.064      654.164      784.236      326.309        0.716        0.088       84.582        9.670        0.013      332.257        0.803      861.182
12/13/2014  03:36:00       50.733       59.167       58.999       24.201       22.411       18.127      585.665      502.267      328.577        0.549        0.071       77.939       10.436        0.018      332.270        0.823      861.188
12/13/2014  03:37:00       28.377       23.300       32.781       22.355       23.880       24.444      499.755      570.236      597.496        0.204        0.083       36.717       14.994        0.167      332.393        1.025      861.182
12/13/2014  03:38:00       46.900       33.792       17.154       14.888       15.588       12.848      221.664      242.971      165.079        0.213        0.031       57.806        8.970        0.024      332.409        1.053      861.180
12/13/2014  03:39:00       25.937       29.838       -2.792        9.043        5.775       10.438       81.770       33.353      108.943        0.090        0.011       39.535        6.680        0.029      332.417        1.064      861.186
12/13/2014  03:40:00        9.078       19.373       -1.697        9.924        5.466        4.217       98.490       29.883       17.780        0.030        0.007       21.395        4.916        0.053      332.597        1.363      861.192
12/13/2014  03:41:00        8.536       16.517        1.656        4.809        8.542        3.795       23.127       72.966       14.401        0.023        0.006       18.592        4.134        0.049      332.618        1.399      861.194
12/13/2014  03:42:00        9.706        8.455        0.763        3.711        3.099        2.107       13.772        9.606        4.438        0.010        0.001       12.872        1.442        0.013      332.640        1.437      861.192
12/13/2014  03:43:00        3.474       13.918        0.551        5.301        6.361        2.101       28.102       40.465        4.412        0.014        0.004       14.345        2.742        0.037      332.642        1.439      861.174
12/13/2014  03:44:00      -10.622       30.437       -6.150       19.125       11.436        8.196      365.766      130.771       67.179        0.082        0.028       32.237        4.367        0.018      332.646        1.445      861.156
12/13/2014  03:45:00       13.834       24.064        1.164       20.504       13.385       12.884      420.416      179.156      166.003        0.077        0.038       27.757       11.906        0.184      332.691        1.520      861.141
12/13/2014  03:46:00       18.121       13.956       -3.566        4.511        9.215        6.330       20.351       84.923       40.068        0.034        0.007       22.873        6.158        0.072      332.738        1.596      861.119
12/13/2014  03:47:00        3.898        5.404        1.758        5.114        4.999        3.401       26.153       24.994       11.569        0.006        0.003        6.663        3.445        0.267      332.684        1.504      861.114
12/13/2014  03:48:00       -4.814       -4.592       -0.468        6.649        5.156        2.227       44.204       26.587        4.961        0.006        0.004        6.653        1.765        0.070      332.628        1.415      861.117
12/13/2014  03:49:00      -44.498        3.740       -2.667       18.180        7.175        6.972      330.508       51.483       48.606        0.122        0.022       44.655        5.692        0.016      332.521        1.236      861.134
12/13/2014  03:50:00      -67.220        6.362       -5.690       14.957       10.516       10.593      223.719      110.581      112.217        0.252        0.022       67.520        7.664        0.013      332.448        1.117      861.148
12/13/2014  03:51:00      -77.489        4.619       -9.871       14.533       12.597       11.227      211.195      158.694      126.055        0.331        0.025       77.627        8.319        0.011      332.489        1.185      861.174
12/13/2014  03:52:00      -63.691      -13.950      -13.083       10.652       13.447        5.987      113.468      180.823       35.841        0.238        0.017       65.201        4.774        0.005      332.461        1.137      861.191
12/13/2014  03:53:00      -51.411      -29.962       -9.611       19.748       13.791        9.522      389.981      190.185       90.664        0.215        0.034       59.505        6.606        0.012      332.297        0.870      861.207
12/13/2014  03:54:00      -79.936      -19.382       -9.736       19.610       21.011       14.104      384.555      441.473      198.912        0.394        0.051       82.252       11.434        0.019      332.151        0.627      861.203
12/13/2014  03:55:00      -90.039      -19.216      -11.514       16.009       12.816       12.845      256.304      164.241      164.995        0.460        0.029       92.067        7.213        0.006      332.214        0.730      861.201
12/13/2014  03:56:00     -114.290      -28.213      -14.815       13.793       12.224        9.208      190.240      149.416       84.790        0.725        0.021      117.721        5.910        0.003      332.258        0.802      861.193
12/13/2014  03:57:00     -107.350      -33.265      -10.207       14.777       16.915       13.351      218.355      286.131      178.243        0.671        0.034      112.386       11.423        0.010      332.309        0.888      861.194
12/13/2014  03:58:00     -104.149      -28.174       -8.511       13.164       18.305       11.217      173.293      335.078      125.826        0.617        0.032      107.892        8.937        0.007      332.262        0.813      861.194
12/13/2014  03:59:00     -123.364      -17.608      -17.117       23.968       18.428       15.123      574.445      339.582      228.693        0.848        0.057      124.614       11.324        0.008      332.105        0.551      861.205
12/13/2014  04:00:00      -96.681       -2.958       -0.457       44.193       27.808       22.855     1953.031      773.278      522.353        0.630        0.162       96.726       25.351        0.069      332.005        0.386      861.215
12/13/2014  04:01:00      -87.558      -11.426       -2.347       40.433       26.897       16.562     1634.866      723.424      274.303        0.522        0.132       88.301       18.412        0.043      332.013        0.400      861.224
12/13/2014  04:02:00     -107.642      -28.315       -5.188       31.199       22.516       19.137      973.389      506.980      366.223        0.713        0.092      111.303       16.785        0.023      332.140        0.610      861.230
12/13/2014  04:03:00      -66.635      -30.484        2.024       32.623       24.396       14.403     1064.273      595.149      207.449        0.362        0.093       73.277       17.690        0.058      332.183        0.679      861.237
12/13/2014  04:04:00      -54.259      -40.138        7.054       28.899       17.085       16.024      835.134      291.883      256.771        0.299        0.069       67.491       16.703        0.061      332.410        1.054      861.241
12/13/2014  04:05:00      -29.746      -16.712        3.599       23.500       18.083       12.263      552.245      327.006      150.386        0.110        0.051       34.119       10.744        0.099      332.387        1.016      861.242
12/13/2014  04:06:00      -66.367       -6.235       -3.190       22.745       16.177       11.546      517.354      261.698      133.318        0.268        0.046       66.659        8.463        0.016      332.344        0.944      861.243
12/13/2014  04:07:00      -78.974        4.204      -10.757       25.150       18.336       11.151      632.530      336.226      124.354        0.373        0.055       79.086        7.882        0.010      332.172        0.661      861.247
12/13/2014  04:08:00      -79.921        8.836       -5.002       25.509       23.450       14.598      650.728      549.881      213.094        0.395        0.071       80.408       11.271        0.020      332.244        0.782      861.247
12/13/2014  04:09:00      -33.626      -25.042        0.006       20.688       13.182        9.431      427.989      173.758       88.947        0.122        0.035       41.927        9.783        0.054      332.206        0.719      861.249
12/13/2014  04:10:00      -58.256      -36.704       -0.901       14.452        9.186        7.293      208.868       84.388       53.182        0.254        0.017       68.855        7.339        0.011      332.300        0.870      861.251
12/13/2014  04:11:00      -54.584      -29.363       -3.967       15.621       12.508        9.906      244.011      156.460       98.131        0.218        0.025       61.980        8.650        0.019      332.341        0.940      861.245
12/13/2014  04:12:00      -60.267      -24.994       -4.827        8.874        9.743        6.527       78.751       94.923       42.596        0.225        0.011       65.244        5.107        0.006      332.495        1.195      861.241
12/13/2014  04:13:00      -58.623      -21.830       -3.726        9.597        7.088        4.704       92.105       50.246       22.130        0.205        0.008       62.556        1.466        0.001      332.522        1.241      861.242
12/13/2014  04:14:00      -62.649       -3.585       -7.296       12.108       15.192        9.845      146.595      230.787       96.933        0.223        0.024       62.751        6.939        0.012      332.370        0.987      861.254
12/13/2014  04:15:00      -72.854      -11.284       -0.623       26.020       16.930       10.768      677.025      286.620      115.941        0.326        0.054       73.723       12.493        0.029      332.251        0.792      861.263
12/13/2014  04:16:00      -62.759        0.895       -4.009       16.435       20.471       12.568      270.093      419.068      157.952        0.240        0.042       62.766       12.010        0.037      332.081        0.512      861.275
12/13/2014  04:17:00      -93.975       18.535      -12.485       23.776       16.246       12.254      565.288      263.927      150.159        0.515        0.049       95.785        8.072        0.007      332.211        0.726      861.284
12/13/2014  04:18:00      -42.275        8.462       -9.599       19.757       27.619       16.489      390.325      762.818      271.890        0.169        0.071       43.113       14.116        0.107      332.369        0.988      861.287
12/13/2014  04:19:00      -42.490      -19.145       -1.534        9.096        8.741        6.232       82.744       76.409       38.839        0.119        0.010       46.604        3.723        0.006      332.626        1.411      861.285
12/13/2014  04:20:00      -11.560      -19.751        1.349       16.605       12.154        8.809      275.723      147.713       77.604        0.051        0.025       22.885        6.156        0.072      332.653        1.454      861.276
12/13/2014  04:21:00      -17.648      -18.060       -2.848        8.670        6.201        7.229       75.169       38.453       52.256        0.041        0.008       25.252        4.337        0.030      332.430        1.088      861.261
12/13/2014  04:22:00      -25.022      -13.613       -8.018        6.856        6.767        4.575       46.998       45.786       20.932        0.049        0.006       28.485        3.132        0.012      332.449        1.120      861.253
12/13/2014  04:23:00      -11.840       -7.509       -3.324       11.864        6.725        4.863      140.752       45.230       23.651        0.021        0.010       14.020        6.725        0.230      332.549        1.284      861.261
12/13/2014  04:24:00       -2.414      -16.024       -3.054        5.611        7.251        4.746       31.478       52.583       22.524        0.019        0.005       16.205        4.214        0.068      332.668        1.481      861.262
12/13/2014  04:25:00      -15.262      -15.636        1.155        4.883        7.381        4.854       23.842       54.479       23.560        0.029        0.005       21.849        2.648        0.015      332.710        1.550      861.275
12/13/2014  04:26:00      -12.605       -0.440       -0.444        4.500        3.067        3.478       20.249        9.408       12.094        0.010        0.002       12.613        1.691        0.018      332.648        1.449      861.298
12/13/2014  04:27:00      -20.868        6.642       -1.535        5.856        5.198        5.143       34.292       27.017       26.446        0.028        0.004       21.900        3.768        0.030      332.728        1.579      861.320
12/13/2014  04:28:00      -20.391       15.628       -6.675        7.557        8.515        6.091       57.108       72.498       37.097        0.044        0.008       25.691        1.849        0.005      332.783        1.671      861.337
12/13/2014  04:29:00      -35.876       12.974       -1.070       10.591        7.908        7.097      112.161       62.536       50.371        0.084        0.011       38.150        7.059        0.034      332.523        1.241      861.359
12/13/2014  04:30:00      -23.645       -6.458       -3.166       10.242        6.773        5.518      104.891       45.867       30.451        0.040        0.009       24.511        4.782        0.038      332.191        0.692      861.375
12/13/2014  04:31:00      -32.949      -11.559      -10.030       13.291        9.288        6.206      176.663       86.267       38.517        0.081        0.015       34.917        5.771        0.027      332.124        0.582      861.389
12/13/2014  04:32:00      -11.932      -15.009       -7.962        8.702        8.783        7.046       75.716       77.148       49.644        0.032        0.010       19.174        5.487        0.082      332.102        0.547      861.397
12/13/2014  04:33:00       -3.151       -2.180        1.620        9.759       12.105        8.554       95.236      146.542       73.177        0.017        0.016        3.832        5.732        2.238      332.276        0.832      861.392
12/13/2014  04:34:00       10.868        3.107       -1.199       13.122       13.310        7.666      172.181      177.143       58.765        0.027        0.020       11.304       10.018        0.785      332.364        0.979      861.394
12/13/2014  04:35:00       -1.732       -3.190        7.877        4.108        6.582        4.598       16.877       43.319       21.138        0.008        0.004        3.630        2.949        0.660      332.309        0.887      861.397
12/13/2014  04:36:00        7.199       19.948       23.160       11.665       11.288        8.613      136.066      127.417       74.189        0.066        0.017       21.207        6.104        0.083      332.217        0.736      861.406
12/13/2014  04:37:00        0.134       14.982       27.306        8.398       11.269        6.645       70.524      126.986       44.161        0.061        0.012       14.983        5.837        0.152      332.183        0.681      861.422
12/13/2014  04:38:00       -2.799       21.648       36.065        6.967       15.444        6.911       48.545      238.529       47.764        0.106        0.017       21.828        8.703        0.159      332.105        0.553      861.423
12/13/2014  04:39:00       -0.506       16.645       29.267       12.099       16.530       11.400      146.386      273.255      129.953        0.084        0.027       16.652        5.598        0.113      332.112        0.565      861.429
12/13/2014  04:40:00        8.952      -19.533       11.395       16.117       19.205       13.804      259.753      368.843      190.561        0.071        0.041       21.487       15.221        0.502      332.185        0.685      861.440
12/13/2014  04:41:00       -9.350      -13.932        2.281       18.987       13.785       11.055      360.520      190.030      122.205        0.048        0.034       16.779        8.224        0.240      332.077        0.506      861.445
12/13/2014  04:42:00      -26.335       -8.477       -3.236        8.664        9.155        8.028       75.065       83.823       64.452        0.050        0.011       27.666        5.391        0.038      331.987        0.357      861.465
12/13/2014  04:43:00      -47.690       -3.729       -8.263        9.199        7.982        5.388       84.628       63.715       29.032        0.127        0.009       47.835        2.678        0.003      332.020        0.413      861.471
12/13/2014  04:44:00      -60.324       -8.008       -6.305       11.561        8.150        7.287      133.660       66.415       53.105        0.200        0.013       60.854        5.721        0.009      332.044        0.452      861.479
12/13/2014  04:45:00      -73.800        6.011       -7.635       11.477        7.989        7.062      131.716       63.823       49.871        0.289        0.012       74.045        4.973        0.005      332.012        0.397      861.494
12/13/2014  04:46:00      -93.124        0.289       -7.888       16.831       13.194       11.099      283.289      174.080      123.195        0.466        0.029       93.124       10.503        0.013      331.928        0.259      861.509
12/13/2014  04:47:00      -87.391       -7.720       -8.230       20.852       15.776       14.441      434.809      248.874      208.556        0.433        0.045       87.732       11.026        0.016      331.907        0.225      861.519
12/13/2014  04:48:00      -84.910      -21.674      -11.184       22.720       18.882       15.365      516.178      356.523      236.091        0.446        0.055       87.633       10.758        0.015      331.843        0.119      861.527
12/13/2014  04:49:00     -109.371      -47.468       -7.836       28.415       25.451       12.587      807.425      647.777      158.443        0.794        0.081      119.228        9.918        0.007      331.697       -0.121      861.528
12/13/2014  04:50:00     -108.529      -55.522       -9.789       52.687       36.809       14.603     2775.951     1354.875      213.256        0.965        0.217      121.906       14.531        0.014      331.756       -0.023      861.525
12/13/2014  04:51:00     -114.272      -43.087       -8.361       33.516       28.625       15.857     1123.325      819.383      251.438        0.859        0.110      122.126       11.116        0.008      331.737       -0.055      861.513
12/13/2014  04:52:00      -82.212      -23.447       -3.117       32.014       23.730       16.838     1024.884      563.113      283.507        0.459        0.094       85.490       15.377        0.032      331.719       -0.084      861.492
12/13/2014  04:53:00      -46.056       -7.097       -2.739       35.726       27.234       17.228     1276.362      741.707      296.792        0.225        0.116       46.599       15.303        0.108      331.729       -0.067      861.477
12/13/2014  04:54:00      -12.589       -8.730        8.248       22.257       19.769       18.941      495.380      390.798      358.750        0.077        0.062       15.320       14.949        0.952      331.777        0.011      861.458
12/13/2014  04:55:00      -58.715       -7.572       -1.804       33.324       28.744       19.119     1110.460      826.228      365.535        0.290        0.115       59.201       20.824        0.124      331.815        0.072      861.448
12/13/2014  04:56:00      -62.785      -15.468       -2.682       30.776       19.002       14.274      947.141      361.092      203.755        0.285        0.076       64.662       14.973        0.054      331.815        0.073      861.443
12/13/2014  04:57:00      -85.101        0.075       -1.300       21.545       19.127       15.779      464.195      365.842      248.984        0.416        0.054       85.101       13.894        0.027      331.837        0.111      861.451
12/13/2014  04:58:00      -41.589       -7.658       -3.786       23.555       18.031       12.217      554.855      325.123      149.267        0.142        0.051       42.288       13.896        0.108      331.849        0.129      861.472
12/13/2014  04:59:00       -5.832      -12.466       -0.996        8.333       13.003        9.971       69.444      169.067       99.413        0.026        0.017       13.762        8.211        0.356      331.809        0.061      861.511
12/13/2014  05:00:00        5.233        4.696       -2.393        8.262       11.504        5.211       68.268      132.347       27.157        0.014        0.011        7.031        2.511        0.128      331.882        0.183      861.542
12/13/2014  05:01:00       15.400       27.791       -6.396       10.857       27.217        9.440      117.873      740.791       89.106        0.100        0.047       31.773       11.276        0.126      331.947        0.290      861.571
12/13/2014  05:02:00       -7.584       68.161       -8.739       18.841       20.231       10.539      354.991      409.278      111.079        0.283        0.044       68.582        9.693        0.020      332.173        0.665      861.594
12/13/2014  05:03:00      -41.377        0.720       -6.623       21.755       27.436        6.514      473.262      752.712       42.438        0.151        0.063       41.383        9.358        0.051      331.976        0.339      861.620
12/13/2014  05:04:00     -108.317      -27.696      -14.824       21.301       17.248       12.455      453.719      297.506      155.136        0.681        0.045      111.802        7.916        0.005      331.683       -0.144      861.633
12/13/2014  05:05:00     -119.642      -29.017      -13.610       20.009       17.317       11.462      400.353      299.863      131.388        0.809        0.042      123.111        8.133        0.004      331.637       -0.219      861.656
12/13/2014  05:06:00      -91.001      -14.701       -6.657       34.945       17.690       15.372     1221.134      312.943      236.283        0.516        0.089       92.181       15.857        0.030      331.625       -0.240      861.683
12/13/2014  05:07:00     -118.964      -15.212      -11.109       28.095       25.612       17.802      789.320      655.972      316.900        0.813        0.088      119.933       11.569        0.009      331.689       -0.134      861.701
12/13/2014  05:08:00      -88.797       -8.744       -5.681       34.266       27.093       15.010     1174.152      734.012      225.310        0.506        0.107       89.227       14.360        0.026      331.767       -0.004      861.713
12/13/2014  05:09:00      -91.884       -9.086       -8.570       24.335       17.689       18.287      592.190      312.906      334.398        0.492        0.062       92.332       17.613        0.036      331.818        0.079      861.729
12/13/2014  05:10:00      -93.571       -9.247       -8.329       15.396       18.604       14.269      237.022      346.098      203.614        0.485        0.039       94.027        7.764        0.007      331.873        0.169      861.732
12/13/2014  05:11:00      -83.277        9.924      -17.507       27.675       21.119       14.917      765.926      446.011      222.521        0.439        0.072       83.867       12.769        0.023      331.807        0.060      861.752
12/13/2014  05:12:00     -127.921       28.992      -14.744       31.781       23.124       18.214     1010.045      534.730      331.753        0.965        0.094      131.166       12.452        0.009      331.870        0.164      861.759
12/13/2014  05:13:00     -168.467       37.660      -12.043       17.579       15.136       11.570      309.028      229.094      133.860        1.531        0.034      172.625        9.667        0.003      331.818        0.079      861.760
12/13/2014  05:14:00     -158.177       16.087      -18.180       26.697       25.727       13.510      712.739      661.878      182.512        1.358        0.078      158.993        8.711        0.003      331.770       -0.000      861.765
12/13/2014  05:15:00     -100.162       -2.800       -9.293       39.553       32.759       22.042     1564.407     1073.182      485.842        0.662        0.156      100.201       16.167        0.026      331.718       -0.085      861.776
12/13/2014  05:16:00      -70.772      -12.841       -6.643       47.588       24.829       18.542     2264.613      616.465      343.790        0.422        0.161       71.928       22.308        0.096      331.734       -0.059      861.792
12/13/2014  05:17:00      -56.529       -2.634      -10.525       26.117       35.183       16.868      682.090     1237.847      284.540        0.276        0.110       56.591       12.670        0.050      331.855        0.138      861.810
12/13/2014  05:18:00      -75.326       -8.823      -10.183       29.428       30.147       14.742      866.022      908.857      217.338        0.392        0.100       75.841       17.301        0.052      331.837        0.110      861.826
12/13/2014  05:19:00      -68.815       -1.947      -10.722       19.082       15.857       13.920      364.124      251.456      193.770        0.283        0.040       68.843        5.855        0.007      331.910        0.230      861.838
12/13/2014  05:20:00      -58.470       10.746       -7.908       36.433       34.464       16.581     1327.380     1187.753      274.930        0.319        0.140       59.449       18.916        0.101      332.037        0.439      861.843
12/13/2014  05:21:00      -45.554        1.756       -9.375       16.201       30.245       13.052      262.484      914.786      170.346        0.176        0.067       45.588       11.369        0.062      332.226        0.751      861.848
12/13/2014  05:22:00      -49.506        1.862       -6.307       22.818       16.395       13.432      520.680      268.812      180.416        0.173        0.048       49.541       10.985        0.049      332.035        0.436      861.864
12/13/2014  05:23:00      -71.275        3.603      -14.037       11.409       14.287       10.308      130.174      204.121      106.260        0.287        0.022       71.366        5.744        0.006      331.767       -0.006      861.869
12/13/2014  05:24:00      -80.657       17.674      -11.301       22.378       13.462       10.107      500.793      181.234      102.160        0.386        0.039       82.570        7.507        0.008      331.932        0.265      861.877
12/13/2014  05:25:00      -51.684       26.668       -8.709       19.865       16.532       11.367      394.599      273.304      129.216        0.213        0.040       58.159        5.789        0.010      332.268        0.820      861.873
12/13/2014  05:26:00      -49.081       -0.386       -9.343       13.675       15.181        7.678      187.014      230.456       58.944        0.149        0.024       49.082        7.803        0.025      331.981        0.349      861.865
12/13/2014  05:27:00      -52.372       -7.592       -8.248       19.563       18.897       15.392      382.712      357.096      236.908        0.192        0.049       52.919       14.616        0.076      331.864        0.154      861.862
12/13/2014  05:28:00      -57.570        1.819       -8.505       27.182       14.352       10.382      738.855      205.972      107.781        0.222        0.053       57.599       11.720        0.041      332.147        0.620      861.872
12/13/2014  05:29:00      -63.520        0.524       -0.319       41.146       13.129       15.728     1692.982      172.373      247.365        0.307        0.106       63.522       18.760        0.087      331.873        0.169      861.878
12/13/2014  05:30:00      -74.020        7.688      -13.683       21.991       17.867       11.357      483.625      319.224      128.979        0.333        0.047       74.418        6.037        0.007      332.136        0.604      861.884
12/13/2014  05:31:00      -80.593      -20.601       -3.669       39.309       41.241       22.477     1545.175     1700.860      505.232        0.534        0.188       83.185       21.780        0.069      332.181        0.677      861.886
12/13/2014  05:32:00      -81.107       -7.419      -13.353       42.966       33.165       21.024     1846.083     1099.949      441.993        0.510        0.169       81.446       10.719        0.017      332.153        0.632      861.880
12/13/2014  05:33:00      -54.564      -20.531        8.907       30.923       27.175       22.459      956.240      738.491      504.393        0.284        0.110       58.299       21.352        0.134      332.073        0.498      861.883
12/13/2014  05:34:00      -73.246      -12.576      -11.256       20.734       31.923       12.234      429.915     1019.082      149.665        0.362        0.080       74.318        7.112        0.009      332.124        0.583      861.884
12/13/2014  05:35:00      -89.312       32.638      -21.116       37.741       63.932       21.630     1424.348     4087.331      467.852        0.773        0.299       95.088       25.788        0.074      332.261        0.810      861.888
12/13/2014  05:36:00      -46.296       -0.187       -0.503       16.526       23.212       12.516      273.117      538.790      156.655        0.156        0.048       46.297        9.403        0.041      332.228        0.755      861.893
12/13/2014  05:37:00      -61.171       -6.295      -18.174       34.693       25.648       17.920     1203.626      657.829      321.143        0.315        0.109       61.494       10.941        0.032      332.297        0.868      861.916
12/13/2014  05:38:00      -59.075       38.700       -5.308       38.601       68.759       27.533     1490.058     4727.863      758.063        0.599        0.349       70.623       31.763        0.202      332.250        0.791      861.936
12/13/2014  05:39:00      -88.329       69.072      -14.212       50.642       67.169       25.537     2564.599     4511.725      652.160        1.025        0.386      112.129       33.120        0.087      332.300        0.871      861.957
12/13/2014  05:40:00     -130.821      101.781      -25.507       56.218       75.190       34.839     3160.458     5653.487     1213.782        1.907        0.501      165.752       36.434        0.048      332.336        0.932      861.981
12/13/2014  05:41:00      -93.846       29.536      -14.467       57.247       51.782       32.214     3277.190     2681.348     1037.736        0.844        0.350       98.384       16.462        0.028      332.303        0.877      862.001
12/13/2014  05:42:00      -68.884       65.037      -15.298       48.634       37.150       25.822     2365.233     1380.116      666.795        0.681        0.221       94.735       19.382        0.042      332.331        0.925      862.010
12/13/2014  05:43:00      -62.255       24.626       -7.924       33.578       23.546       15.362     1127.514      554.421      235.978        0.323        0.096       66.949       16.746        0.063      332.302        0.876      862.016
12/13/2014  05:44:00     -105.980      -10.390      -18.023       41.069       22.467       17.601     1686.647      504.752      309.793        0.708        0.125      106.488       17.485        0.027      332.266        0.818      862.029
12/13/2014  05:45:00      -86.913       -0.015      -12.055       27.928       18.361       12.439      779.951      337.132      154.725        0.449        0.064       86.913        6.774        0.006      332.276        0.833      862.026
12/13/2014  05:46:00     -101.727       -0.361      -16.097       31.898       37.568       15.964     1017.452     1411.328      254.864        0.665        0.134      101.728       12.893        0.016      332.282        0.843      862.031
12/13/2014  05:47:00      -85.599      -23.389      -14.226       41.701       45.845       16.291     1738.950     2101.724      265.406        0.609        0.205       88.737       13.905        0.025      332.267        0.818      862.045
12/13/2014  05:48:00     -109.043      -32.488       -4.553       27.282       28.535       18.213      744.294      814.232      331.710        0.743        0.095      113.780       16.504        0.021      332.218        0.738      862.048
12/13/2014  05:49:00      -96.687        7.968      -14.974       30.965       27.396       16.801      958.831      750.546      282.278        0.581        0.100       97.015       13.865        0.020      332.181        0.678      862.063
12/13/2014  05:50:00     -102.383      -20.331       -8.129       32.037       29.380       17.822     1026.344      863.159      317.618        0.658        0.110      104.382       12.585        0.015      332.238        0.770      862.064
12/13/2014  05:51:00     -129.762      -48.633       -3.732       33.953       30.307       21.149     1152.812      918.526      447.290        1.087        0.126      138.576       17.897        0.017      332.120        0.576      862.070
12/13/2014  05:52:00     -126.314      -46.951      -20.468       25.464       36.789       17.245      648.390     1353.447      297.384        1.044        0.115      134.758       10.878        0.007      332.198        0.706      862.073
12/13/2014  05:53:00     -157.590      -66.820      -16.716       23.409       23.158       15.761      547.973      536.308      248.401        1.546        0.067      171.171        7.293        0.002      332.137        0.605      862.070
12/13/2014  05:54:00     -138.224      -42.939      -14.932       26.306       27.070       14.922      691.995      732.777      222.663        1.141        0.082      144.740       12.546        0.008      332.111        0.562      862.079
12/13/2014  05:55:00      -77.393      -52.732      -11.977       25.222       16.371       14.391      636.129      267.998      207.090        0.501        0.056       93.650        7.078        0.006      332.205        0.716      862.089
12/13/2014  05:56:00       -3.111      -35.000       12.712       43.149       24.455       27.051     1861.823      598.026      731.753        0.229        0.160       35.138       24.104        0.471      332.191        0.693      862.092
12/13/2014  05:57:00      -63.141      -38.169       -2.576       31.233       25.784       23.344      975.476      664.797      544.962        0.382        0.109       73.782       16.630        0.051      332.148        0.623      862.100
12/13/2014  05:58:00      -85.964      -11.595       -1.265       35.349       30.674       25.042     1249.546      940.914      627.095        0.517        0.141       86.743       22.048        0.065      332.098        0.541      862.108
12/13/2014  05:59:00      -69.687      -17.626       -4.750       15.101       20.563       13.529      228.036      422.820      183.041        0.301        0.042       71.881        7.310        0.010      332.172        0.663      862.106
12/13/2014  06:00:00      -69.492      -25.439       -8.236       26.076       22.411       12.965      679.935      502.245      168.082        0.345        0.068       74.002       12.496        0.029      332.160        0.641      862.113
12/13/2014  06:01:00      -89.824      -51.694       -1.665       39.361       29.941       19.959     1549.308      896.477      398.374        0.679        0.142      103.636       19.073        0.034      332.110        0.559      862.126
12/13/2014  06:02:00      -95.336       34.290      -17.805       36.803       35.449       22.529     1354.491     1256.648      507.556        0.685        0.156      101.316       13.925        0.019      332.192        0.696      862.150
12/13/2014  06:03:00      -88.979       74.327      -23.278       31.224       40.318       18.384      974.911     1625.571      337.967        0.846        0.147      115.939       13.886        0.014      332.169        0.658      862.167
12/13/2014  06:04:00      -68.921      128.680      -21.550       30.079       62.205       21.660      904.765     3869.420      469.164        1.351        0.262      145.975       22.586        0.024      332.185        0.682      862.184
12/13/2014  06:05:00      -62.140       95.279      -10.029       37.903       59.195       28.892     1436.607     3504.068      834.768        0.941        0.289      113.751       25.285        0.049      332.182        0.679      862.190
12/13/2014  06:06:00      -49.410       60.398      -15.170       24.309       50.219       21.533      590.920     2521.960      463.663        0.495        0.179       78.033       21.582        0.076      332.132        0.596      862.198
12/13/2014  06:07:00      -89.221      -21.099       -6.855       32.117       22.867       17.322     1031.486      522.879      300.058        0.515        0.093       91.681       14.837        0.026      332.126        0.586      862.199
12/13/2014  06:08:00      -65.824       -8.835       -4.933       16.117       13.881        8.906      259.745      192.689       79.311        0.248        0.027       66.414        4.901        0.005      332.072        0.500      862.209
12/13/2014  06:09:00      -14.051      -27.697       13.336       27.796       19.615       16.566      772.597      384.761      274.431        0.129        0.072       31.057       17.761        0.327      332.062        0.481      862.227
12/13/2014  06:10:00      -98.508      -51.397       -5.786       61.996       30.541       25.122     3843.482      932.763      631.137        0.889        0.270      111.110       28.256        0.065      332.058        0.474      862.245
12/13/2014  06:11:00      -62.548      -44.959        7.112       47.206       28.913       22.924     2228.384      835.935      525.509        0.479        0.179       77.029       23.283        0.091      332.020        0.412      862.264
12/13/2014  06:12:00      -83.060      -17.558       -5.007       27.316       27.540       18.026      746.162      758.455      324.931        0.453        0.091       84.895       19.897        0.055      331.968        0.325      862.302
12/13/2014  06:13:00      -28.588        1.342        0.696       15.353       15.305       11.755      235.718      234.238      138.180        0.071        0.030       28.620        9.045        0.100      331.980        0.346      862.338
12/13/2014  06:14:00      -34.476       16.482       -8.717       25.886       17.286        8.409      670.096      298.793       70.714        0.129        0.052       38.213       12.635        0.109      331.978        0.342      862.364
12/13/2014  06:15:00      -64.043      -18.430       -4.037       24.855       27.533       18.667      617.765      758.087      348.470        0.309        0.086       66.642       16.686        0.063      331.972        0.332      862.391
12/13/2014  06:16:00      -53.698      -32.288        3.527       21.922       21.997       14.944      480.561      483.860      223.322        0.256        0.059       62.657        9.544        0.023      331.830        0.099      862.386
12/13/2014  06:17:00      -53.318      -20.986       -3.152       27.607       23.967       17.096      762.146      574.439      292.281        0.246        0.081       57.300       16.248        0.080      331.915        0.237      862.392
12/13/2014  06:18:00      -31.220      -22.350       -3.229       20.124       16.626       15.452      404.975      276.409      238.764        0.120        0.046       38.395       13.793        0.129      331.902        0.215      862.396
12/13/2014  06:19:00      -53.205       11.735       -6.016       31.499       24.095       10.404      992.199      580.575      108.247        0.234        0.084       54.484       12.989        0.057      331.913        0.235      862.397
12/13/2014  06:20:00      -67.048       -4.719      -11.904       19.014       12.077       10.334      361.549      145.850      106.795        0.264        0.031       67.214        8.481        0.016      331.941        0.281      862.411
12/13/2014  06:21:00      -61.670       12.553       -6.269       26.665       26.555       12.533      711.037      705.162      157.076        0.279        0.079       62.935       11.659        0.034      331.904        0.221      862.419
12/13/2014  06:22:00      -80.357       16.231       -6.711       18.567       12.017       12.605      344.740      144.400      158.876        0.371        0.032       81.980        9.202        0.013      331.874        0.172      862.439
12/13/2014  06:23:00     -100.606       11.678      -10.382       15.690       12.412        8.840      246.162      154.047       78.140        0.542        0.024      101.281        6.138        0.004      331.815        0.074      862.454
12/13/2014  06:24:00     -110.194       -6.453      -14.847       17.945       16.560       12.208      322.016      274.234      149.047        0.657        0.037      110.383        8.824        0.006      331.783        0.018      862.469
12/13/2014  06:25:00     -100.443      -21.614       -7.164       16.171       24.698       11.767      261.513      609.973      138.471        0.581        0.050      102.742        7.360        0.005      331.801        0.050      862.466
12/13/2014  06:26:00     -130.601      -34.705       -6.310       28.174       27.217       19.585      793.787      740.781      383.567        1.011        0.096      135.133       16.419        0.015      331.780        0.016      862.479
12/13/2014  06:27:00     -112.724      -29.938       -7.266       36.560       35.322       23.066     1336.664     1247.637      532.052        0.839        0.156      116.632       16.944        0.021      331.707       -0.104      862.495
12/13/2014  06:28:00     -110.835      -19.265       -3.754       39.577       37.794       24.368     1566.373     1428.389      593.783        0.813        0.179      112.497       23.844        0.045      331.670       -0.165      862.510
12/13/2014  06:29:00     -123.036      -14.455       -8.155       33.997       30.409       21.732     1155.767      924.699      472.271        0.898        0.128      123.882       15.148        0.015      331.587       -0.302      862.535
12/13/2014  06:30:00     -128.556      -43.738       -5.524       40.652       27.835       19.600     1652.551      774.810      384.154        1.064        0.141      135.792       18.766        0.019      331.643       -0.210      862.548
12/13/2014  06:31:00     -106.229      -38.566        0.966       43.487       36.964       20.940     1891.118     1366.302      438.500        0.823        0.185      113.013       22.247        0.039      331.656       -0.187      862.568
12/13/2014  06:32:00     -149.157       -5.074      -17.606       31.614       23.395       18.359      999.453      547.310      337.051        1.223        0.094      149.244       19.104        0.016      331.622       -0.241      862.585
12/13/2014  06:33:00     -107.127      -46.754       -5.030       31.779       29.975       17.465     1009.921      898.504      305.039        0.795        0.111      116.885       15.127        0.017      331.673       -0.159      862.592
12/13/2014  06:34:00     -128.194      -56.155      -10.895       24.604       26.288       15.699      605.337      691.039      246.472        1.062        0.077      139.954       14.179        0.010      331.710       -0.100      862.604
12/13/2014  06:35:00     -135.380      -73.592       -5.179       33.295       25.289       17.251     1108.544      639.522      297.588        1.291        0.102      154.089       13.866        0.008      331.775        0.007      862.616
12/13/2014  06:36:00     -107.496      -62.288        4.227       52.695       30.008       26.876     2776.769      900.473      722.344        0.993        0.220      124.239       23.671        0.036      331.783        0.021      862.644
12/13/2014  06:37:00     -110.716      -61.298        8.499       47.819       29.080       27.906     2286.674      845.631      778.728        1.000        0.196      126.552       27.307        0.047      331.886        0.190      862.680
12/13/2014  06:38:00      -84.763      -66.149        7.770       47.944       30.402       23.900     2298.588      924.303      571.197        0.771        0.190      107.519       27.115        0.064      331.946        0.288      862.712
12/13/2014  06:39:00      -73.960      -61.829        4.209       51.178       39.118       23.339     2619.166     1530.195      544.731        0.700        0.235       96.400       22.542        0.055      332.001        0.380      862.733
12/13/2014  06:40:00      -69.947      -58.635        7.157       43.964       35.657       26.242     1932.792     1271.428      688.629        0.614        0.195       91.273       21.212        0.054      332.016        0.405      862.750
12/13/2014  06:41:00      -38.537      -49.939       10.428       49.856       36.012       29.792     2485.626     1296.875      887.562        0.438        0.234       63.079       31.390        0.248      332.033        0.434      862.754
12/13/2014  06:42:00      -72.492      -63.800       -0.956       52.748       33.751       28.904     2782.340     1139.161      835.413        0.704        0.238       96.569       25.560        0.070      332.107        0.553      862.753
12/13/2014  06:43:00      -60.444      -78.816        6.723       44.460       40.075       26.392     1976.697     1605.972      696.528        0.709        0.214       99.325       25.043        0.064      332.174        0.665      862.759
12/13/2014  06:44:00      -45.172      -47.173       12.274       46.555       28.766       25.702     2167.384      827.465      660.603        0.404        0.183       65.313       23.192        0.126      332.227        0.754      862.759
12/13/2014  06:45:00      -41.767      -45.624       12.824       48.217       37.025       25.748     2324.900     1370.859      662.978        0.417        0.218       61.855       21.101        0.116      332.173        0.664      862.766
12/13/2014  06:46:00      -95.823      -42.078        1.870       39.961       24.194       18.104     1596.904      585.361      327.748        0.673        0.126      104.654       13.973        0.018      332.213        0.730      862.775
12/13/2014  06:47:00      -43.158      -52.509        4.300       35.451       31.066       13.711     1256.784      965.106      188.005        0.352        0.120       67.969       13.981        0.042      332.185        0.684      862.777
12/13/2014  06:48:00      -57.955      -38.824        3.139       30.413       19.147       12.012      924.972      366.625      144.289        0.316        0.072       69.758       10.121        0.021      332.108        0.557      862.780
12/13/2014  06:49:00      -82.782      -23.645       -6.673       26.547       20.665       13.567      704.742      427.028      184.053        0.439        0.066       86.093       16.001        0.035      332.117        0.572      862.788
12/13/2014  06:50:00      -61.554      -11.789       -3.885       17.046       20.427        9.694      290.553      417.252       93.974        0.237        0.040       62.673        7.497        0.014      332.039        0.443      862.794
12/13/2014  06:51:00      -43.553       10.821       -0.817       21.161       13.573       11.906      447.769      184.238      141.756        0.139        0.039       44.877        8.292        0.034      331.848        0.129      862.794
12/13/2014  06:52:00      -57.636       20.592       -4.656       15.580       12.507        9.205      242.735      156.429       84.723        0.213        0.024       61.204        8.444        0.019      331.904        0.220      862.791
12/13/2014  06:53:00      -38.812      -23.188       -2.254       18.888       16.883        8.894      356.766      285.023       79.098        0.138        0.036       45.211        4.113        0.008      331.908        0.226      862.787
12/13/2014  06:54:00      -25.755      -25.678       -2.244       22.699       15.111       14.399      515.229      228.354      207.342        0.114        0.048       36.368        9.507        0.068      331.917        0.241      862.784
12/13/2014  06:55:00      -11.411      -50.938       -4.923       11.202       18.172        7.565      125.493      330.213       57.223        0.163        0.026       52.200        7.642        0.021      332.020        0.410      862.781
12/13/2014  06:56:00      -12.173      -22.482        6.675       16.518       31.260       10.651      272.837      977.218      113.446        0.103        0.068       25.566        9.738        0.145      332.080        0.510      862.778
12/13/2014  06:57:00        6.878       17.608        1.228       23.638       14.144       10.010      558.773      200.056      100.210        0.061        0.043       18.903       12.127        0.412      331.923        0.251      862.787
12/13/2014  06:58:00       17.045       36.202       -4.226       11.824        9.908        9.301      139.807       98.170       86.508        0.097        0.016       40.014        6.837        0.029      331.992        0.365      862.812
12/13/2014  06:59:00        4.806       61.301       -3.625       12.777       12.174        9.472      163.253      148.199       89.712        0.210        0.020       61.489        7.914        0.017      331.975        0.337      862.835
12/13/2014  07:00:00       39.203       66.959       -8.951       31.034       21.443       15.144      963.102      459.817      229.355        0.388        0.083       77.591       14.965        0.037      331.852        0.134      862.850
12/13/2014  07:01:00       72.729       58.549       -5.998       22.120       18.074       17.882      489.282      326.652      319.759        0.494        0.057       93.368        9.965        0.011      331.550       -0.362      862.854
12/13/2014  07:02:00       45.424       38.756       -3.325       13.318       12.849       10.132      177.358      165.090      102.654        0.201        0.022       59.711        6.373        0.011      331.615       -0.256      862.857
12/13/2014  07:03:00       29.810       22.279       -0.148       15.367       13.879        8.167      236.151      192.627       66.702        0.094        0.025       37.216        7.256        0.038      331.777        0.009      862.857
12/13/2014  07:04:00       -9.523       55.881       -6.895       22.508       17.645        8.250      506.614      311.344       68.061        0.207        0.044       56.687        8.553        0.023      331.889        0.196      862.858
12/13/2014  07:05:00      -33.776       60.077       -1.678       26.172       29.295       15.244      684.985      858.190      232.392        0.326        0.089       68.921       18.773        0.074      331.865        0.155      862.850
12/13/2014  07:06:00       11.854       58.083       -8.786       16.904       23.639       14.437      285.762      558.779      208.433        0.232        0.053       59.280       14.177        0.057      332.043        0.451      862.840
12/13/2014  07:07:00       25.047       16.164        2.313       16.297       13.018       12.362      265.607      169.481      152.812        0.074        0.029       29.810        8.307        0.078      332.024        0.418      862.829
12/13/2014  07:08:00       30.107       10.856       -0.136       20.025       11.283        6.968      401.002      127.303       48.552        0.080        0.029       32.004        7.579        0.056      332.089        0.525      862.815
12/13/2014  07:09:00       -9.355        9.975       -8.054        9.987        8.473        5.222       99.742       71.791       27.267        0.023        0.010       13.676        5.134        0.141      331.923        0.252      862.812
12/13/2014  07:10:00      -39.320        7.806       -7.665        9.549        7.412        4.911       91.191       54.936       24.121        0.092        0.009       40.087        4.700        0.014      331.887        0.191      862.804
12/13/2014  07:11:00      -24.526        6.568       -1.434        9.295        4.976        7.382       86.389       24.763       54.496        0.041        0.008       25.390        7.371        0.084      331.976        0.341      862.808
12/13/2014  07:12:00      -17.143        5.223       -4.894        8.641        6.359        6.553       74.662       40.441       42.946        0.025        0.008       17.921        4.983        0.077      332.067        0.491      862.825
12/13/2014  07:13:00      -50.384        8.755       -5.215       14.601        8.920        4.282      213.180       79.571       18.334        0.148        0.016       51.139        3.712        0.005      332.004        0.385      862.849
12/13/2014  07:14:00      -63.851        9.253      -15.588       19.048       20.801       14.167      362.820      432.689      200.696        0.270        0.050       64.518        7.935        0.015      331.602       -0.278      862.890
12/13/2014  07:15:00      -62.953      -22.296      -12.722       12.751       19.300       10.827      162.576      372.476      117.226        0.264        0.033       66.785        5.676        0.007      331.510       -0.429      862.921
12/13/2014  07:16:00      -66.408      -41.778       -3.298       13.600       12.612       11.805      184.969      159.067      139.357        0.332        0.024       78.457        7.055        0.008      331.665       -0.171      862.943
12/13/2014  07:17:00      -68.468      -22.773       -2.073       32.791       18.618       17.460     1075.228      346.642      304.860        0.347        0.086       72.156       17.853        0.061      331.734       -0.060      862.966
12/13/2014  07:18:00      -49.394       -8.798        0.306       30.654       18.479       14.989      939.693      341.456      224.662        0.201        0.075       50.171       15.349        0.094      331.663       -0.177      862.986
12/13/2014  07:19:00      -55.232      -15.813       -8.056       38.698       26.440       20.212     1497.513      699.057      408.543        0.298        0.130       57.451       17.395        0.092      331.735       -0.059      863.000
12/13/2014  07:20:00      -79.362      -23.128       -0.198       27.661       21.504       14.384      765.154      462.406      206.906        0.413        0.072       82.663       15.589        0.036      331.656       -0.187      863.010
12/13/2014  07:21:00      -38.599      -26.154        5.048       26.329       17.829       13.358      693.197      317.860      178.440        0.169        0.059       46.626       13.195        0.080      331.729       -0.068      863.006
12/13/2014  07:22:00      -26.173      -17.880        0.892       24.362       14.562        9.810      593.507      212.049       96.231        0.095        0.045       31.698       12.245        0.149      331.772        0.002      863.015
12/13/2014  07:23:00      -43.681       -7.800       -0.881       17.162       15.821        9.794      294.546      250.303       95.913        0.131        0.032       44.371        8.660        0.038      331.712       -0.095      863.025
12/13/2014  07:24:00      -58.872      -11.225       -7.231       10.326        8.041       10.380      106.622       64.654      107.739        0.196        0.014       59.932        2.581        0.002      331.794        0.040      863.038
12/13/2014  07:25:00      -54.818      -27.136       -1.678       11.831       12.300        8.648      139.976      151.291       74.780        0.206        0.018       61.166        4.650        0.006      331.769       -0.002      863.041
12/13/2014  07:26:00      -39.268      -16.125       -2.460       13.896       12.287        7.444      193.101      150.977       55.415        0.110        0.020       42.450        1.840        0.002      331.728       -0.068      863.059
12/13/2014  07:27:00      -54.796      -25.309       -5.061        9.332       11.038        7.909       87.090      121.829       62.554        0.197        0.014       60.359        4.331        0.005      331.762       -0.015      863.077
12/13/2014  07:28:00      -60.495      -28.137       -6.894       11.927       14.604        6.965      142.244      213.287       48.508        0.245        0.020       66.718        2.097        0.001      331.809        0.064      863.086
12/13/2014  07:29:00      -46.456      -36.291       -4.257       11.948       13.623        8.253      142.744      185.581       68.104        0.194        0.020       58.951        3.665        0.004      331.825        0.090      863.091
12/13/2014  07:30:00      -58.822      -18.835        0.527       23.188       14.722       12.004      537.681      216.742      144.101        0.236        0.045       61.764        8.792        0.020      331.729       -0.067      863.094
12/13/2014  07:31:00      -72.152      -22.695       -4.782       22.901       20.142       11.719      524.454      405.716      137.332        0.341        0.053       75.638        9.827        0.017      331.764       -0.013      863.108
12/13/2014  07:32:00      -29.314      -15.921        4.563       28.520       20.414       11.510      813.363      416.743      132.473        0.125        0.068       33.358       12.463        0.140      331.770       -0.001      863.112
12/13/2014  07:33:00      -55.597      -21.823        0.823       28.417       15.118       11.108      807.525      228.559      123.393        0.236        0.058       59.726       13.736        0.053      331.705       -0.107      863.137
12/13/2014  07:34:00      -65.889      -37.202       -7.103       19.996       15.597        9.045      399.850      243.255       81.808        0.325        0.036       75.666        8.809        0.014      331.755       -0.028      863.164
12/13/2014  07:35:00      -69.674      -27.313       -9.202       11.307       11.152        9.035      127.844      124.359       81.640        0.301        0.017       74.836        4.328        0.003      331.777        0.009      863.194
12/13/2014  07:36:00      -72.648      -28.596      -10.339       12.938       14.492        9.253      167.389      210.016       85.624        0.333        0.023       78.073        7.426        0.009      331.777        0.011      863.214
12/13/2014  07:37:00      -72.218      -19.479      -11.175       17.123       14.145       11.359      293.186      200.092      129.024        0.317        0.031       74.799        9.668        0.017      331.720       -0.084      863.240
12/13/2014  07:38:00      -66.207       -1.286       -3.831       21.116       17.748       14.259      445.896      314.985      203.330        0.268        0.048       66.220       12.934        0.038      331.695       -0.123      863.248
12/13/2014  07:39:00      -62.910      -16.242        2.681       24.889       24.118       13.921      619.468      581.678      193.794        0.281        0.070       64.973       13.043        0.040      331.724       -0.077      863.256
12/13/2014  07:40:00      -93.876       -6.676       -6.365       27.261       17.284       15.263      743.186      298.742      232.952        0.509        0.064       94.113       15.463        0.027      331.767       -0.005      863.256
12/13/2014  07:41:00      -75.556      -11.954       -2.577       30.393       16.688       15.311      923.740      278.483      234.427        0.365        0.072       76.496       15.898        0.043      331.875        0.170      863.259
12/13/2014  07:42:00      -99.560      -16.814       -4.865       35.905       32.986       17.998     1289.150     1088.051      323.936        0.646        0.135      100.970       15.709        0.024      331.784        0.022      863.266
12/13/2014  07:43:00     -130.602       -8.465      -12.603       27.283       16.176       17.409      744.339      261.664      303.085        0.930        0.065      130.876       15.416        0.014      331.840        0.116      863.267
12/13/2014  07:44:00     -111.243       -0.620       -4.988       24.774       22.501       18.545      613.754      506.279      343.902        0.693        0.073      111.245       14.526        0.017      331.845        0.123      863.266
12/13/2014  07:45:00     -101.894        3.228       -0.585       37.340       27.657       20.338     1394.288      764.892      413.620        0.648        0.129      101.945       21.161        0.043      331.766       -0.006      863.260
12/13/2014  07:46:00     -136.678       -1.081      -15.248       24.544       21.774       13.782      602.415      474.114      189.940        1.009        0.063      136.682        8.332        0.004      331.783        0.021      863.274
12/13/2014  07:47:00      -91.799      -18.184       -5.550       32.893       29.697       21.068     1081.978      881.921      443.848        0.560        0.120       93.583       21.809        0.054      331.759       -0.018      863.284
12/13/2014  07:48:00      -85.187      -22.666       -5.384       46.875       20.279       19.200     2197.287      411.224      368.646        0.539        0.149       88.151       21.522        0.060      331.779        0.016      863.305
12/13/2014  07:49:00      -96.140        1.362       -5.683       19.094       20.058       13.910      364.566      402.309      193.485        0.512        0.048       96.150        9.939        0.011      331.718       -0.086      863.328
12/13/2014  07:50:00      -88.169       -5.724       -9.353       36.395       19.926       15.514     1324.626      397.055      240.689        0.493        0.098       88.355       12.502        0.020      331.742       -0.047      863.340
12/13/2014  07:51:00      -82.215       -4.360       -4.646       29.422       19.500       17.023      865.643      380.262      289.776        0.417        0.077       82.331       15.592        0.036      331.732       -0.062      863.358
12/13/2014  07:52:00      -89.767        3.477       -0.681       40.226       24.253       15.916     1618.141      588.204      253.312        0.526        0.123       89.834       14.496        0.026      331.713       -0.094      863.369
12/13/2014  07:53:00      -87.674       -1.426        0.191       37.055       27.408       23.184     1373.037      751.212      537.510        0.517        0.133       87.685       25.556        0.085      331.736       -0.055      863.374
12/13/2014  07:54:00      -73.334       -8.662        1.549       41.434       20.658       18.247     1716.801      426.755      332.948        0.397        0.124       73.843       19.219        0.068      331.793        0.037      863.365
12/13/2014  07:55:00      -89.880       -3.950       -1.226       31.430       29.517       18.480      987.854      871.266      341.511        0.515        0.110       89.967       17.432        0.038      331.755       -0.024      863.360
12/13/2014  07:56:00      -87.414        2.008       -4.733       34.626       30.396       21.987     1198.988      923.912      483.421        0.514        0.130       87.437       20.965        0.057      331.817        0.076      863.338
12/13/2014  07:57:00      -68.336      -10.862       -3.033       24.684       31.047       14.866      609.278      963.940      220.987        0.330        0.090       69.194       14.710        0.045      331.886        0.191      863.322
12/13/2014  07:58:00      -73.789      -12.078        3.641       35.584       24.771       20.442     1266.248      613.624      417.879        0.395        0.115       74.771       18.912        0.064      331.974        0.334      863.312
12/13/2014  07:59:00      -57.283      -35.318        2.968       34.146       16.883       15.166     1165.926      285.043      230.007        0.311        0.084       67.296       16.459        0.060      332.029        0.426      863.310
12/13/2014  08:00:00      -57.743      -15.316        0.650       20.107       18.085       13.219      404.291      327.062      174.748        0.224        0.045       59.739        9.290        0.024      332.132        0.596      863.309
12/13/2014  08:01:00      -43.449      -24.042        2.228       20.500       19.437       10.967      420.235      377.813      120.284        0.169        0.046       49.657        9.691        0.038      332.169        0.658      863.312
12/13/2014  08:02:00      -41.689      -29.309        3.714       29.072       19.821       16.214      845.191      392.857      262.888        0.206        0.075       50.960       17.906        0.123      332.251        0.794      863.333
12/13/2014  08:03:00      -16.042      -11.430        5.347       14.470       13.226       12.289      209.376      174.930      151.027        0.048        0.027       19.697       10.682        0.294      332.400        1.038      863.333
12/13/2014  08:04:00      -37.420       -4.845       -3.536       10.182        9.387        6.863      103.670       88.120       47.098        0.084        0.012       37.733        3.706        0.010      332.274        0.831      863.337
12/13/2014  08:05:00      -30.829      -16.724       -2.616       10.478       11.153        8.235      109.787      124.393       67.821        0.077        0.015       35.073        7.436        0.045      332.351        0.957      863.350
12/13/2014  08:06:00      -18.009        2.812        5.169       14.419       10.376        7.313      207.909      107.666       53.485        0.036        0.018       18.228        5.421        0.088      332.429        1.086      863.350
12/13/2014  08:07:00       -1.309       16.551       14.807        8.780       10.223        9.918       77.092      104.517       98.362        0.039        0.014       16.602        5.501        0.110      332.608        1.380      863.354
12/13/2014  08:08:00       -6.430       11.911       31.208        8.858       15.315        9.781       78.472      234.550       95.659        0.078        0.020       13.536        9.880        0.533      332.875        1.822      863.362
12/13/2014  08:09:00       -7.374       -3.523       26.069        8.287       10.686       10.730       68.683      114.201      115.138        0.052        0.015        8.173        7.527        0.848      332.961        1.964      863.372
12/13/2014  08:10:00      -11.634       21.173       39.041        9.945       14.894        9.187       98.897      221.843       84.401        0.126        0.020       24.159        9.058        0.141      332.934        1.920      863.375
12/13/2014  08:11:00      -19.642        7.888        6.386       12.955       10.257       10.270      167.829      105.210      105.475        0.043        0.019       21.166        7.037        0.111      332.704        1.540      863.393
12/13/2014  08:12:00      -20.189      -15.360        6.899       25.983       17.379       15.845      675.095      302.024      251.055        0.096        0.061       25.368       15.382        0.368      332.762        1.636      863.406
12/13/2014  08:13:00      -54.903      -35.461        3.103       37.785       25.455       15.692     1427.725      647.949      246.237        0.330        0.116       65.360       15.400        0.056      332.507        1.215      863.421
12/13/2014  08:14:00      -60.429      -53.491        4.612       45.741       29.087       18.470     2092.202      846.031      341.129        0.491        0.164       80.702       19.032        0.056      332.504        1.209      863.435
12/13/2014  08:15:00      -71.777      -74.846       -9.780       36.660       23.551       19.645     1343.986      554.657      385.908        0.657        0.114      103.701       16.630        0.026      332.501        1.205      863.461
12/13/2014  08:16:00     -108.782      -84.516        3.200       41.680       26.292       20.638     1737.224      691.254      425.942        1.092        0.143      137.755       15.720        0.013      332.441        1.106      863.491
12/13/2014  08:17:00     -122.766      -97.870       -2.128       40.063       27.616       27.728     1605.060      762.642      768.835        1.389        0.157      157.003       25.306        0.026      332.412        1.059      863.526
12/13/2014  08:18:00     -113.406     -104.540       -7.958       29.420       24.930       22.882      865.546      621.517      523.605        1.293        0.101      154.239       19.442        0.016      332.439        1.100      863.561
12/13/2014  08:19:00     -113.496     -124.950      -10.947       23.272       20.920       15.309      541.571      437.626      234.379        1.491        0.061      168.801       14.534        0.007      332.462        1.139      863.587
12/13/2014  08:20:00     -109.823      -92.367       -8.594       36.340       26.299       20.016     1320.575      691.617      400.636        1.154        0.121      143.502       19.400        0.018      332.568        1.314      863.603
12/13/2014  08:21:00      -83.896      -81.333       -2.433       35.697       35.030       27.373     1274.281     1227.111      749.283        0.845        0.163      116.849       28.622        0.060      332.616        1.394      863.618
12/13/2014  08:22:00      -61.655      -70.649        1.702       47.064       37.336       25.074     2215.031     1394.008      628.684        0.652        0.212       93.769       24.517        0.068      332.684        1.507      863.616
12/13/2014  08:23:00      -92.632      -89.459      -13.409       26.652       25.925       16.462      710.326      672.117      270.994        0.921        0.083      128.777        8.309        0.004      332.701        1.534      863.617
12/13/2014  08:24:00      -65.498      -82.195       -8.140       28.523       34.742       23.326      813.537     1207.003      544.125        0.684        0.128      105.100       14.761        0.020      332.773        1.653      863.624
12/13/2014  08:25:00      -67.668      -59.388       -2.432       32.230       32.281       19.273     1038.771     1042.044      371.460        0.528        0.123       90.032       15.220        0.029      332.755        1.624      863.625
12/13/2014  08:26:00      -53.060      -67.623      -11.572       45.324       34.193       22.999     2054.308     1169.135      528.967        0.564        0.188       85.955       18.591        0.047      332.821        1.733      863.625
12/13/2014  08:27:00      -21.974      -42.149        2.582       32.128       28.603       18.302     1032.196      818.113      334.947        0.223        0.109       47.533       11.858        0.062      332.932        1.917      863.626
12/13/2014  08:28:00      -46.998      -27.051       -4.017       25.966       21.175       21.929      674.245      448.389      480.884        0.228        0.080       54.227       16.474        0.092      332.856        1.793      863.624
12/13/2014  08:29:00      -67.908      -17.830        5.444       23.942       30.569       21.742      573.233      934.491      472.730        0.347        0.099       70.210       11.127        0.025      332.813        1.720      863.614
12/13/2014  08:30:00      -70.700      -26.532       -6.794       29.542       19.913       18.625      872.746      396.525      346.877        0.368        0.081       75.514       11.647        0.024      332.816        1.726      863.616
12/13/2014  08:31:00      -84.984      -53.226       -5.395       31.355       18.334       19.193      983.144      336.124      368.359        0.589        0.084      100.276       16.916        0.028      332.804        1.708      863.610
12/13/2014  08:32:00      -85.486      -61.435       -7.669       39.587       33.200       21.240     1567.146     1102.208      451.121        0.713        0.156      105.272       18.287        0.030      332.708        1.547      863.610
12/13/2014  08:33:00      -88.228      -55.393      -13.473       32.203       27.403       15.378     1037.022      750.921      236.496        0.653        0.101      104.176        7.483        0.005      332.777        1.660      863.612
12/13/2014  08:34:00      -87.889      -60.769       -3.263       52.415       34.751       26.216     2747.351     1207.615      687.268        0.803        0.232      106.852       20.183        0.036      332.762        1.636      863.607
12/13/2014  08:35:00     -101.225      -69.326        1.415       41.683       30.062       23.698     1737.446      903.716      561.615        0.913        0.160      122.689       23.134        0.036      332.768        1.645      863.603
12/13/2014  08:36:00      -74.332      -40.876       10.498       56.174       45.955       33.177     3155.502     2111.857     1100.721        0.684        0.318       84.830       32.813        0.150      332.876        1.825      863.608
12/13/2014  08:37:00      -42.853      -76.624       -6.057       38.444       41.184       20.757     1477.972     1696.090      430.833        0.567        0.180       87.793        8.722        0.010      332.856        1.791      863.615
12/13/2014  08:38:00      -96.250      -72.325       -8.048       41.386       42.126       22.945     1712.811     1774.627      526.457        0.929        0.201      120.395       25.133        0.044      332.749        1.617      863.619
12/13/2014  08:39:00      -60.568      -72.104       -8.237       39.067       35.116       22.568     1526.265     1233.135      509.322        0.610        0.163       94.167       15.630        0.028      332.783        1.671      863.629
12/13/2014  08:40:00      -94.592      -39.843      -14.491       21.389       23.251       13.790      457.497      540.593      190.174        0.597        0.059      102.641        9.748        0.009      332.753        1.621      863.632
12/13/2014  08:41:00      -55.425      -27.669        6.338       41.643       27.704       21.030     1734.143      767.487      442.268        0.341        0.147       61.947       20.644        0.111      332.931        1.915      863.628
12/13/2014  08:42:00      -55.887      -32.903        0.375       32.035       29.143       22.436     1026.254      849.331      503.375        0.329        0.119       64.853       17.440        0.072      332.915        1.889      863.620
12/13/2014  08:43:00      -12.882       -0.770        1.416       27.193       31.885       21.538      739.453     1016.660      463.882        0.119        0.111       12.905       16.986        1.732      333.115        2.220      863.621
12/13/2014  08:44:00      -47.522      -47.069       -4.384       42.680       30.129       21.683     1821.586      907.741      470.150        0.385        0.160       66.887       21.286        0.101      333.060        2.130      863.622
12/13/2014  08:45:00      -10.154        3.529       22.705       34.050       22.250       20.421     1159.369      495.066      417.021        0.135        0.104       10.749       16.369        2.319      333.434        2.747      863.617
12/13/2014  08:46:00      -37.019      -18.540       11.375       48.650       28.291       21.782     2366.790      800.388      474.472        0.274        0.182       41.402       22.285        0.290      333.184        2.333      863.620
12/13/2014  08:47:00      -59.067      -34.275        6.196       49.889       29.547       22.720     2488.875      873.010      516.182        0.429        0.194       68.291       24.241        0.126      333.063        2.133      863.627
12/13/2014  08:48:00      -28.581      -34.976        7.085       41.369       27.256       20.884     1711.428      742.875      436.129        0.249        0.145       45.169       16.687        0.136      333.051        2.113      863.644
12/13/2014  08:49:00      -10.567      -39.773        6.307       43.286       27.285       20.564     1873.644      744.487      422.869        0.239        0.152       41.153       15.418        0.140      333.142        2.262      863.653
12/13/2014  08:50:00      -64.333      -45.656       -1.378       28.104       31.410       19.552      789.839      986.580      382.268        0.419        0.108       78.887       15.589        0.039      333.040        2.095      863.676
12/13/2014  08:51:00      -17.589       -5.495       12.128       31.360       21.222       17.786      983.474      450.376      316.338        0.112        0.088       18.427       19.352        1.103      333.274        2.483      863.680
12/13/2014  08:52:00      -50.689      -23.983        8.006       46.706       31.151       18.343     2181.413      970.411      336.457        0.335        0.174       56.076       21.607        0.148      333.182        2.329      863.673
12/13/2014  08:53:00      -21.430      -65.741        8.881       52.120       38.501       27.294     2716.515     1482.327      744.944        0.490        0.247       69.146       17.936        0.067      333.218        2.387      863.666
12/13/2014  08:54:00       -9.199      -31.015        7.571       39.083       27.522       23.055     1527.510      757.460      531.520        0.196        0.141       32.350       16.372        0.256      333.289        2.505      863.648
12/13/2014  08:55:00      -91.233      -46.250        5.586       47.281       28.401       20.687     2235.529      806.616      427.944        0.698        0.174      102.287       19.402        0.036      333.058        2.124      863.641
12/13/2014  08:56:00      -37.783      -37.263       18.630       55.049       39.082       24.510     3030.373     1527.421      600.723        0.416        0.258       53.066       19.997        0.142      333.362        2.626      863.631
12/13/2014  08:57:00      -60.156      -60.782        2.581       58.899       46.493       32.103     3469.137     2161.595     1030.582        0.699        0.333       85.518       22.495        0.069      333.233        2.413      863.629
12/13/2014  08:58:00      -63.144      -51.250        7.234       56.288       36.557       28.146     3168.302     1336.436      792.223        0.598        0.265       81.325       27.233        0.112      333.208        2.371      863.636
12/13/2014  08:59:00      -31.712      -85.695        6.716       52.436       53.084       28.091     2749.530     2817.926      789.126        0.737        0.318       91.374       23.165        0.064      333.162        2.296      863.643
12/13/2014  09:00:00      -87.499     -107.602        2.301       60.297       54.439       36.256     3635.776     2963.611     1314.466        1.358        0.396      138.688       27.640        0.040      333.120        2.227      863.650
12/13/2014  09:01:00      -82.850      -63.527        1.642       51.257       38.414       27.078     2627.323     1475.641      733.192        0.787        0.242      104.402       27.176        0.068      333.174        2.315      863.662
12/13/2014  09:02:00      -47.251      -55.043       -1.934       52.046       35.925       39.613     2708.812     1290.631     1569.224        0.542        0.278       72.542       33.663        0.215      333.294        2.514      863.679
12/13/2014  09:03:00     -129.693     -111.111       -7.987       54.931       52.268       30.046     3017.377     2731.899      902.764        1.794        0.333      170.780       25.538        0.022      333.000        2.028      863.690
12/13/2014  09:04:00      -97.072      -48.809       -1.103       62.559       41.590       33.406     3913.615     1729.768     1115.945        0.928        0.338      108.652       31.302        0.083      333.061        2.128      863.687
12/13/2014  09:05:00     -103.347      -87.062       -5.062       54.395       47.463       27.837     2958.819     2252.776      774.874        1.214        0.299      135.131       28.539        0.045      333.117        2.222      863.692
12/13/2014  09:06:00      -81.810      -42.279       -5.115       73.187       43.155       28.594     5356.335     1862.359      817.616        0.827        0.402       92.089       33.719        0.134      333.212        2.379      863.688
12/13/2014  09:07:00       -1.942      -74.862       -7.318       37.478       52.486       27.735     1404.581     2754.809      769.214        0.529        0.246       74.887       24.508        0.107      333.479        2.820      863.690
12/13/2014  09:08:00      -42.366      -29.774        8.774       37.227       36.439       21.951     1385.880     1327.829      481.837        0.298        0.160       51.782       20.201        0.152      333.448        2.769      863.687
12/13/2014  09:09:00      -49.230      -77.526      -10.534       33.798       60.346       35.182     1142.307     3641.662     1237.778        0.728        0.301       91.837       29.085        0.100      333.403        2.696      863.689
12/13/2014  09:10:00      -24.313      -61.626       -5.255       31.359       31.738       20.607      983.395     1007.282      424.654        0.342        0.121       66.248       12.243        0.034      333.297        2.520      863.710
12/13/2014  09:11:00      -71.356      -73.764       -1.967       41.107       25.221       20.127     1689.814      636.082      405.102        0.663        0.137      102.630        9.901        0.009      333.206        2.368      863.725
12/13/2014  09:12:00      -98.328      -69.076       -8.298       38.393       33.309       17.521     1474.030     1109.517      306.990        0.870        0.145      120.166       11.558        0.009      333.232        2.410      863.731
12/13/2014  09:13:00      -96.875      -59.227       -4.948       44.360       44.310       27.606     1967.777     1963.386      762.104        0.880        0.235      113.546       18.218        0.026      333.235        2.417      863.739
12/13/2014  09:14:00     -107.672      -70.518        6.201       56.300       40.783       23.846     3169.636     1663.251      568.625        1.100        0.270      128.709       25.582        0.040      333.232        2.412      863.746
12/13/2014  09:15:00      -43.865      -60.450       12.198       60.689       40.560       24.192     3683.187     1645.146      585.277        0.582        0.296       74.689       21.497        0.083      333.376        2.649      863.754
12/13/2014  09:16:00      -61.998     -100.478       -5.832       28.837       50.774       20.266      831.552     2578.017      410.709        0.890        0.191      118.066       12.219        0.011      333.130        2.243      863.761
12/13/2014  09:17:00      -87.412      -60.011       -1.118       74.205       41.751       35.106     5506.410     1743.137     1232.441        0.986        0.424      106.029       35.969        0.115      333.232        2.413      863.768
12/13/2014  09:18:00      -73.533      -73.549        1.474       58.034       46.691       32.233     3367.910     2180.027     1038.955        0.870        0.329      104.003       28.692        0.076      333.255        2.450      863.785
12/13/2014  09:19:00     -119.022     -111.971        0.794       45.676       58.021       29.220     2086.307     3366.472      853.809        1.650        0.315      163.413       21.878        0.018      333.204        2.366      863.804
12/13/2014  09:20:00      -25.498      -50.420       -1.158       35.411       34.883       26.243     1253.939     1216.852      688.719        0.318        0.158       56.501       17.493        0.096      333.237        2.419      863.809
12/13/2014  09:21:00      -69.265      -76.438       -4.481       64.112       39.632       23.893     4110.401     1570.703      570.886        0.845        0.313      103.152       15.459        0.022      333.182        2.329      863.818
12/13/2014  09:22:00      -65.303      -30.690        8.603       62.371       48.227       27.378     3890.170     2325.870      749.545        0.612        0.348       72.155       22.200        0.095      333.256        2.450      863.819
12/13/2014  09:23:00     -118.338      -32.852       -6.022       53.626       35.793       22.517     2875.760     1281.164      507.033        0.989        0.233      122.814       22.389        0.033      333.299        2.524      863.824
12/13/2014  09:24:00      -94.432      -86.500       -3.586       56.810       52.458       27.229     3227.384     2751.809      741.404        1.157        0.336      128.061       25.097        0.038      333.328        2.571      863.827
12/13/2014  09:25:00      -86.983      -67.368      -11.136       47.251       41.382       20.086     2232.617     1712.434      403.452        0.829        0.217      110.021       23.668        0.046      333.342        2.594      863.832
12/13/2014  09:26:00      -59.811      -14.998        1.740       30.296       22.007       14.987      917.832      484.318      224.596        0.272        0.081       61.663       12.157        0.039      333.405        2.699      863.822
12/13/2014  09:27:00      -31.154      -23.806        2.407       42.593       26.527       24.834     1814.180      703.671      616.710        0.234        0.157       39.208       18.845        0.231      333.612        3.041      863.814
12/13/2014  09:28:00      -72.011      -76.723        3.515       60.235       46.906       28.576     3628.250     2200.208      816.561        0.886        0.332      105.223       15.144        0.021      333.499        2.852      863.803
12/13/2014  09:29:00      -72.452      -53.316      -12.618       20.051       36.270       16.224      402.043     1315.534      263.228        0.512        0.099       89.955       12.199        0.018      333.315        2.548      863.810
12/13/2014  09:30:00      -90.170      -63.657       -3.742       69.174       34.606       27.996     4784.986     1197.583      783.791        0.948        0.338      110.376       20.376        0.034      333.425        2.731      863.794
12/13/2014  09:31:00      -36.306      -96.839        3.687       45.995       52.190       21.875     2115.569     2723.840      478.506        0.801        0.266      103.421       19.879        0.037      333.464        2.795      863.802
12/13/2014  09:32:00      -87.303      -60.292       10.229       43.599       55.007       30.308     1900.861     3025.729      918.588        0.860        0.292      106.099       23.170        0.048      333.427        2.735      863.806
12/13/2014  09:33:00      -95.705      -89.780       -3.753       51.380       55.463       33.922     2639.859     3076.109     1150.724        1.205        0.343      131.224       32.104        0.060      333.425        2.731      863.802
12/13/2014  09:34:00     -112.363      -70.419       -9.021       51.330       46.754       25.257     2634.819     2185.911      637.934        1.156        0.273      132.606       23.672        0.032      333.457        2.783      863.799
12/13/2014  09:35:00      -84.096      -52.070       -1.081       42.824       38.309       33.812     1833.867     1467.583     1143.222        0.711        0.222       98.912       18.858        0.036      333.599        3.019      863.808
12/13/2014  09:36:00       11.036      -43.625       27.204       44.411       61.485       35.899     1972.343     3780.416     1288.748        0.490        0.352       44.999       37.517        0.695      334.037        3.747      863.796
12/13/2014  09:37:00      -23.949      -22.643       10.849       45.979       42.680       27.962     2114.051     1821.584      781.853        0.296        0.236       32.959       20.353        0.381      333.897        3.514      863.792
12/13/2014  09:38:00      -91.159      -59.730       11.050       75.055       53.149       35.008     5633.305     2824.823     1225.542        1.084        0.484      108.985       36.605        0.113      333.695        3.178      863.806
12/13/2014  09:39:00     -139.411     -102.750       -3.239       47.952       40.020       27.923     2299.376     1601.566      779.681        1.734        0.234      173.185       21.369        0.015      333.485        2.829      863.800
12/13/2014  09:40:00     -124.168      -61.304      -10.339       24.895       32.336       16.922      619.768     1045.597      286.360        1.062        0.098      138.476       12.855        0.009      333.479        2.820      863.812
12/13/2014  09:41:00     -105.832      -30.296       -9.198       34.961       31.331       16.974     1222.272      981.601      288.122        0.735        0.125      110.083       16.673        0.023      333.592        3.008      863.816
12/13/2014  09:42:00     -106.900      -29.927        3.156       41.386       38.493       26.012     1712.767     1481.685      676.610        0.810        0.194      111.010       14.549        0.017      333.674        3.143      863.825
12/13/2014  09:43:00      -86.420       -3.804        4.901       48.987       34.958       24.315     2399.764     1222.044      591.243        0.586        0.211       86.504       28.364        0.108      333.898        3.514      863.838
12/13/2014  09:44:00      -17.014     -102.048        4.262       24.371       34.664       21.388      593.943     1201.590      457.429        0.649        0.113      103.457       12.083        0.014      333.786        3.330      863.846
12/13/2014  09:45:00      -21.236      -69.864       -1.387       63.872       29.731       25.770     4079.652      883.944      664.112        0.548        0.281       73.020       24.122        0.109      333.647        3.099      863.843
12/13/2014  09:46:00       -2.822      -27.699       19.816       38.106       41.497       22.991     1452.029     1722.008      528.566        0.243        0.185       27.842       27.449        0.972      334.146        3.925      863.835
12/13/2014  09:47:00      -14.110      -22.133        3.604       27.060       20.237       14.725      732.231      409.555      216.820        0.103        0.068       26.248       10.107        0.148      334.101        3.852      863.827
12/13/2014  09:48:00      -73.634      -51.647        0.652       47.847       46.150       19.405     2289.366     2129.779      376.572        0.644        0.240       89.941       17.432        0.038      333.839        3.416      863.823
12/13/2014  09:49:00      -78.989      -81.679       10.017       73.505       58.804       40.909     5402.988     3457.901     1673.519        1.177        0.527      113.625       41.236        0.132      333.961        3.617      863.810
12/13/2014  09:50:00     -101.065      -50.960       10.549       65.216       41.492       29.632     4253.153     1721.617      878.076        0.989        0.343      113.186       30.241        0.071      333.811        3.371      863.821
12/13/2014  09:51:00     -129.460      -80.156       -6.857       43.278       48.567       24.856     1873.007     2358.739      617.839        1.404        0.242      152.266       20.929        0.019      333.634        3.077      863.833
12/13/2014  09:52:00      -45.639     -113.128       -0.960       14.891        9.169        5.679      221.740       84.070       32.252        0.761        0.017      121.988        4.114        0.001      333.541        2.924      863.838
12/13/2014  09:53:00      -24.440      -86.604       -1.083       28.065       29.159       15.250      787.654      850.266      232.562        0.498        0.094       89.986        3.900        0.002      333.745        3.260      863.849
12/13/2014  09:54:00      -48.256      -83.824       -9.492       10.164       37.029       10.488      103.315     1371.162      109.999        0.551        0.079       96.722        7.459        0.006      333.602        3.025      863.843
12/13/2014  09:55:00      -23.930      -51.354        4.529       40.428       47.020       31.734     1634.450     2210.887     1007.050        0.404        0.243       56.656       29.859        0.278      333.999        3.684      863.835
12/13/2014  09:56:00     -119.163      -45.327      -21.098       42.469       44.026       20.742     1803.628     1938.326      430.231        1.044        0.209      127.493       23.103        0.033      333.848        3.433      863.829
12/13/2014  09:57:00      -32.625      -15.788        4.796       47.661       36.801       25.434     2271.582     1354.295      646.863        0.280        0.214       36.244       32.664        0.812      334.326        4.227      863.841
12/13/2014  09:58:00      -37.402      -17.810       -3.135       44.583       43.469       31.037     1987.635     1889.571      963.304        0.328        0.242       41.426       33.113        0.639      334.191        4.000      863.834
12/13/2014  09:59:00      -60.398      -13.255       22.994       46.838       29.519       31.072     2193.808      871.380      965.448        0.419        0.202       61.836       22.747        0.135      334.276        4.141      863.827
12/13/2014  10:00:00       27.707       14.259       37.881       40.879       60.278       46.056     1671.105     3633.394     2121.160        0.491        0.371       31.161       38.560        1.531      334.383        4.320      863.819
12/13/2014  10:01:00       -4.387       44.034       89.876       39.992       53.589       22.531     1599.389     2871.736      507.663        0.751        0.249       44.252       22.297        0.254      334.396        4.341      863.807
12/13/2014  10:02:00       -3.613       10.230       51.368       41.371       62.844       39.146     1711.571     3949.373     1532.448        0.497        0.360       10.849       38.414       12.536      334.524        4.554      863.800
12/13/2014  10:03:00       45.047       -9.280       36.735       63.173       89.253       75.920     3990.789     7966.103     5763.904        1.059        0.886       45.993       79.876        3.016      334.472        4.468      863.785
12/13/2014  10:04:00       -1.067      101.768      118.380       28.889       55.732       35.495      834.575     3106.100     1259.904        1.479        0.260      101.774       38.473        0.143      334.202        4.019      863.785
12/13/2014  10:05:00       -3.822       73.031      101.386       31.145       52.821       27.260      969.984     2790.031      743.134        1.006        0.225       73.131       24.734        0.114      334.527        4.558      863.781
12/13/2014  10:06:00       -4.541       84.589      106.577       26.881       45.875       34.732      722.602     2104.547     1206.344        1.128        0.202       84.710       30.447        0.129      334.267        4.128      863.779
12/13/2014  10:07:00       19.043       39.192       44.560       29.419       31.782       30.503      865.500     1010.112      930.432        0.334        0.140       43.573       23.699        0.296      334.079        3.816      863.781
12/13/2014  10:08:00        5.331      -37.302        8.084       18.436       43.771       25.627      339.899     1915.880      656.719        0.220        0.146       37.681       28.599        0.576      334.672        4.799      863.773
12/13/2014  10:09:00       36.744       48.035       14.042       30.035       29.704       27.890      902.083      882.336      777.845        0.321        0.128       60.477       16.673        0.076      334.340        4.248      863.776
12/13/2014  10:10:00      -54.173       25.215        3.605       38.341       41.231       24.537     1470.007     1700.021      602.085        0.368        0.189       59.754       15.951        0.071      334.388        4.328      863.762
12/13/2014  10:11:00      -48.265      -57.949        0.358       33.433       32.485       21.475     1117.789     1055.285      461.166        0.416        0.132       75.416       12.752        0.029      334.319        4.215      863.753
12/13/2014  10:12:00        8.373      -27.910       25.912       26.703       53.149       37.195      713.031     2824.803     1383.468        0.322        0.246       29.139       19.928        0.468      334.748        4.927      863.734
12/13/2014  10:13:00       88.647     -135.732      -26.019       53.794       58.754       36.443     2893.799     3452.046     1328.114        1.731        0.384      162.115       21.597        0.018      334.286        4.156      863.721
12/13/2014  10:14:00       21.259       32.359       69.183       40.431       39.782       26.059     1634.679     1582.626      679.064        0.509        0.195       38.717       24.745        0.408      334.590        4.663      863.713
12/13/2014  10:15:00        0.645        5.207       21.347       24.666       29.296       21.101      608.398      858.236      445.270        0.120        0.096        5.246       14.763        7.918      334.603        4.685      863.712
12/13/2014  10:16:00       -4.315       12.885       13.844       13.881       37.186       15.791      192.679     1382.811      249.347        0.110        0.091       13.588       17.151        1.593      334.565        4.622      863.721
12/13/2014  10:17:00      -33.616       -0.341       -2.361       32.583       17.256       17.596     1061.627      297.781      309.633        0.140        0.083       33.617       18.308        0.297      334.376        4.309      863.730
12/13/2014  10:18:00      -25.517       43.055      -10.977       31.964       35.244       17.101     1021.685     1242.142      292.441        0.259        0.128       50.049        6.276        0.016      334.021        3.720      863.743
12/13/2014  10:19:00      -10.178        9.784       -5.035       18.316       28.094       22.923      335.472      789.272      525.456        0.094        0.083       14.119       21.094        2.232      334.296        4.176      863.731
12/13/2014  10:20:00      -48.000      -33.901       -5.875       22.503       15.341       11.211      506.371      235.346      125.691        0.218        0.043       58.764        6.625        0.013      334.084        3.825      863.743
12/13/2014  10:21:00      -15.929       -3.643       -2.563       15.550       11.986        9.691      241.804      143.673       93.908        0.038        0.024       16.340        6.274        0.147      334.398        4.345      863.744
12/13/2014  10:22:00      -26.996      -41.195        1.943       28.799       20.185       13.962      829.360      407.453      194.951        0.193        0.072       49.252       10.060        0.042      334.355        4.273      863.753
12/13/2014  10:23:00       -0.426        1.638       26.715       26.412       54.799       25.092      697.611     3002.912      629.592        0.252        0.217        1.693       30.566      325.971      334.605        4.689      863.745
12/13/2014  10:24:00       -0.884       29.134       43.949       37.354       39.913       39.611     1395.315     1593.062     1569.059        0.367        0.228       29.148       29.921        1.054      334.695        4.838      863.755
12/13/2014  10:25:00       11.569       25.035       67.216       31.218       49.725       22.755      974.584     2472.587      517.806        0.462        0.198       27.579       28.958        1.103      334.482        4.485      863.750
12/13/2014  10:26:00       16.998      -10.397       25.129       17.955       48.326       21.544      322.366     2335.379      464.132        0.207        0.156       19.926       26.267        1.738      334.443        4.420      863.761
12/13/2014  10:27:00      -29.275       23.331       10.420       37.406       31.815       31.939     1399.202     1012.186     1020.080        0.247        0.172       37.435       24.364        0.424      334.602        4.683      863.758
12/13/2014  10:28:00      -10.817       -6.604       19.581       26.447       22.352       17.893      699.428      499.600      320.161        0.103        0.076       12.673        4.954        0.153      334.705        4.854      863.756
12/13/2014  10:29:00       -0.449      -16.149       -5.260       17.516       22.504       17.742      306.802      506.437      314.796        0.071        0.056       16.155       10.634        0.433      334.612        4.700      863.742
12/13/2014  10:30:00      -36.200      -46.103       -2.506       26.914       26.889       24.676      724.341      723.019      608.886        0.275        0.103       58.617       18.180        0.096      334.416        4.375      863.724
12/13/2014  10:31:00      -33.977      -56.871       -5.486       33.565       23.029       29.841     1126.629      530.331      890.457        0.348        0.127       66.248       13.977        0.045      334.339        4.247      863.715
12/13/2014  10:32:00      -51.257      -33.536       14.136       56.062       32.819       21.535     3142.968     1077.097      463.772        0.432        0.234       61.253       26.648        0.189      334.569        4.629      863.701
12/13/2014  10:33:00      -52.736      -66.505       13.313       55.690       33.284       32.023     3101.425     1107.808     1025.501        0.631        0.262       84.876       36.096        0.181      334.320        4.216      863.701
12/13/2014  10:34:00     -122.111      -75.898      -18.038       23.448       34.049       18.239      549.824     1159.344      332.672        1.152        0.102      143.777       16.045        0.012      334.055        3.775      863.686
12/13/2014  10:35:00      -88.633      -27.525      -14.112       37.968       41.995       21.858     1441.542     1763.569      477.782        0.625        0.184       92.808       21.683        0.055      334.133        3.903      863.696
12/13/2014  10:36:00      -75.459       -4.119      -13.734       20.615       25.754       16.730      424.980      663.287      279.904        0.363        0.068       75.571        8.597        0.013      334.301        4.183      863.695
12/13/2014  10:37:00      -75.795      -55.891      -11.786       50.023       37.249       23.552     2502.281     1387.477      554.712        0.673        0.222       94.174       31.862        0.114      334.185        3.991      863.711
12/13/2014  10:38:00     -101.836      -33.744      -18.231       24.688       32.229       18.061      609.512     1038.706      326.195        0.691        0.099      107.281       11.729        0.012      334.133        3.903      863.715
12/13/2014  10:39:00      -84.908      -97.591       -7.125       53.012       68.669       24.385     2810.279     4715.377      594.630        1.245        0.406      129.358       10.918        0.007      334.350        4.265      863.710
12/13/2014  10:40:00      -34.886     -104.831       -5.131       20.012       45.247       24.192      400.473     2047.330      585.273        0.763        0.152      110.483       14.359        0.017      334.243        4.088      863.709
12/13/2014  10:41:00      -32.535      -10.418        0.761       14.421       24.567       19.016      207.971      603.526      361.595        0.117        0.059       34.162       10.940        0.103      334.474        4.470      863.702
12/13/2014  10:42:00      -20.689       36.441       31.063       16.644       30.444       41.992      277.019      926.810     1763.302        0.284        0.148       41.904       26.573        0.402      334.916        5.204      863.695
12/13/2014  10:43:00      -30.691       21.405       15.950       27.987       22.153       22.088      783.297      490.767      487.873        0.171        0.088       37.418        9.525        0.065      334.989        5.326      863.690
12/13/2014  10:44:00      -29.260      -18.242       -3.258       31.999       23.071       16.640     1023.914      532.261      276.885        0.152        0.092       34.481        8.707        0.064      334.663        4.785      863.698
12/13/2014  10:45:00      -33.477       -2.339        8.235       37.155       25.658       20.308     1380.485      658.318      412.429        0.182        0.123       33.559       20.382        0.369      334.835        5.070      863.691
12/13/2014  10:46:00       -8.168        9.497       18.000       37.320       22.510       23.167     1392.746      506.693      536.694        0.146        0.122       12.526       21.113        2.841      335.266        5.787      863.695
12/13/2014  10:47:00       -1.298        9.328       23.600       26.557       21.286       18.307      705.300      453.074      335.156        0.107        0.075        9.418       16.671        3.134      335.363        5.949      863.694
12/13/2014  10:48:00      -12.366       24.767       18.353       19.925       23.845       20.027      397.008      568.599      401.091        0.123        0.068       27.683       15.523        0.314      335.419        6.042      863.700
12/13/2014  10:49:00        4.224       34.609       61.439       43.922       36.459       37.083     1929.107     1329.254     1375.125        0.481        0.232       34.866       31.663        0.825      335.218        5.707      863.695
12/13/2014  10:50:00       72.388       47.738       16.621       43.969       37.896       38.391     1933.251     1436.116     1473.848        0.632        0.242       86.712       30.277        0.122      334.622        4.716      863.700
12/13/2014  10:51:00       57.280       58.693        0.612       18.219       26.919       30.903      331.932      724.625      954.985        0.437        0.101       82.012        9.305        0.013      334.530        4.564      863.687
12/13/2014  10:52:00       44.257       10.519      -13.795       25.996       19.792       22.724      675.808      391.707      516.385        0.192        0.079       45.490       11.118        0.060      334.657        4.774      863.684
12/13/2014  10:53:00       47.622       40.383       21.155       60.446       37.052       42.978     3653.694     1372.888     1847.134        0.561        0.344       62.439       33.761        0.292      334.901        5.181      863.669
12/13/2014  10:54:00       -0.120       59.812       92.404       39.385       47.524       39.563     1551.205     2258.515     1565.244        0.874        0.269       59.812       34.458        0.332      335.122        5.546      863.659
12/13/2014  10:55:00      105.692       93.770       70.279       40.889       31.257       40.414     1671.874      976.991     1633.285        1.459        0.214      141.292       28.952        0.042      334.409        4.362      863.657
12/13/2014  10:56:00       46.036       71.896       73.049       42.954       37.548       36.035     1845.008     1409.846     1298.501        0.859        0.228       85.372       28.545        0.112      334.764        4.952      863.643
12/13/2014  10:57:00       17.383       47.338       71.504       40.183       48.856       39.951     1614.692     2386.923     1596.085        0.663        0.280       50.428       36.241        0.516      334.793        5.001      863.630
12/13/2014  10:58:00       18.042       36.918       48.581       48.501       42.786       40.495     2352.303     1830.680     1639.846        0.493        0.291       41.091       34.630        0.710      335.044        5.416      863.628
12/13/2014  10:59:00       26.288       41.126       54.096       48.292       47.838       33.923     2332.118     2288.497     1150.791        0.554        0.289       48.810       31.486        0.416      334.938        5.241      863.619
12/13/2014  11:00:00        5.069       19.105       40.174       26.033       36.750       20.489      677.707     1350.560      419.794        0.223        0.122       19.766       16.949        0.735      335.479        6.140      863.614
12/13/2014  11:01:00       60.647       44.839       28.754       48.328       35.683       31.961     2335.591     1273.294     1021.508        0.557        0.232       75.422       25.566        0.115      335.045        5.420      863.609
12/13/2014  11:02:00       46.996       50.146       38.572       43.796       38.015       34.769     1918.048     1445.110     1208.887        0.539        0.229       68.726       20.442        0.088      335.003        5.349      863.603
12/13/2014  11:03:00       19.240       69.544       62.657       50.091       44.209       46.666     2509.131     1954.455     2177.717        0.789        0.332       72.157       35.814        0.246      335.280        5.809      863.592
12/13/2014  11:04:00       38.095       62.519       49.763       41.805       40.354       29.014     1747.670     1628.458      841.788        0.603        0.211       73.211       22.508        0.095      335.167        5.621      863.591
12/13/2014  11:05:00       -2.011       80.085       50.158       33.203       42.196       47.770     1102.446     1780.519     2281.942        0.705        0.258       80.110       32.663        0.166      335.234        5.733      863.580
12/13/2014  11:06:00       44.727       90.571      -11.505       25.041       74.152       28.116      627.035     5498.591      790.525        0.862        0.346      101.013       32.399        0.103      334.634        4.737      863.591
12/13/2014  11:07:00       18.937       22.651       15.835       23.029       28.035       18.223      530.344      785.961      332.063        0.139        0.082       29.524       20.408        0.478      335.119        5.542      863.583
12/13/2014  11:08:00       22.578      -77.632        4.972       25.417       51.629       27.159      646.018     2665.551      737.622        0.530        0.202       80.848       23.566        0.085      334.774        4.969      863.582
12/13/2014  11:09:00       -9.860      -67.342      -10.661       32.856       20.433       17.191     1079.488      417.526      295.513        0.327        0.090       68.060       13.890        0.042      334.401        4.350      863.569
12/13/2014  11:10:00      -27.424        7.886       20.456       26.953       17.347       25.479      726.459      300.915      649.187        0.145        0.084       28.535       17.218        0.364      335.112        5.531      863.548
12/13/2014  11:11:00       18.909      -76.664       -0.632       47.444       87.783       44.799     2250.895     7705.796     2006.932        0.910        0.598       78.961       43.248        0.300      335.131        5.560      863.523
12/13/2014  11:12:00        3.906      -34.343       35.198       30.958       76.142       41.691      958.416     5797.570     1738.166        0.546        0.425       34.565       42.530        1.514      335.251        5.762      863.509
12/13/2014  11:13:00       60.668       91.931       86.172       56.981       44.835       37.726     3246.828     2010.204     1423.234        1.312        0.334      110.145       38.603        0.123      335.038        5.409      863.502
12/13/2014  11:14:00       31.931       82.703      103.338       49.851       65.161       45.505     2485.099     4245.995     2070.699        1.367        0.440       88.653       37.196        0.176      335.022        5.381      863.477
12/13/2014  11:15:00       50.593       68.133       66.342       66.801       66.732       41.778     4462.361     4453.167     1745.435        1.113        0.533       84.863       36.497        0.185      335.125        5.552      863.473
12/13/2014  11:16:00       23.620       54.774       71.299       43.491       47.981       27.962     1891.504     2302.179      781.899        0.681        0.249       59.650       27.718        0.216      335.232        5.729      863.456
12/13/2014  11:17:00       65.382       62.481       37.752       64.082       61.695       40.586     4106.557     3806.265     1647.250        0.958        0.478       90.436       36.410        0.162      335.032        5.396      863.456
12/13/2014  11:18:00       38.263       65.864       14.729       55.557       47.174       30.530     3086.528     2225.390      932.088        0.613        0.312       76.172       27.614        0.131      334.853        5.101      863.450
12/13/2014  11:19:00       -4.516       45.860        7.865       24.180       42.447       23.816      584.679     1801.710      567.193        0.257        0.148       46.082       19.628        0.181      335.159        5.608      863.434
12/13/2014  11:20:00        1.946       32.985       20.896       34.552       26.990       20.722     1193.829      728.439      429.403        0.194        0.118       33.042       11.901        0.130      335.251        5.763      863.427
12/13/2014  11:21:00       13.792       40.334       51.172       34.699       30.104       36.119     1204.055      906.243     1304.601        0.392        0.171       42.627       23.687        0.309      335.436        6.069      863.404
12/13/2014  11:22:00        7.352      -13.388       21.228       23.375       30.541       22.293      546.373      932.781      496.965        0.133        0.099       15.274       19.406        1.614      335.501        6.178      863.400
12/13/2014  11:23:00      -17.251      -10.411       17.735       23.530       35.849       34.018      553.681     1285.129     1157.209        0.186        0.150       20.149       24.871        1.524      335.665        6.451      863.384
12/13/2014  11:24:00       85.558      -70.393       25.184       83.899       82.725       71.749     7039.113     6843.355     5147.987        1.597        0.952      110.794       54.417        0.241      335.216        5.701      863.359
12/13/2014  11:25:00       55.602      -47.738       28.417       70.172      109.778       76.690     4924.156    12051.234     5881.387        1.451        1.143       73.283       73.105        0.995      335.207        5.688      863.360
12/13/2014  11:26:00       88.000     -143.849      -22.899       43.701       67.547       31.216     1909.774     4562.553      974.456        1.820        0.372      168.632       33.524        0.040      334.836        5.070      863.364
12/13/2014  11:27:00       22.421      -68.707       -4.564       35.216       50.563       30.302     1240.179     2556.641      918.217        0.498        0.236       72.273       28.241        0.153      334.944        5.250      863.378
12/13/2014  11:28:00        1.134      -65.358       24.846       34.054       59.274       39.073     1159.666     3513.431     1526.727        0.554        0.310       65.368       39.652        0.368      335.396        6.003      863.365
12/13/2014  11:29:00       -5.900      -32.692       25.769       22.329       66.875       41.844      498.583     4472.237     1750.958        0.424        0.336       33.220       44.015        1.755      335.229        5.723      863.360
12/13/2014  11:30:00       73.183     -144.831      -13.922       58.295       51.146       39.000     3398.304     2615.938     1521.013        1.703        0.377      162.271       43.249        0.071      334.939        5.240      863.375
12/13/2014  11:31:00       46.531      -49.404       23.003       30.226       49.116       32.818      913.592     2412.357     1077.026        0.477        0.220       67.867       34.659        0.261      334.915        5.200      863.381
12/13/2014  11:32:00      -19.939      -24.143       20.048       23.278       34.074       17.873      541.882     1161.040      319.437        0.170        0.101       31.312        5.314        0.029      335.363        5.948      863.360
12/13/2014  11:33:00      -56.381      -71.512       28.648       51.030       47.038       33.590     2604.096     2212.587     1128.319        0.753        0.297       91.065       20.933        0.053      335.301        5.844      863.356
12/13/2014  11:34:00       16.750      -52.300        7.823       52.429       66.244       45.391     2748.817     4388.264     2060.362        0.614        0.460       54.917       38.537        0.492      335.433        6.063      863.354
12/13/2014  11:35:00       26.122       20.405       58.042       43.442       59.202       40.957     1887.245     3504.834     1677.510        0.577        0.353       33.147       35.187        1.127      335.469        6.122      863.348
12/13/2014  11:36:00       75.181      -24.634       32.502       50.455      113.974       62.012     2545.712    12990.014     3845.448        1.334        0.969       79.114       69.221        0.766      335.143        5.582      863.351
12/13/2014  11:37:00       -7.380       15.542       38.627       43.248       41.733       33.875     1870.410     1741.640     1147.494        0.327        0.238       17.205       27.303        2.518      335.463        6.115      863.338
12/13/2014  11:38:00        8.550      -34.897       41.427       61.643       77.807       39.714     3799.906     6053.930     1577.203        0.722        0.572       35.929       32.873        0.837      335.588        6.323      863.322
12/13/2014  11:39:00       36.738     -117.455       11.813       51.014       46.198       37.690     2602.429     2134.284     1420.535        1.072        0.308      123.067       35.173        0.082      335.199        5.676      863.317
12/13/2014  11:40:00       -4.745       -3.592       52.868       31.658       59.150       38.393     1002.214     3498.731     1474.008        0.440        0.299        5.951       30.169       25.697      335.767        6.619      863.311
12/13/2014  11:41:00       -3.795      -17.995       26.624       43.268       74.563       35.786     1872.092     5559.648     1280.627        0.488        0.436       18.391       46.304        6.339      335.427        6.054      863.321
12/13/2014  11:42:00       -4.406      -69.740      -12.457       47.017       36.677       29.401     2210.607     1345.183      864.431        0.473        0.221       69.879       16.645        0.057      335.659        6.439      863.314
12/13/2014  11:43:00       -1.161      -71.114       -1.360       38.340       42.371       30.501     1469.934     1795.321      930.292        0.463        0.210       71.124       21.213        0.089      335.606        6.352      863.322
12/13/2014  11:44:00      -40.759      -37.708        9.991       47.658       35.694       24.908     2271.296     1274.033      620.430        0.367        0.208       55.526       24.066        0.188      335.535        6.232      863.322
12/13/2014  11:45:00      -67.921      -66.418       -7.915       56.216       42.755       29.988     3160.260     1827.951      899.268        0.749        0.294       94.998       15.698        0.027      335.392        5.994      863.326
12/13/2014  11:46:00      -42.470      -76.028        5.845       56.645       53.095       32.496     3208.683     2819.034     1055.966        0.735        0.354       87.086       23.228        0.071      335.456        6.101      863.321
12/13/2014  11:47:00      -35.802     -131.210      -22.819       57.605       56.352       32.539     3318.285     3175.514     1058.805        1.328        0.378      136.007       30.009        0.049      335.370        5.959      863.343
12/13/2014  11:48:00      -35.229      -62.594       -3.825       33.784       39.099       29.645     1141.381     1528.700      878.799        0.436        0.177       71.827       20.666        0.083      335.476        6.134      863.360
12/13/2014  11:49:00       74.442     -135.546      -24.298       64.162       48.930       41.797     4116.765     2394.170     1747.025        1.638        0.413      154.642       27.066        0.031      335.362        5.945      863.351
12/13/2014  11:50:00       25.221      -93.815       -5.010       83.269       75.601       37.324     6933.727     5715.482     1393.086        1.175        0.702       97.146       38.592        0.158      335.476        6.134      863.331
12/13/2014  11:51:00      -26.787      -38.429       10.923       59.229       43.106       34.264     3508.097     1858.126     1174.010        0.443        0.327       46.844       30.454        0.423      335.633        6.397      863.313
12/13/2014  11:52:00      -27.121      -57.870        5.653       54.604       43.594       32.751     2981.574     1900.412     1072.597        0.503        0.298       63.910       25.575        0.160      335.390        5.992      863.294
12/13/2014  11:53:00      -23.067      -59.398        5.429       51.751       40.946       28.794     2678.115     1676.559      829.082        0.464        0.259       63.719       23.182        0.132      335.303        5.847      863.280
12/13/2014  11:54:00      -62.541      -54.213       -2.226       26.746       39.085       22.137      715.371     1527.613      490.038        0.479        0.137       82.767       21.891        0.070      335.218        5.704      863.264
12/13/2014  11:55:00      -51.034      -55.407       -9.321       33.334       30.865       26.352     1111.176      952.675      694.440        0.426        0.138       75.328       17.644        0.055      335.263        5.781      863.256
12/13/2014  11:56:00      -15.215      -32.877        2.675       35.959       29.793       19.235     1293.063      887.598      369.990        0.193        0.128       36.227       17.231        0.226      335.463        6.114      863.254
12/13/2014  11:57:00      -43.583      -18.371       10.754       55.159       29.333       26.010     3042.507      860.423      676.533        0.347        0.229       47.297       32.805        0.481      335.614        6.366      863.256
12/13/2014  11:58:00      -98.273      -85.032       -0.110       47.097       49.452       29.451     2218.142     2445.516      867.337        1.121        0.277      129.954       24.251        0.035      335.156        5.603      863.241
12/13/2014  11:59:00      -97.138      -96.882       -2.038       49.438       34.027       25.183     2444.145     1157.857      634.199        1.153        0.212      137.193       26.394        0.037      335.157        5.605      863.234
12/13/2014  12:00:00     -129.364      -34.405       -1.690       63.997       39.517       31.954     4095.630     1561.569     1021.040        1.230        0.334      133.861       30.449        0.052      335.223        5.714      863.222
12/13/2014  12:01:00      -95.242        0.336       -4.252       43.500       33.829       22.301     1892.279     1144.417      497.331        0.631        0.177       95.243       18.679        0.038      335.477        6.136      863.203
12/13/2014  12:02:00        7.881       14.359       11.323       29.982       18.595       20.999      898.894      345.762      440.938        0.104        0.084       16.379       17.094        1.089      335.891        6.827      863.167
12/13/2014  12:03:00      -18.770      -43.217       -6.370       24.485       31.268       16.727      599.508      977.709      279.809        0.206        0.093       47.117        9.824        0.043      335.453        6.097      863.151
12/13/2014  12:04:00       -6.631        6.466        5.135       15.450       21.064       16.210      238.698      443.687      262.753        0.053        0.047        9.262       11.416        1.520      335.961        6.943      863.132
12/13/2014  12:05:00      -48.187      -15.902      -13.578       31.052       23.101       15.450      964.256      533.668      238.704        0.225        0.087       50.743        5.922        0.014      335.613        6.364      863.109
12/13/2014  12:06:00      -45.359      -59.342      -15.179       38.527       55.510       19.438     1484.319     3081.339      377.837        0.538        0.247       74.692       16.347        0.048      335.521        6.209      863.075
12/13/2014  12:07:00      -66.516      -28.656       21.266       54.394       34.389       27.105     2958.716     1182.603      734.658        0.529        0.244       72.427       19.305        0.071      335.740        6.577      863.049
12/13/2014  12:08:00       73.071     -134.959      -14.903       56.628       56.941       30.852     3206.699     3242.321      951.829        1.559        0.370      153.471       32.019        0.044      335.453        6.095      863.023
12/13/2014  12:09:00       45.101     -126.634       -9.752       44.494       49.262       30.322     1979.691     2426.704      919.406        1.174        0.266      134.425       25.232        0.035      335.420        6.042      862.981
12/13/2014  12:10:00       35.287       54.194       32.698       48.511       38.606       32.032     2353.364     1490.401     1026.073        0.506        0.243       64.670       18.820        0.085      335.908        6.854      862.947
12/13/2014  12:11:00       90.914       59.232        4.482       52.620       35.408       32.090     2768.889     1253.717     1029.770        0.842        0.253      108.507       19.008        0.031      335.546        6.252      862.925
12/13/2014  12:12:00      144.229       79.538       10.998       80.760       46.237       42.359     6522.228     2137.861     1794.259        1.885        0.523      164.707       23.356        0.020      335.632        6.393      862.907
12/13/2014  12:13:00      126.526      100.648       30.875       58.835       40.748       37.644     3461.597     1660.406     1417.092        1.681        0.327      161.675       27.422        0.029      335.426        6.053      862.909
12/13/2014  12:14:00       72.218       61.875       29.079       62.559       53.966       42.547     3913.600     2912.305     1810.288        0.926        0.432       95.100       36.390        0.146      335.535        6.232      862.925
12/13/2014  12:15:00       44.460      125.713      -15.368       49.818       76.939       31.933     2481.847     5919.660     1019.731        1.372        0.471      133.343       36.686        0.076      335.462        6.112      862.923
12/13/2014  12:16:00       28.002      136.322      -18.971       29.721       35.412       30.094      883.336     1254.029      905.676        1.138        0.152      139.168       19.899        0.020      335.319        5.873      862.920
12/13/2014  12:17:00       -6.342       60.906      -10.097       15.938       29.308       17.278      254.004      858.957      298.545        0.263        0.071       61.235       12.330        0.041      335.397        6.002      862.922
12/13/2014  12:18:00       36.391       65.805       -8.366       27.643       39.420       21.778      764.122     1553.897      474.268        0.426        0.140       75.197       24.982        0.110      335.502        6.177      862.914
12/13/2014  12:19:00       53.074       46.185        5.859       48.155       32.850       25.929     2318.889     1079.099      672.304        0.453        0.204       70.355        9.978        0.020      335.504        6.181      862.899
12/13/2014  12:20:00        2.537       28.288        8.677       15.293       21.692       17.554      233.890      470.533      308.160        0.095        0.051       28.401       15.443        0.296      335.728        6.558      862.889
12/13/2014  12:21:00       42.506       47.015       18.060       49.623       26.594       31.925     2462.399      707.254     1019.228        0.427        0.209       63.381       25.368        0.160      335.775        6.634      862.877
12/13/2014  12:22:00       29.768       57.471       60.659       43.051       36.478       48.208     1853.351     1330.608     2324.008        0.669        0.275       64.723       41.923        0.420      335.842        6.744      862.855
12/13/2014  12:23:00       32.818       53.546       87.413       47.765       42.571       39.789     2281.483     1812.253     1583.147        0.863        0.284       62.803       31.204        0.247      335.982        6.978      862.842
12/13/2014  12:24:00       15.749       34.887       80.774       44.176       81.955       55.408     1951.502     6716.588     3069.995        0.986        0.587       38.277       56.597        2.186      335.992        6.995      862.830
12/13/2014  12:25:00       82.010     -154.206        0.089       37.704       59.703       36.528     1421.559     3564.416     1334.275        1.841        0.316      174.657       29.963        0.029      335.403        6.013      862.826
12/13/2014  12:26:00       60.435      -67.180        2.566       35.141       64.568       37.773     1234.917     4169.089     1426.817        0.750        0.342       90.363       40.224        0.198      335.411        6.026      862.803
12/13/2014  12:27:00       64.966       38.549       65.319       49.520       55.816       47.671     2452.231     3115.436     2272.558        0.891        0.392       75.542       47.021        0.387      335.697        6.504      862.801
12/13/2014  12:28:00      112.220       94.090       96.372       62.043       63.182       46.628     3849.390     3991.938     2174.147        2.037        0.501      146.445       37.780        0.067      335.512        6.193      862.802
12/13/2014  12:29:00       30.018       40.882       -0.499       37.028       28.067       32.355     1371.063      787.757     1046.835        0.289        0.160       50.719       26.665        0.276      335.361        5.944      862.781
12/13/2014  12:30:00       29.506       30.318       12.965       26.000       29.616       42.145      676.024      877.107     1776.174        0.264        0.166       42.306       25.609        0.366      335.562        6.278      862.754
12/13/2014  12:31:00      113.815       71.619       28.063       54.900       46.530       49.160     3014.040     2165.046     2416.730        1.323        0.380      134.473       39.207        0.085      335.596        6.335      862.750
12/13/2014  12:32:00       33.593      -15.256       23.065       64.726       58.155       33.727     4189.445     3381.954     1137.523        0.530        0.435       36.895       15.816        0.184      335.909        6.857      862.732
12/13/2014  12:33:00       48.034       94.568      113.736       73.113       92.941       72.222     5345.578     8638.074     5215.985        2.169        0.960      106.068       72.079        0.462      336.163        7.279      862.722
12/13/2014  12:34:00      173.927      127.067       68.020       61.344       63.183       70.424     3763.119     3992.082     4959.497        3.187        0.636      215.399       47.662        0.049      335.450        6.089      862.746
12/13/2014  12:35:00       82.360      -10.405       19.096       54.512       47.869       45.590     2971.569     2291.462     2078.451        0.730        0.367       83.015       37.698        0.206      335.476        6.135      862.742
12/13/2014  12:36:00       54.684      -11.943       33.231       47.164       62.234       37.754     2224.468     3873.125     1425.389        0.588        0.376       55.973       42.346        0.572      335.680        6.474      862.688
12/13/2014  12:37:00      107.643       31.485       34.512       65.847       67.349       47.742     4335.790     4535.934     2279.275        1.246        0.558      112.153       33.392        0.089      335.763        6.613      862.635
12/13/2014  12:38:00       96.576       91.686       62.825       68.001       40.897       54.309     4624.100     1672.545     2949.493        1.546        0.462      133.166       44.703        0.113      335.977        6.970      862.596
12/13/2014  12:39:00      143.686       92.336       31.325       70.383       48.387       59.221     4953.733     2341.332     3507.166        2.048        0.540      170.797       50.916        0.089      335.542        6.243      862.599
12/13/2014  12:40:00       92.641       65.112       34.365       52.186       42.591       43.134     2723.420     1813.993     1860.564        1.020        0.320      113.233       28.820        0.065      335.938        6.905      862.598
12/13/2014  12:41:00       20.888       27.796       25.591       53.604       45.411       37.222     2873.385     2062.117     1385.447        0.409        0.316       34.770       22.121        0.405      336.305        7.518      862.600
12/13/2014  12:42:00       89.347       73.150       17.759       69.885       47.559       41.977     4883.961     2261.889     1762.051        1.128        0.445      115.472       22.659        0.039      336.030        7.057      862.604
12/13/2014  12:43:00      145.841      130.266       93.822      101.421       72.217       62.688    10286.130     5215.365     3929.807        3.323        0.972      195.548       55.204        0.080      335.594        6.330      862.595
12/13/2014  12:44:00       90.616      -45.115       27.775       49.495       53.292       37.924     2449.707     2840.001     1438.251        0.887        0.336      101.225       34.223        0.114      335.579        6.307      862.589
12/13/2014  12:45:00       39.833       94.033       86.759       60.853       55.113       48.362     3703.125     3037.467     2338.922        1.352        0.454      102.121       30.514        0.089      336.040        7.076      862.555
12/13/2014  12:46:00       92.344       87.333       43.938       86.821       41.678       52.510     7537.891     1737.014     2757.255        1.506        0.602      127.100       19.838        0.024      335.822        6.712      862.563
12/13/2014  12:47:00      -43.018       58.811      -17.148       39.856       71.174       30.724     1588.502     5065.748      943.974        0.660        0.380       72.865       15.409        0.045      335.920        6.874      862.564
12/13/2014  12:48:00       22.086      -16.901      -23.237       26.524       31.037       20.874      703.520      963.279      435.715        0.171        0.105       27.810       12.609        0.206      335.940        6.909      862.540
12/13/2014  12:49:00       23.900       63.460       34.798       48.564       39.913       33.293     2358.478     1593.079     1108.457        0.543        0.253       67.811       20.346        0.090      336.285        7.484      862.524
12/13/2014  12:50:00        1.189       44.317       54.233       30.617       38.237       27.118      937.380     1462.071      735.377        0.402        0.157       44.333       13.885        0.098      336.484        7.818      862.526
12/13/2014  12:51:00       14.436       58.468       12.750       46.243       33.375       22.225     2138.416     1113.864      493.960        0.377        0.187       60.224       24.785        0.169      336.520        7.877      862.549
12/13/2014  12:52:00       41.453       77.384       -9.466       66.050       58.455       31.063     4362.616     3416.943      964.924        0.827        0.437       87.788       20.275        0.053      336.055        7.100      862.576
12/13/2014  12:53:00      -29.440      153.015      -19.163       79.742       66.260       35.263     6358.800     4390.451     1243.511        1.832        0.600      155.821       37.119        0.057      336.024        7.047      862.595
12/13/2014  12:54:00      -73.633       78.809      -14.252       83.816       73.107       30.444     7025.167     5344.694      926.832        1.256        0.665      107.854       33.299        0.095      336.063        7.113      862.596
12/13/2014  12:55:00      -39.443      136.428      -15.699       63.346       74.302       36.195     4012.697     5520.832     1310.077        1.563        0.542      142.016       42.997        0.092      336.082        7.144      862.595
12/13/2014  12:56:00      -52.417      110.529       -8.718       51.047       45.279       38.136     2605.846     2050.218     1454.329        1.057        0.306      122.329       27.485        0.050      335.864        6.783      862.594
12/13/2014  12:57:00       16.171       56.930        5.544       38.915       44.029       35.624     1514.413     1938.547     1269.052        0.413        0.236       59.182       23.608        0.159      336.147        7.253      862.585
12/13/2014  12:58:00       -7.825       52.337        8.734       32.074       37.744       21.874     1028.747     1424.577      478.469        0.290        0.147       52.919       13.936        0.069      336.435        7.735      862.572
12/13/2014  12:59:00       -9.158       53.135       -7.967       38.182       49.371       37.958     1457.879     2437.526     1440.845        0.415        0.267       53.919       30.821        0.327      336.256        7.437      862.578
12/13/2014  13:00:00      -26.859       92.172      -11.103       70.640       65.284       32.055     4989.985     4262.064     1027.493        0.981        0.514       96.005       38.502        0.161      335.941        6.909      862.572
12/13/2014  13:01:00      -23.189       31.511        6.423       38.886       58.855       22.629     1512.103     3463.862      512.070        0.353        0.274       39.123       25.581        0.428      336.380        7.643      862.566
12/13/2014  13:02:00      -16.762       58.524       16.109       52.963       67.126       34.777     2805.055     4505.878     1209.438        0.624        0.426       60.877       30.883        0.257      336.454        7.768      862.565
12/13/2014  13:03:00      -21.751      107.495        1.341       42.522       78.719       40.306     1808.093     6196.734     1624.595        1.083        0.481      109.674       45.641        0.173      336.439        7.741      862.556
12/13/2014  13:04:00      -16.477      158.332       -6.664       51.396       75.419       38.351     2641.502     5687.983     1470.773        1.759        0.490      159.187       41.271        0.067      336.025        7.050      862.551
12/13/2014  13:05:00       -8.417      226.726      -16.048       49.185       82.331       43.287     2419.143     6778.398     1873.805        3.140        0.554      226.882       44.910        0.039      335.902        6.843      862.524
12/13/2014  13:06:00      -33.873       92.148       -1.501       51.931       77.398       34.916     2696.803     5990.404     1219.136        0.977        0.495       98.177       38.139        0.151      336.442        7.746      862.507
12/13/2014  13:07:00      -27.992      222.375      -23.027       43.999      105.876       40.267     1935.869    11209.636     1621.449        3.276        0.738      224.130       54.011        0.058      335.922        6.877      862.506
12/13/2014  13:08:00      -26.426      243.170      -33.457       47.915       81.313       35.682     2295.865     6611.754     1273.203        3.556        0.509      244.601       33.103        0.018      335.740        6.571      862.506
12/13/2014  13:09:00      -83.718      101.454      -12.465       58.023       77.073       38.645     3366.714     5940.232     1493.462        1.413        0.540      131.535       37.178        0.080      336.216        7.368      862.499
12/13/2014  13:10:00      -21.472       77.548        2.347       56.903       54.285       37.001     3237.957     2946.858     1369.111        0.702        0.378       80.466       26.352        0.107      336.259        7.440      862.506
12/13/2014  13:11:00      -28.833      108.440      -20.930       63.918       57.243       32.709     4085.529     3276.759     1069.879        1.073        0.422      112.208       26.381        0.055      336.313        7.530      862.511
12/13/2014  13:12:00      -32.726      170.217      -20.441       48.822       92.692       39.560     2383.547     8591.781     1565.003        2.150        0.627      173.334       51.709        0.089      336.010        7.024      862.513
12/13/2014  13:13:00      -44.150      109.124      -10.465       33.114       82.471       33.588     1096.546     6801.410     1128.141        1.149        0.451      117.717       42.519        0.130      335.892        6.829      862.519
12/13/2014  13:14:00     -129.062      124.342      -20.696       77.595       61.547       43.010     6021.056     3787.975     1849.848        2.210        0.583      179.215       40.002        0.050      336.046        7.084      862.530
12/13/2014  13:15:00     -104.022      138.397      -20.684       64.515       64.276       35.459     4162.165     4131.408     1257.336        1.997        0.478      173.131       33.072        0.036      335.823        6.711      862.549
12/13/2014  13:16:00      -55.179      176.808      -15.233       37.812       52.181       28.607     1429.726     2722.875      818.381        1.975        0.249      185.218       22.270        0.014      335.901        6.842      862.551
12/13/2014  13:17:00      -64.317      152.446      -23.475       27.906       43.808       26.848      778.750     1919.111      720.826        1.567        0.171      165.458       23.950        0.021      335.690        6.492      862.545
12/13/2014  13:18:00      -25.284      167.681      -25.087       52.731       75.538       36.226     2780.519     5706.038     1312.317        1.959        0.490      169.577       37.036        0.048      335.806        6.683      862.531
12/13/2014  13:19:00      -12.577      107.472        0.070       58.793       65.709       37.442     3456.644     4317.647     1401.915        1.044        0.459      108.205       37.037        0.117      335.908        6.855      862.542
12/13/2014  13:20:00      -44.583      155.782      -28.505       38.361       79.064       32.089     1471.547     6251.156     1029.675        1.791        0.438      162.036       31.903        0.039      335.809        6.690      862.546
12/13/2014  13:21:00      -99.039      121.359      -28.037       46.745       38.488       25.600     2185.098     1481.327      655.380        1.482        0.216      156.642       21.026        0.018      335.725        6.551      862.558
12/13/2014  13:22:00       -1.766      130.673      -11.206       26.419       53.993       29.966      697.983     2915.263      897.950        1.086        0.226      130.685       32.571        0.062      335.733        6.564      862.574
12/13/2014  13:23:00       17.460      124.537      -10.027       20.826       51.054       23.173      433.719     2606.550      537.011        0.975        0.179      125.755       23.509        0.035      335.672        6.461      862.580
12/13/2014  13:24:00      -38.726       84.202        1.308       45.696       39.205       27.762     2088.106     1537.033      770.702        0.649        0.220       92.681       26.452        0.081      335.987        6.988      862.573
12/13/2014  13:25:00      -71.646      115.098      -17.967       30.038       52.539       26.922      902.274     2760.390      724.800        1.154        0.219      135.575       15.883        0.014      335.793        6.662      862.585
12/13/2014  13:26:00      -19.396      112.777      -28.900       46.162       45.567       21.488     2130.964     2076.349      461.741        0.930        0.233      114.433       19.445        0.029      335.828        6.722      862.610
12/13/2014  13:27:00       17.697      221.885      -28.291       53.549       84.818       40.669     2867.533     7194.118     1653.964        3.103        0.586      222.589       47.664        0.046      335.716        6.533      862.627
12/13/2014  13:28:00       45.643      136.666       -5.163       68.309       81.410       44.925     4666.138     6627.527     2018.290        1.705        0.666      144.086       49.132        0.116      335.914        6.864      862.613
12/13/2014  13:29:00     -108.332      138.183      -25.856       48.087       55.242       31.810     2312.377     3051.694     1011.901        1.894        0.319      175.586       28.105        0.026      335.895        6.833      862.617
12/13/2014  13:30:00      -44.853      125.143       -4.973       33.131       73.554       41.298     1097.673     5410.226     1705.509        1.295        0.411      132.938       42.669        0.103      336.003        7.013      862.617
12/13/2014  13:31:00      -53.316      170.911      -15.976       36.052       86.038       34.713     1299.747     7402.494     1204.969        2.111        0.495      179.033       39.978        0.050      335.907        6.852      862.619
12/13/2014  13:32:00     -106.457      169.719      -23.609       46.879       52.271       39.431     2197.621     2732.308     1554.836        2.359        0.324      200.344       34.841        0.030      335.986        6.983      862.618
12/13/2014  13:33:00      -48.737      110.357       -4.074       52.416       50.136       31.581     2747.444     2513.594      997.351        1.041        0.313      120.640       28.245        0.055      336.024        7.047      862.617
12/13/2014  13:34:00       -3.284       69.834        8.753       32.295       47.666       30.401     1042.972     2272.047      924.201        0.460        0.212       69.911       31.861        0.208      336.034        7.065      862.610
12/13/2014  13:35:00      -25.279      -25.732       18.707       61.593       46.141       30.310     3793.708     2129.009      918.689        0.424        0.342       36.072       34.628        0.922      336.195        7.333      862.597
12/13/2014  13:36:00      -59.649      -17.739        6.577       60.049       31.640       25.193     3605.898     1001.063      634.693        0.458        0.262       62.230       24.884        0.160      336.114        7.199      862.597
12/13/2014  13:37:00      -41.736      -44.146       -1.319       63.044       40.799       28.627     3974.490     1664.577      819.531        0.507        0.323       60.752       32.384        0.284      336.151        7.259      862.601
12/13/2014  13:38:00      -13.455       14.589        4.799       44.086       74.151       32.820     1943.597     5498.310     1077.156        0.447        0.426       19.846       27.374        1.902      336.034        7.065      862.617
12/13/2014  13:39:00        5.543      196.565      -19.403       51.899       56.133       40.207     2693.471     3150.866     1616.623        2.325        0.373      196.643       26.947        0.019      335.882        6.812      862.631
12/13/2014  13:40:00       58.096      100.010        2.168       41.640       52.541       38.557     1733.886     2760.519     1486.628        0.968        0.299      115.659       28.481        0.061      335.884        6.814      862.627
12/13/2014  13:41:00       -6.970      152.859      -18.398       57.293       97.096       38.055     3282.475     9427.677     1448.169        1.895        0.708      153.018       43.449        0.081      335.952        6.925      862.622
12/13/2014  13:42:00      -57.454       53.401       -7.510       53.225       53.411       26.353     2832.884     2852.780      694.504        0.629        0.319       78.439       19.412        0.061      336.346        7.587      862.633
12/13/2014  13:43:00      -10.585      143.498      -16.606       38.086       85.294       34.331     1450.515     7275.018     1178.605        1.544        0.495      143.888       46.785        0.106      336.248        7.422      862.631
12/13/2014  13:44:00       19.137      144.450      -19.427       34.333       71.402       37.111     1178.781     5098.229     1377.198        1.463        0.383      145.712       41.695        0.082      335.981        6.976      862.631
12/13/2014  13:45:00     -110.637      108.502      -21.677       55.171       51.662       40.635     3043.843     2668.966     1651.203        1.592        0.368      154.962       32.306        0.043      336.464        7.783      862.641
12/13/2014  13:46:00      -68.898      134.808      -16.100       54.027       64.966       38.234     2918.956     4220.628     1461.858        1.589        0.430      151.394       44.082        0.085      336.011        7.026      862.651
12/13/2014  13:47:00     -138.327      -30.386      -11.125       70.671       65.483       25.767     4994.358     4287.981      663.950        1.506        0.497      141.625       18.558        0.017      336.088        7.154      862.635
12/13/2014  13:48:00      -58.800      -22.182       -2.556       55.912       39.692       32.292     3126.155     1575.450     1042.800        0.485        0.287       62.845       27.394        0.190      336.229        7.392      862.623
12/13/2014  13:49:00     -118.797       83.743      -29.083       72.779       67.400       34.599     5296.839     4542.745     1197.109        1.650        0.552      145.346       35.395        0.059      336.278        7.471      862.621
12/13/2014  13:50:00      -63.513      223.055      -36.711       58.364       66.889       32.415     3406.408     4474.095     1050.717        3.203        0.447      231.921       25.639        0.012      335.916        6.866      862.612
12/13/2014  13:51:00      -55.327      219.481      -20.839       41.790       87.367       38.980     1746.432     7632.978     1519.457        3.128        0.545      226.347       43.204        0.036      336.057        7.100      862.604
12/13/2014  13:52:00        7.422      184.794      -29.583       52.189       81.928       37.054     2723.654     6712.133     1372.972        2.294        0.540      184.943       29.678        0.026      335.877        6.800      862.606
12/13/2014  13:53:00      -36.246       78.088       -1.555       38.486       47.005       30.019     1481.197     2209.426      901.154        0.600        0.230       86.091       28.067        0.106      336.351        7.594      862.595
12/13/2014  13:54:00      -41.089      155.069      -18.066       55.110       93.238       37.135     3037.159     8693.363     1378.980        1.958        0.655      160.420       44.749        0.078      336.145        7.249      862.579
12/13/2014  13:55:00      -33.572      151.436      -24.280       64.367      110.423       36.304     4143.079    12193.313     1317.961        2.115        0.883      155.112       53.347        0.118      335.914        6.863      862.553
12/13/2014  13:56:00     -112.347      150.008      -37.900       78.519       65.577       32.471     6165.294     4300.312     1054.379        2.404        0.576      187.414       22.903        0.015      336.009        7.021      862.549
12/13/2014  13:57:00     -109.051       71.575       -3.510       66.234       35.778       35.596     4386.999     1280.049     1267.110        1.198        0.347      130.442       28.202        0.047      336.236        7.402      862.557
12/13/2014  13:58:00     -129.581      133.326      -17.502       77.252       90.093       49.760     5967.929     8116.807     2476.019        2.571        0.828      185.922       53.147        0.082      336.146        7.249      862.572
12/13/2014  13:59:00     -132.551      196.661      -38.622       73.200       95.398       47.231     5358.197     9100.820     2230.777        3.721        0.834      237.161       35.812        0.023      336.083        7.142      862.593
12/13/2014  14:00:00     -110.898      294.599      -32.140       84.980       99.351       51.115     7221.544     9870.611     2612.737        5.991        0.985      314.781       53.268        0.029      335.797        6.666      862.607
12/13/2014  14:01:00     -100.627      301.563      -42.165       65.276       85.990       36.145     4260.970     7394.249     1306.482        5.790        0.648      317.909       37.120        0.014      335.823        6.708      862.609
12/13/2014  14:02:00      -70.024      118.721      -19.760       55.566      103.450       42.642     3087.600    10701.803     1818.346        1.750        0.780      137.833       46.051        0.112      336.164        7.280      862.583
12/13/2014  14:03:00     -144.930      259.201      -46.538       65.177       95.080       50.317     4247.996     9040.301     2531.789        5.308        0.791      296.968       47.613        0.026      335.916        6.864      862.592
12/13/2014  14:04:00        3.123      322.236      -48.194       85.725       72.232       44.822     7348.807     5217.509     2009.039        6.037        0.729      322.252       35.908        0.012      335.785        6.646      862.582
12/13/2014  14:05:00       24.404      222.621      -38.547       75.307      107.728       44.046     5671.075    11605.244     1940.018        3.543        0.961      223.955       53.361        0.057      335.781        6.640      862.567
12/13/2014  14:06:00      -52.656      185.491      -22.491      107.787      154.085       43.664    11618.056    23742.232     1906.589        3.747        1.863      192.820       52.785        0.075      336.138        7.236      862.569
12/13/2014  14:07:00      -86.410      122.887      -24.561       61.250       79.309       33.013     3751.536     6289.929     1089.878        1.715        0.557      150.226       35.858        0.057      336.281        7.476      862.569
12/13/2014  14:08:00      -52.640      139.979       -3.706       48.110       73.442       43.949     2314.565     5393.758     1931.550        1.601        0.482      149.550       46.714        0.098      336.063        7.113      862.577
12/13/2014  14:09:00      -48.691      304.327      -28.460       66.754       98.979       45.692     4456.123     9796.846     2087.722        5.606        0.817      308.197       43.181        0.020      335.862        6.775      862.581
12/13/2014  14:10:00      -60.277      191.843       -8.614       95.381      125.026       44.031     9097.563    15631.526     1938.747        3.358        1.333      201.090       55.741        0.077      335.983        6.977      862.593
12/13/2014  14:11:00      -92.172      224.555      -26.516       72.511       73.658       36.740     5257.850     5425.466     1349.813        3.583        0.602      242.736       37.416        0.024      335.924        6.879      862.600
12/13/2014  14:12:00      -43.858      170.768      -10.016       50.793       75.782       42.429     2579.913     5742.954     1800.187        2.065        0.506      176.310       39.869        0.051      336.037        7.067      862.608
12/13/2014  14:13:00       -8.507      139.097      -12.236       48.646       52.926       38.287     2366.479     2801.192     1465.923        1.310        0.332      139.357       37.241        0.071      336.137        7.236      862.602
12/13/2014  14:14:00        4.520      121.305       16.054       38.900      100.906       51.101     1513.171    10182.115     2611.263        1.465        0.715      121.389       58.351        0.231      336.188        7.320      862.606
12/13/2014  14:15:00        1.903      197.401      -25.162       39.101       65.744       38.672     1528.925     4322.237     1495.498        2.347        0.367      197.410       39.543        0.040      335.963        6.943      862.610
12/13/2014  14:16:00      -31.817      170.976      -22.731       47.890       55.800       30.261     2293.421     3113.668      915.751        1.854        0.316      173.912       27.684        0.025      336.089        7.156      862.608
12/13/2014  14:17:00      -12.923      151.840      -24.020       29.952       45.698       32.119      897.129     2088.262     1031.647        1.391        0.201      152.389       21.869        0.021      336.324        7.547      862.613
12/13/2014  14:18:00      -29.142      173.198      -16.137       49.214      107.698       43.460     2422.006    11598.764     1888.740        2.351        0.795      175.633       53.666        0.093      336.206        7.351      862.618
12/13/2014  14:19:00      -83.848      274.828      -34.201       59.192      100.603       47.511     3503.682    10121.040     2257.261        4.980        0.794      287.334       47.632        0.027      336.062        7.107      862.630
12/13/2014  14:20:00      -52.494      135.356       -7.854       53.178       72.821       40.462     2827.911     5302.966     1637.146        1.545        0.488      145.179       41.146        0.080      336.282        7.479      862.647
12/13/2014  14:21:00      -67.369       96.164      -14.890       48.713       57.388       38.601     2372.988     3293.405     1490.023        1.058        0.358      117.414       34.976        0.089      336.422        7.712      862.649
12/13/2014  14:22:00      -63.593      102.380      -13.672       56.410      112.912       39.151     3182.033    12749.183     1532.769        1.608        0.873      120.522       32.501        0.073      336.229        7.390      862.657
12/13/2014  14:23:00     -133.828       52.552      -10.948       98.899       68.660       50.137     9781.001     4714.201     2513.756        1.890        0.850      143.777       50.135        0.122      336.254        7.431      862.646
12/13/2014  14:24:00      -74.655      180.909       -7.107       61.489      105.504       55.078     3780.938    11131.028     3033.576        2.815        0.897      195.707       60.634        0.096      336.225        7.383      862.673
12/13/2014  14:25:00      -91.624      252.914      -31.348       66.834       74.148       38.727     4466.758     5497.997     1499.769        4.240        0.573      268.999       38.150        0.020      336.005        7.011      862.698
12/13/2014  14:26:00     -125.163      224.550      -35.489       80.457       81.091       38.661     6473.320     6575.714     1494.702        4.094        0.727      257.077       41.746        0.026      336.024        7.045      862.714
12/13/2014  14:27:00     -108.320      217.476      -21.541       43.491       90.230       42.455     1891.461     8141.409     1802.458        3.566        0.592      242.959       38.725        0.025      336.061        7.107      862.728
12/13/2014  14:28:00     -137.892      194.295      -42.665       78.535       80.445       31.711     6167.688     6471.425     1005.579        3.611        0.682      238.253       30.002        0.016      336.039        7.068      862.735
12/13/2014  14:29:00     -108.003      171.176      -31.974       84.389       62.135       37.028     7121.586     3860.812     1371.096        2.717        0.618      202.400       34.895        0.030      336.129        7.221      862.734
12/13/2014  14:30:00      -33.943      124.042       -2.692       40.381      105.305       42.850     1630.624    11089.212     1836.161        1.555        0.728      128.602       54.886        0.182      336.236        7.402      862.722
12/13/2014  14:31:00      -29.981      160.802      -15.252       53.653       55.129       37.996     2878.676     3039.173     1443.699        1.717        0.368      163.574       25.964        0.025      336.217        7.370      862.717
12/13/2014  14:32:00      -22.795      277.400      -40.829       58.810       91.613       38.124     3458.591     8392.901     1453.419        4.622        0.665      278.335       43.106        0.024      335.980        6.971      862.718
12/13/2014  14:33:00      -38.356      237.499      -31.640       48.327      104.560       30.671     2335.507    10932.752      940.718        3.654        0.710      240.576       33.007        0.019      335.985        6.982      862.721
12/13/2014  14:34:00      -58.936      228.640      -28.915       40.975       98.752       38.357     1678.938     9752.053     1471.247        3.474        0.645      236.114       49.809        0.045      335.995        6.996      862.725
12/13/2014  14:35:00      -41.535      264.077      -38.208       62.107       61.904       29.854     3857.291     3832.048      891.245        4.075        0.429      267.323       23.780        0.008      335.959        6.935      862.729
12/13/2014  14:36:00      -74.778      181.914      -22.082       80.201       50.645       33.635     6432.266     2564.962     1131.337        2.465        0.506      196.683       28.281        0.021      336.033        7.061      862.739
12/13/2014  14:37:00      -67.696      193.445      -22.792       69.687       65.375       41.653     4856.307     4273.846     1734.982        2.669        0.543      204.949       37.136        0.033      335.860        6.772      862.756
12/13/2014  14:38:00      -73.840      177.229      -25.960       47.760       48.561       30.171     2281.027     2358.144      910.279        2.154        0.277      191.996       24.200        0.016      335.788        6.653      862.784
12/13/2014  14:39:00      -94.500      155.541      -22.837       44.497       70.352       34.163     1979.963     4949.429     1167.129        2.087        0.405      181.998       34.839        0.037      335.965        6.949      862.797
12/13/2014  14:40:00     -102.616      212.932      -32.751       53.964       45.040       30.278     2912.098     2028.644      916.762        3.140        0.293      236.368       17.731        0.006      335.798        6.668      862.820
12/13/2014  14:41:00     -115.578      139.868      -19.166       45.254       76.164       35.049     2047.938     5800.968     1228.421        2.118        0.454      181.443       35.702        0.039      335.856        6.766      862.834
12/13/2014  14:42:00      -41.113      195.306      -30.156       53.730       57.604       27.297     2886.906     3318.243      745.121        2.385        0.348      199.586       24.644        0.015      335.736        6.566      862.841
12/13/2014  14:43:00      -49.563      232.616      -30.024       46.533       54.386       28.785     2165.305     2957.811      828.553        3.171        0.298      237.837       18.706        0.006      335.753        6.594      862.837
12/13/2014  14:44:00      -61.730      114.050      -19.522       40.590       67.034       27.232     1647.553     4493.553      741.599        1.204        0.344      129.684       24.410        0.035      335.865        6.784      862.841
12/13/2014  14:45:00      -62.924      101.988      -10.523       48.633       39.355       23.775     2365.212     1548.836      565.263        0.947        0.224      119.837       14.491        0.015      335.976        6.969      862.858
12/13/2014  14:46:00      -68.499      106.226      -27.927       40.590       53.647       24.294     1647.568     2878.042      590.203        1.093        0.256      126.396       21.673        0.029      335.918        6.871      862.862
12/13/2014  14:47:00      -97.088      178.493      -33.980       50.026       50.045       31.896     2502.613     2504.532     1017.349        2.423        0.301      203.189       24.450        0.014      335.823        6.711      862.879
12/13/2014  14:48:00      -18.453      254.205      -28.433       50.261       52.389       32.230     2526.154     2744.659     1038.800        3.604        0.315      254.874       20.183        0.006      335.719        6.536      862.872
12/13/2014  14:49:00      -44.576      167.018      -20.543       52.297       44.667       25.734     2734.979     1995.170      662.264        1.785        0.270      172.864       19.505        0.013      335.762        6.612      862.882
12/13/2014  14:50:00      -91.447      126.223      -26.325       68.149       43.701       26.890     4644.315     1909.784      723.097        1.613        0.364      155.869       24.234        0.024      335.857        6.769      862.880
12/13/2014  14:51:00      -55.214       54.737       -7.854       70.419       52.908       33.492     4958.839     2799.254     1121.699        0.749        0.444       77.748       26.006        0.112      335.907        6.853      862.879
12/13/2014  14:52:00      -30.090       99.337      -16.690       43.240       39.503       21.016     1869.727     1560.505      441.667        0.746        0.194      103.794       14.202        0.019      335.885        6.816      862.861
12/13/2014  14:53:00      -26.632      124.300        4.918       53.202       78.376       36.987     2830.456     6142.719     1368.013        1.326        0.517      127.121       38.583        0.092      335.857        6.770      862.845
12/13/2014  14:54:00      -22.016       80.416        3.411       61.949       39.728       30.655     3837.672     1578.295      939.701        0.666        0.318       83.375       16.398        0.039      335.927        6.887      862.837
12/13/2014  14:55:00       24.592      163.354      -24.352       41.349       62.253       25.906     1709.779     3875.456      671.113        1.707        0.313      165.195       23.582        0.020      335.718        6.538      862.823
12/13/2014  14:56:00      -16.770      134.056      -25.245       37.845       46.682       22.361     1432.279     2179.189      499.993        1.150        0.206      135.101        9.416        0.005      335.761        6.611      862.821
12/13/2014  14:57:00      -88.324      151.469      -21.878       47.877       83.132       39.197     2292.225     6910.905     1536.389        2.098        0.537      175.340       37.816        0.047      335.832        6.726      862.831
12/13/2014  14:58:00      -38.486      196.480      -31.889       53.753       63.715       31.684     2889.356     4059.610     1003.873        2.453        0.398      200.214       36.244        0.033      335.798        6.669      862.845
12/13/2014  14:59:00      -10.739      151.681      -15.851       37.163       48.332       30.679     1381.113     2335.951      941.178        1.401        0.233      152.060       30.842        0.041      335.808        6.688      862.845
12/13/2014  15:00:00      -26.180      153.317      -23.455       40.591       52.214       21.136     1647.630     2726.336      446.748        1.478        0.241      155.536       23.109        0.022      335.796        6.667      862.859
12/13/2014  15:01:00      -58.757      192.518      -20.844       49.853       93.201       39.066     2485.362     8686.413     1526.167        2.682        0.635      201.285       42.935        0.045      335.882        6.809      862.866
12/13/2014  15:02:00     -122.784      172.377      -26.399       42.758       72.052       37.958     1828.266     5191.444     1440.847        2.697        0.423      211.635       39.900        0.036      335.877        6.799      862.869
12/13/2014  15:03:00      -18.683      178.044      -25.610       49.001       61.294       27.137     2401.135     3756.968      736.402        1.980        0.345      179.022       19.976        0.012      335.853        6.760      862.883
12/13/2014  15:04:00      -24.923      173.089      -20.607       29.592       51.084       19.254      875.680     2609.589      370.713        1.743        0.193      174.874       22.071        0.016      335.850        6.756      862.893
12/13/2014  15:05:00       22.389      139.352       -7.625       46.564       80.422       36.934     2168.248     6467.722     1364.150        1.499        0.500      141.139       47.600        0.114      335.829        6.721      862.903
12/13/2014  15:06:00       -7.404      217.529      -23.852       53.359       46.938       36.583     2847.172     2203.191     1338.304        2.716        0.319      217.655       29.678        0.019      335.827        6.716      862.905
12/13/2014  15:07:00      -81.065      147.457      -25.235       33.425       41.393       25.028     1117.263     1713.401      626.394        1.620        0.173      168.271       18.189        0.012      335.884        6.813      862.896
12/13/2014  15:08:00      -25.694      111.142       -9.713       31.456       66.572       23.706      989.453     4431.813      561.971        0.954        0.299      114.074       25.837        0.051      335.921        6.875      862.902
12/13/2014  15:09:00      -81.925      217.559      -37.336       67.391       79.618       35.377     4541.577     6339.047     1251.509        3.378        0.607      232.473       33.328        0.021      335.930        6.888      862.903
12/13/2014  15:10:00      -86.190      180.252      -30.432       70.823       68.594       44.988     5015.963     4705.090     2023.964        2.629        0.587      199.799       35.736        0.032      335.879        6.804      862.899
12/13/2014  15:11:00      -75.288      182.460      -11.097       59.020       64.786       50.609     3483.378     4197.283     2561.229        2.466        0.512      197.383       39.115        0.039      335.810        6.688      862.888
12/13/2014  15:12:00      -30.704      153.174       -7.864       48.106       81.712       36.477     2314.199     6676.891     1330.583        1.739        0.516      156.221       26.039        0.028      335.864        6.780      862.895
12/13/2014  15:13:00      -61.289       34.605       -2.323       71.017       58.327       29.580     5043.358     3401.982      874.961        0.714        0.466       70.384       27.387        0.151      336.065        7.117      862.895
12/13/2014  15:14:00     -129.477      215.397      -32.798       93.255       86.395       50.791     8696.449     7464.051     2579.742        4.148        0.937      251.317       46.636        0.034      335.836        6.731      862.898
12/13/2014  15:15:00     -108.557      117.726      -26.803       71.811       72.098       43.558     5156.756     5198.101     1897.260        1.930        0.613      160.138       31.458        0.039      335.849        6.756      862.911
12/13/2014  15:16:00     -116.070      135.859      -10.769       96.996       73.800       46.066     9408.309     5446.384     2122.039        2.451        0.849      178.689       41.302        0.053      335.871        6.791      862.909
12/13/2014  15:17:00     -159.969      214.255      -34.101       79.008       77.108       47.102     6242.204     5945.608     2218.577        4.353        0.720      267.386       41.163        0.024      335.825        6.714      862.915
12/13/2014  15:18:00     -169.457      201.268      -33.328       87.111       85.524       61.217     7588.294     7314.366     3747.482        4.449        0.933      263.106       60.616        0.053      335.807        6.683      862.927
12/13/2014  15:19:00     -151.108      182.302      -34.695       77.041       69.000       48.787     5935.306     4760.965     2380.154        3.517        0.654      236.786       43.683        0.034      335.810        6.687      862.923
12/13/2014  15:20:00     -141.634      190.676      -35.215       66.092       84.883       39.128     4368.176     7205.177     1531.033        3.538        0.655      237.524       40.777        0.029      335.749        6.586      862.931
12/13/2014  15:21:00     -135.393      159.101      -24.961       74.560       71.930       41.652     5559.174     5173.899     1734.907        2.837        0.623      208.912       34.432        0.027      335.799        6.672      862.942
12/13/2014  15:22:00     -151.230      221.805      -31.787      102.130      100.920       55.812    10430.478    10184.827     3115.034        4.840        1.187      268.455       53.900        0.040      335.715        6.529      862.965
12/13/2014  15:23:00      -76.286      275.469      -39.426       62.806       67.336       44.571     3944.573     4534.137     1986.617        4.686        0.523      285.837       31.507        0.012      335.684        6.478      862.982
12/13/2014  15:24:00     -112.514      278.621      -26.556       62.848      103.051       48.255     3949.839    10619.601     2328.575        5.394        0.845      300.482       41.083        0.019      335.722        6.540      863.004
12/13/2014  15:25:00     -160.412      228.877      -43.045       85.526       87.129       52.069     7314.672     7591.393     2711.184        4.879        0.881      279.494       52.994        0.036      335.727        6.550      863.035
12/13/2014  15:26:00     -155.632      261.675      -35.275       86.394       80.933       57.297     7463.989     6550.209     3282.978        5.562        0.865      304.459       56.041        0.034      335.667        6.447      863.043
12/13/2014  15:27:00     -165.057      168.655      -40.400       78.039       61.611       41.424     6090.117     3795.894     1715.939        3.446        0.580      235.984       36.638        0.024      335.751        6.590      863.047
12/13/2014  15:28:00     -119.832      173.688      -31.234       54.609       56.521       36.617     2982.125     3194.619     1340.820        2.651        0.376      211.015       27.192        0.017      335.670        6.456      863.045
12/13/2014  15:29:00     -126.497      116.250      -24.061       52.823       66.870       31.706     2790.283     4471.613     1005.280        1.918        0.413      171.801       34.174        0.040      335.750        6.590      863.045
12/13/2014  15:30:00     -125.425      185.531      -31.432       81.726      110.825       41.146     6679.181    12282.072     1693.032        3.589        1.033      223.949       51.177        0.052      335.693        6.496      863.054
12/13/2014  15:31:00     -134.985      160.205      -28.392       80.664       64.811       45.078     6506.701     4200.420     2031.994        2.871        0.637      209.491       46.513        0.049      335.714        6.529      863.063
12/13/2014  15:32:00     -142.225      156.641      -32.315       79.508       76.587       43.334     6321.600     5865.543     1877.813        2.993        0.703      211.576       50.428        0.057      335.674        6.463      863.064
12/13/2014  15:33:00     -108.972      149.149      -27.786       81.887       56.232       36.664     6705.415     3162.080     1344.277        2.305        0.561      184.716       40.429        0.048      335.715        6.532      863.072
12/13/2014  15:34:00     -144.610      166.709      -23.552       64.661      105.684       39.880     4181.099    11169.003     1590.414        3.310        0.847      220.689       32.117        0.021      335.742        6.576      863.081
12/13/2014  15:35:00      -78.056       86.207       -6.631       65.548       68.226       40.834     4296.582     4654.781     1667.429        1.209        0.531      116.294       44.884        0.149      335.859        6.774      863.093
12/13/2014  15:36:00      -69.215      147.202      -14.085       76.458       74.302       35.272     5845.874     5520.776     1244.139        1.963        0.631      162.663       37.080        0.052      335.943        6.912      863.106
12/13/2014  15:37:00      -92.719      238.538      -12.421       73.072       84.807       58.699     5339.495     7192.296     3445.600        4.081        0.799      255.924       49.934        0.038      335.805        6.680      863.130
12/13/2014  15:38:00     -125.108      198.425      -31.267       55.149       65.451       45.015     3041.360     4283.846     2026.373        3.268        0.468      234.573       30.186        0.017      335.860        6.772      863.150
12/13/2014  15:39:00     -112.065      131.871      -22.611       52.298       61.187       37.970     2735.105     3743.847     1441.690        1.919        0.396      173.056       27.599        0.025      335.992        6.995      863.156
12/13/2014  15:40:00     -114.518      224.751      -39.077       74.494       84.565       45.225     5549.407     7151.255     2045.269        3.995        0.737      252.244       44.056        0.031      335.894        6.829      863.162
12/13/2014  15:41:00      -79.581      309.569      -31.455       56.182      100.329       46.019     3156.463    10065.812     2117.766        5.924        0.767      319.634       44.435        0.019      335.776        6.632      863.164
12/13/2014  15:42:00      -86.542      279.066      -25.791       79.588      117.205       47.725     6334.176    13736.952     2277.633        5.419        1.117      292.177       42.357        0.021      335.879        6.803      863.172
12/13/2014  15:43:00      -99.655      139.153      -19.327       53.476      120.126       41.718     2859.719    14430.313     1740.412        2.435        0.952      171.157       34.200        0.040      335.902        6.842      863.172
12/13/2014  15:44:00     -222.508      182.187      -37.665      107.257      129.908       55.067    11504.143    16875.987     3032.403        5.776        1.571      287.579       51.504        0.032      335.883        6.811      863.177
12/13/2014  15:45:00     -171.600      150.400      -31.161       67.134      109.711       53.041     4506.955    12036.582     2813.343        3.619        0.968      228.181       53.074        0.054      335.870        6.789      863.182
12/13/2014  15:46:00     -141.632      145.774      -28.393       80.416       79.461       49.405     6466.682     6314.048     2440.846        2.867        0.761      203.248       47.943        0.056      335.912        6.858      863.171
12/13/2014  15:47:00     -157.456      201.230      -37.154       88.908       98.142       46.227     7904.718     9631.840     2136.969        4.317        0.984      255.511       47.779        0.035      335.844        6.745      863.167
12/13/2014  15:48:00     -137.720      279.046      -34.485      139.507      148.549       64.434    19462.341    22066.938     4151.677        7.184        2.284      311.181       57.455        0.034      335.800        6.671      863.160
12/13/2014  15:49:00     -128.327      182.461      -38.800       54.425      100.311       42.805     2962.076    10062.245     1832.272        3.306        0.743      223.069       49.556        0.049      335.903        6.846      863.186
12/13/2014  15:50:00     -110.299      243.601      -38.143       58.842      124.641       47.889     3462.397    15535.501     2293.387        4.712        1.065      267.409       45.430        0.029      335.769        6.620      863.195
12/13/2014  15:51:00     -148.511      237.345      -36.756       71.943       83.283       56.795     5175.730     6936.120     3225.631        4.754        0.767      279.979       47.906        0.029      335.771        6.622      863.195
12/13/2014  15:52:00     -116.075      192.685      -19.607       74.046       85.122       40.808     5482.750     7245.757     1665.264        3.269        0.720      224.946       36.706        0.027      335.829        6.720      863.206
12/13/2014  15:53:00     -117.729      312.741      -34.378       79.708       87.227       50.838     6353.343     7608.544     2584.475        6.469        0.827      334.167       39.757        0.014      335.654        6.429      863.204
12/13/2014  15:54:00     -121.735      319.596      -40.168       73.550      112.579       39.956     5409.651    12674.050     1596.456        6.912        0.984      341.995       44.395        0.017      335.645        6.413      863.206
12/13/2014  15:55:00      -80.862      289.039      -45.172       55.785      114.391       44.011     3112.016    13085.265     1937.012        5.512        0.907      300.137       54.841        0.033      335.566        6.280      863.200
12/13/2014  15:56:00      -48.317      175.777      -10.604       64.282      137.001       56.554     4132.121    18769.376     3198.335        2.972        1.305      182.297       68.640        0.142      335.564        6.280      863.191
12/13/2014  15:57:00      -63.851      294.610      -21.950      104.910      115.862       65.204    11006.065    13424.022     4251.607        6.001        1.434      301.450       63.968        0.045      335.527        6.217      863.176
12/13/2014  15:58:00     -149.792      359.307      -34.984      108.310      124.549       70.953    11730.975    15512.494     5034.284        9.251        1.614      389.280       73.709        0.036      335.449        6.087      863.173
12/13/2014  15:59:00     -116.142      349.645      -43.076       95.899      131.415       56.990     9196.560    17269.830     3247.914        8.365        1.486      368.430       62.003        0.028      335.457        6.100      863.170
12/13/2014  16:00:00     -120.391      245.588      -34.515       82.091      101.383       48.536     6738.933    10278.533     2355.754        4.768        0.969      273.509       44.011        0.026      335.486        6.148      863.178
12/13/2014  16:01:00      -61.737      282.442      -37.357       73.674       92.790       48.413     5427.902     8610.029     2343.824        5.068        0.819      289.110       48.634        0.028      335.424        6.046      863.181
12/13/2014  16:02:00      -80.208      286.871      -35.534       71.730       90.681       49.817     5145.225     8222.983     2481.692        5.292        0.792      297.873       38.600        0.017      335.410        6.021      863.184
12/13/2014  16:03:00      -48.413      308.001      -40.538       51.615       67.971       36.512     2664.136     4620.004     1333.149        5.373        0.431      311.782       32.862        0.011      335.362        5.941      863.177
12/13/2014  16:04:00       37.920      212.056      -23.398       68.066      125.905       51.741     4632.921    15852.165     2677.119        3.505        1.158      215.420       60.703        0.079      335.345        5.915      863.148
12/13/2014  16:05:00       17.118      140.825      -28.014       64.286       59.352       31.069     4132.658     3522.611      965.303        1.476        0.431      141.862       29.839        0.044      335.378        5.969      863.140
12/13/2014  16:06:00       -1.032      178.090      -21.627       48.261       95.946       30.852     2329.094     9205.676      951.863        2.233        0.624      178.093       23.838        0.018      335.423        6.044      863.135
12/13/2014  16:07:00      -46.526      191.735      -23.106       82.225      110.398       52.385     6760.990    12187.657     2744.174        3.057        1.085      197.299       59.363        0.091      335.470        6.124      863.138
12/13/2014  16:08:00      -89.320      190.487      -22.311       59.937       68.103       38.716     3592.459     4637.972     1498.946        2.724        0.486      210.389       34.720        0.027      335.469        6.121      863.129
12/13/2014  16:09:00      -77.407      186.941      -16.854       65.352       93.009       42.383     4270.945     8650.715     1796.285        2.797        0.736      202.333       43.114        0.045      335.466        6.115      863.128
12/13/2014  16:10:00      -34.718      203.109      -26.181       40.930       99.112       34.851     1675.282     9823.281     1214.570        2.793        0.636      206.055       36.616        0.032      335.393        5.996      863.129
12/13/2014  16:11:00      -26.453      281.164      -37.942       43.581       68.879       32.307     1899.275     4744.338     1043.769        4.444        0.384      282.406       25.917        0.008      335.304        5.844      863.123
12/13/2014  16:12:00      -66.598      217.237      -32.010       53.349       53.397       28.478     2846.152     2851.253      810.995        2.958        0.325      227.216       24.693        0.012      335.343        5.910      863.124
12/13/2014  16:13:00      -69.042      135.679      -21.994       48.147       59.336       25.506     2318.086     3520.769      650.566        1.507        0.324      152.235       27.865        0.034      335.387        5.985      863.122
12/13/2014  16:14:00      -73.299      140.462      -20.654       33.328       48.589       28.641     1110.755     2360.904      820.293        1.491        0.215      158.437       23.036        0.021      335.301        5.843      863.102
12/13/2014  16:15:00      -97.080      131.870      -19.999       66.485       79.395       39.028     4420.246     6303.514     1523.199        1.973        0.612      163.750       44.803        0.075      335.320        5.871      863.098
12/13/2014  16:16:00      -70.451      130.645      -19.202       46.177       69.243       30.156     2132.347     4794.568      909.384        1.512        0.392      148.430       27.114        0.033      335.324        5.881      863.096
12/13/2014  16:17:00      -18.653      141.264       -1.961       37.979       63.703       40.480     1442.423     4058.114     1638.659        1.372        0.357      142.490       38.455        0.073      335.282        5.812      863.092
12/13/2014  16:18:00      -75.932      120.209      -13.112       47.015       55.430       40.040     2210.409     3072.430     1603.212        1.364        0.344      142.183       35.412        0.062      335.303        5.844      863.099
12/13/2014  16:19:00      -60.588       73.412       -6.634      129.134       76.158       43.648    16675.507     5800.066     1905.180        1.674        1.219       95.185       61.230        0.414      335.299        5.839      863.097
12/13/2014  16:20:00     -114.299       70.406      -10.069       72.160       59.785       37.882     5207.067     3574.188     1435.076        1.417        0.511      134.244       30.751        0.052      335.217        5.704      863.095
12/13/2014  16:21:00     -109.464      106.331      -31.455       70.320       56.165       31.679     4944.894     3154.511     1003.577        1.669        0.455      152.606       17.300        0.013      335.288        5.820      863.094
12/13/2014  16:22:00      -61.201      185.225      -29.646       62.273       92.363       37.178     3877.915     8530.951     1382.233        2.636        0.690      195.074       42.130        0.047      335.121        5.543      863.082
12/13/2014  16:23:00      -41.731      243.062      -32.139       39.869       62.407       24.984     1589.512     3894.619      624.185        3.398        0.305      246.618       23.496        0.009      335.039        5.406      863.077
12/13/2014  16:24:00      -48.280      162.100      -18.800       50.123       72.497       33.425     2512.267     5255.788     1117.246        1.892        0.444      169.138       25.937        0.024      335.145        5.585      863.076
12/13/2014  16:25:00      -69.724       96.685      -12.639       44.652       51.660       32.985     1993.815     2668.766     1087.997        1.006        0.288      119.203       29.176        0.060      335.204        5.682      863.090
12/13/2014  16:26:00     -104.580       77.675      -24.074       60.620       78.494       33.073     3674.835     6161.243     1093.815        1.424        0.546      130.270       32.571        0.063      335.234        5.732      863.106
12/13/2014  16:27:00      -90.235       55.225      -13.466       47.804       58.945       32.542     2285.188     3474.495     1059.000        0.909        0.341      105.793       24.496        0.054      335.237        5.735      863.091
12/13/2014  16:28:00      -59.737       98.593      -19.449       63.489       71.664       33.896     4030.829     5135.684     1148.926        1.199        0.516      115.279       36.036        0.098      335.154        5.599      863.107
12/13/2014  16:29:00      -29.346       24.940       20.888       40.650       45.805       29.758     1652.425     2098.116      885.538        0.328        0.232       38.512       19.154        0.247      335.257        5.773      863.111
12/13/2014  16:30:00      -76.459       81.237       -3.828       91.702       99.955       47.761     8409.344     9991.073     2281.089        1.657        1.034      111.559       36.762        0.109      335.145        5.582      863.110
12/13/2014  16:31:00      -90.591      165.475      -14.511       58.055       79.297       42.487     3370.434     6288.057     1805.120        2.363        0.573      188.650       43.022        0.052      335.087        5.487      863.120
12/13/2014  16:32:00      -75.004      108.957      -12.870       66.092       53.136       38.991     4368.209     2823.435     1520.303        1.319        0.436      132.277       31.631        0.057      335.082        5.480      863.123
12/13/2014  16:33:00      -39.518      173.574      -19.083       80.114       71.416       44.803     6418.327     5100.274     2007.318        2.279        0.676      178.016       40.786        0.052      335.047        5.421      863.142
12/13/2014  16:34:00     -131.060      110.489      -21.368       67.548       88.474       39.754     4562.680     7827.681     1580.390        2.190        0.699      171.419       31.684        0.034      335.115        5.536      863.133
12/13/2014  16:35:00      -95.934      204.523      -29.724       66.181       83.709       36.693     4379.875     7007.143     1346.364        3.232        0.637      225.905       33.427        0.022      335.054        5.432      863.126
12/13/2014  16:36:00      -86.935      107.225       -9.809       97.387       80.036       44.099     9484.263     6405.808     1944.706        1.849        0.892      138.039       48.766        0.125      335.056        5.437      863.127
12/13/2014  16:37:00      -53.455      194.196      -25.887       50.598       62.435       32.479     2560.127     3898.145     1054.894        2.437        0.376      201.419       29.434        0.021      335.049        5.424      863.123
12/13/2014  16:38:00      -92.692      158.890      -26.100       47.187       84.574       36.721     2226.644     7152.792     1348.434        2.262        0.536      183.951       28.702        0.024      335.102        5.511      863.131
12/13/2014  16:39:00      -62.677      160.498      -27.036       60.096       81.526       35.562     3611.535     6646.539     1264.625        2.097        0.576      172.302       31.173        0.033      335.002        5.345      863.130
12/13/2014  16:40:00      -39.194      154.724      -14.937       59.433       55.983       35.496     3532.290     3134.059     1259.996        1.681        0.396      159.611       30.344        0.036      334.843        5.081      863.113
12/13/2014  16:41:00      -37.036      168.707      -14.229       62.495       76.333       39.151     3905.659     5826.683     1532.794        2.065        0.563      172.724       37.830        0.048      334.898        5.172      863.115
12/13/2014  16:42:00      -58.877      169.139      -11.587       63.549      103.544       45.047     4038.491    10721.452     2029.203        2.450        0.839      179.094       40.816        0.052      334.838        5.072      863.122
12/13/2014  16:43:00      -96.459       85.681      -17.675       33.087       65.321       24.049     1094.774     4266.830      578.342        1.145        0.297      129.018       17.255        0.018      334.911        5.197      863.140
12/13/2014  16:44:00      -93.964      115.503      -27.254       39.194       85.458       29.096     1536.165     7303.042      846.569        1.630        0.484      148.896       32.485        0.048      334.843        5.082      863.149
12/13/2014  16:45:00      -51.493      165.779       -3.752       66.478      125.473       62.772     4419.264    15743.443     3940.377        2.712        1.205      173.592       65.061        0.140      334.827        5.054      863.155
12/13/2014  16:46:00      -22.411      139.710      -19.084       40.133       61.121       31.997     1610.661     3735.744     1023.788        1.338        0.319      141.496       36.978        0.068      334.813        5.032      863.165
12/13/2014  16:47:00      -79.311       46.461       -2.579       32.971       27.783       24.528     1087.061      771.890      601.624        0.546        0.123       91.918       11.165        0.015      335.109        5.525      863.164
12/13/2014  16:48:00      -32.960       33.168        5.575       38.433       58.433       27.408     1477.111     3414.403      751.220        0.393        0.282       46.760       23.456        0.252      334.852        5.099      863.152
12/13/2014  16:49:00      -94.724      -21.934       -7.808       70.608       40.131       25.829     4985.549     1610.486      667.130        0.839        0.363       97.230       33.036        0.115      334.833        5.066      863.153
12/13/2014  16:50:00      -60.046       23.459      -18.618       31.777       49.465       16.654     1009.762     2446.785      277.343        0.412        0.187       64.466       21.620        0.112      334.918        5.208      863.169
12/13/2014  16:51:00        2.767      -10.610       19.809       31.857       34.454       22.900     1014.869     1187.082      524.420        0.162        0.136       10.965       22.306        4.138      334.842        5.081      863.172
12/13/2014  16:52:00      -24.362       20.961        3.494       27.507       33.773       20.006      756.659     1140.614      400.223        0.167        0.115       32.138       14.790        0.212      334.995        5.335      863.184
12/13/2014  16:53:00      -24.770       25.056       -2.250       15.412       37.571       18.551      237.537     1411.584      344.134        0.162        0.100       35.233       13.683        0.151      334.900        5.178      863.187
12/13/2014  16:54:00      -80.363       38.028      -20.546       45.159       45.123       26.503     2039.342     2036.050      702.413        0.655        0.239       88.906       30.394        0.117      334.891        5.163      863.205
12/13/2014  16:55:00      -84.166       73.053       -1.160       41.273       51.838       25.088     1703.474     2687.133      629.409        0.872        0.251      111.448       13.749        0.015      334.962        5.279      863.207
12/13/2014  16:56:00     -152.324      -61.108       -7.300       47.662       35.581       22.030     2271.660     1266.001      485.302        1.551        0.201      164.124       12.988        0.006      334.855        5.103      863.238
12/13/2014  16:57:00     -172.639      -69.809       -8.802       54.027       54.912       29.246     2918.877     3015.332      855.340        2.077        0.339      186.219       28.222        0.023      334.780        4.977      863.261
12/13/2014  16:58:00      -36.183      -24.416       13.462       74.981       34.353       32.089     5622.133     1180.130     1029.731        0.496        0.392       43.650       40.527        0.862      334.770        4.961      863.258
12/13/2014  16:59:00      -79.041      -20.820        7.499       50.336       44.915       22.357     2533.742     2017.363      499.843        0.589        0.253       81.737       23.136        0.080      334.801        5.013      863.270
12/13/2014  17:00:00     -159.146      -87.043       -7.002       69.726       48.854       28.997     4861.779     2386.741      840.854        2.052        0.404      181.394       21.469        0.014      334.819        5.041      863.280
12/13/2014  17:01:00     -123.900      -44.041        2.681       68.566       49.439       34.746     4701.230     2444.190     1207.278        1.282        0.418      131.494       35.259        0.072      334.774        4.966      863.282
12/13/2014  17:02:00     -183.934      -65.989      -17.978       69.115       63.535       39.859     4776.832     4036.640     1588.730        2.445        0.520      195.413       20.316        0.011      334.761        4.945      863.289
12/13/2014  17:03:00     -129.950      -30.606      -11.210       67.432       44.651       45.234     4547.097     1993.709     2046.085        1.327        0.429      133.505       34.474        0.067      334.740        4.910      863.285
12/13/2014  17:04:00      -88.030       -4.832       -3.912       57.138       48.721       24.728     3264.770     2373.779      611.490        0.702        0.313       88.163       19.971        0.051      334.817        5.040      863.280
12/13/2014  17:05:00     -159.381      -63.863      -10.769       70.031       60.081       37.103     4904.390     3609.690     1376.666        1.974        0.495      171.699       19.208        0.013      334.725        4.884      863.277
12/13/2014  17:06:00     -126.581      -14.471      -21.640       71.969      107.203       37.790     5179.599    11492.532     1428.093        1.740        0.905      127.405       33.119        0.068      334.673        4.798      863.285
12/13/2014  17:07:00     -114.675       -1.645      -16.867       60.111       78.514       30.137     3613.331     6164.443      908.228        1.206        0.534      114.687       21.382        0.035      334.742        4.915      863.295
12/13/2014  17:08:00     -199.004       22.738      -24.206       62.997       78.123       35.184     3968.596     6103.170     1237.897        2.601        0.565      200.299       26.178        0.017      334.894        5.166      863.314
12/13/2014  17:09:00     -187.693      -77.536      -16.185       72.766       50.665       32.593     5294.842     2566.968     1062.321        2.521        0.446      203.077       28.099        0.019      334.775        4.967      863.344
12/13/2014  17:10:00     -143.882      -33.184       -5.954       77.462       59.577       34.627     6000.382     3549.457     1199.046        1.629        0.537      147.659       43.178        0.086      334.731        4.895      863.352
12/13/2014  17:11:00     -169.588      -43.271       -6.287       42.949       48.270       32.886     1844.585     2329.996     1081.519        1.796        0.263      175.021       25.401        0.021      334.712        4.863      863.363
12/13/2014  17:12:00     -133.877      -38.273       -3.989       71.355       39.563       23.361     5091.471     1565.212      545.736        1.330        0.360      139.240       19.283        0.019      334.622        4.716      863.366
12/13/2014  17:13:00     -100.389      -41.135       -1.369       74.188       36.724       33.085     5503.811     1348.641     1094.628        0.986        0.397      108.490       26.958        0.062      334.566        4.622      863.364
12/13/2014  17:14:00      -52.692       23.714        4.241       24.021       19.085       23.305      576.993      364.249      543.142        0.242        0.074       57.783       14.778        0.065      334.580        4.645      863.383
12/13/2014  17:15:00        0.879       31.025       27.026       22.203       22.790       14.551      492.982      519.365      211.729        0.146        0.061       31.037       11.218        0.131      334.494        4.504      863.400
12/13/2014  17:16:00       18.717       26.885       15.561       34.880       22.363       36.162     1216.642      500.122     1307.705        0.217        0.151       32.758       17.228        0.277      334.577        4.642      863.422
12/13/2014  17:17:00       98.713       28.222       39.768       44.264       46.984       37.811     1959.311     2207.505     1429.673        0.886        0.280      102.668       31.945        0.097      334.604        4.686      863.439
12/13/2014  17:18:00       50.770       73.959       72.944       66.464       57.537       50.707     4417.453     3310.504     2571.247        1.183        0.515       89.708       44.444        0.245      334.546        4.589      863.438
12/13/2014  17:19:00       82.477       -8.124       39.311       86.045       51.734       35.376     7403.669     2676.448     1251.496        0.987        0.567       82.876       48.923        0.348      334.541        4.580      863.446
12/13/2014  17:20:00       36.680       25.021       72.863       42.003       61.141       37.356     1764.271     3738.184     1395.447        0.709        0.345       44.401       40.441        0.830      334.559        4.612      863.436
12/13/2014  17:21:00       21.894       80.524      109.345       41.915       61.052       35.065     1756.833     3727.401     1229.560        1.282        0.336       83.448       37.125        0.198      334.631        4.730      863.442
12/13/2014  17:22:00      124.345      103.994       42.777       64.493       53.053       54.698     4159.348     2814.638     2991.856        1.903        0.498      162.100       38.628        0.057      334.690        4.827      863.435
12/13/2014  17:23:00       37.083       62.877       68.416       44.108       53.587       39.205     1945.515     2871.580     1537.039        0.818        0.318       72.998       32.226        0.195      334.644        4.752      863.445
12/13/2014  17:24:00       54.462       52.351       93.315       48.476       56.436       35.463     2349.936     3185.035     1257.591        1.060        0.340       75.543       33.009        0.191      334.618        4.709      863.435
12/13/2014  17:25:00       70.803       59.826       71.942       55.021       57.364       46.760     3027.363     3290.577     2186.520        1.113        0.425       92.694       31.330        0.114      334.547        4.591      863.414
12/13/2014  17:26:00      188.948      106.575       82.338       98.698       64.610       65.787     9741.330     4174.462     4327.904        3.604        0.912      216.932       54.531        0.063      334.473        4.464      863.400
12/13/2014  17:27:00      167.943       94.935       42.897       93.420       58.853       50.352     8727.350     3463.667     2535.345        2.689        0.736      192.918       44.599        0.053      334.457        4.439      863.391
12/13/2014  17:28:00      178.000      116.231       20.422       66.713       56.402       40.963     4450.576     3181.137     1677.974        2.746        0.465      212.588       31.144        0.021      334.373        4.301      863.375
12/13/2014  17:29:00      181.080      126.639       24.165       75.052       53.211       48.863     5632.777     2831.358     2387.602        3.013        0.543      220.969       27.966        0.016      334.332        4.231      863.372
12/13/2014  17:30:00      157.161      105.928       30.253       77.035       60.653       52.076     5934.387     3678.792     2711.941        2.458        0.616      189.527       33.933        0.032      334.402        4.350      863.379
12/13/2014  17:31:00      225.000      161.260        4.181       72.647       69.976       42.744     5277.558     4896.689     1827.030        4.432        0.600      276.821       35.298        0.016      334.427        4.390      863.387
12/13/2014  17:32:00      115.998      172.766       -8.110       92.030       80.010       58.812     8469.469     6401.624     3458.885        3.085        0.916      208.095       48.887        0.055      334.564        4.616      863.399
12/13/2014  17:33:00       81.161      123.125       -4.936       92.171       72.076       41.609     8495.407     5194.996     1731.275        1.859        0.771      147.469       42.113        0.082      334.564        4.616      863.406
12/13/2014  17:34:00      103.063      104.888        9.339       74.569       51.850       52.818     5560.606     2688.413     2789.734        1.637        0.552      147.049       36.733        0.062      334.491        4.497      863.405
12/13/2014  17:35:00       58.338      107.203       -4.071       60.465       54.720       33.151     3655.966     2994.256     1099.006        1.133        0.387      122.048       30.918        0.064      334.532        4.566      863.416
12/13/2014  17:36:00       30.440      132.584      -28.027       46.266       75.045       24.900     2140.501     5631.721      619.998        1.384        0.420      136.033       25.021        0.034      334.612        4.697      863.410
12/13/2014  17:37:00       47.855       98.339       -1.952       48.979       46.471       37.997     2398.895     2159.560     1443.786        0.898        0.300      109.365       30.896        0.080      334.544        4.586      863.405
12/13/2014  17:38:00       30.187       86.958        7.396       36.663       67.199       33.151     1344.180     4515.692     1099.012        0.774        0.348       92.049       33.865        0.135      334.472        4.467      863.397
12/13/2014  17:39:00       16.013      117.852        0.448       50.060       88.546       41.901     2505.983     7840.478     1755.680        1.312        0.605      118.935       51.886        0.190      334.409        4.363      863.383
12/13/2014  17:40:00       38.254      156.063      -11.330       57.137       86.782       48.688     3264.588     7531.179     2370.489        1.955        0.658      160.683       55.890        0.121      334.330        4.229      863.384
12/13/2014  17:41:00       78.765      144.198       -3.767       48.388       82.849       56.907     2341.430     6863.889     3238.411        1.972        0.622      164.307       52.622        0.103      334.254        4.104      863.378
12/13/2014  17:42:00       97.851      157.588       -7.597       78.944       96.999       64.386     6232.177     9408.812     4145.494        2.712        0.989      185.496       61.578        0.110      334.368        4.294      863.370
12/13/2014  17:43:00       43.499      184.316      -35.765       32.810       51.830       29.985     1076.474     2686.334      899.112        2.090        0.233      189.380       25.787        0.019      334.405        4.354      863.386
12/13/2014  17:44:00      -27.398       97.099      -15.186       35.352       42.168       21.532     1249.731     1778.179      463.630        0.695        0.175      100.890       13.174        0.017      334.509        4.529      863.396
12/13/2014  17:45:00      -38.601       62.827      -18.836       46.222       40.344       17.700     2136.516     1627.660      313.281        0.493        0.204       73.738       17.640        0.057      334.444        4.423      863.417
12/13/2014  17:46:00      -39.957      128.150      -15.102       43.654       57.253       34.608     1905.668     3277.898     1197.722        1.231        0.319      134.235       32.071        0.057      334.406        4.357      863.438
12/13/2014  17:47:00      -18.478      169.007      -16.822       45.567       65.396       32.807     2076.365     4276.651     1076.287        1.831        0.371      170.014       29.438        0.030      334.462        4.449      863.434
12/13/2014  17:48:00      -24.066      280.196      -39.977       82.241       92.478       37.707     6763.648     8552.188     1421.827        4.871        0.837      281.227       43.894        0.024      334.431        4.396      863.440
12/13/2014  17:49:00      -34.755      193.976      -23.242       49.470       61.261       35.504     2447.263     3752.886     1260.535        2.342        0.373      197.065       38.455        0.038      334.427        4.390      863.448
12/13/2014  17:50:00      -30.659      220.994      -40.439       63.625       86.041       27.534     4048.108     7403.074      758.137        3.181        0.610      223.110       18.292        0.007      334.462        4.446      863.445
12/13/2014  17:51:00      -52.604       88.513      -19.189       53.199       57.511       31.078     2830.090     3307.459      965.844        0.904        0.355      102.965       23.997        0.054      334.525        4.555      863.464
12/13/2014  17:52:00      -73.464      127.519      -17.680       54.316       58.872       31.582     2950.236     3465.864      997.411        1.469        0.371      147.167       31.118        0.045      334.464        4.452      863.480
12/13/2014  17:53:00      -32.832       64.603       -2.707       79.302       65.414       27.936     6288.796     4279.011      780.412        0.830        0.567       72.467       34.513        0.227      334.504        4.520      863.480
12/13/2014  17:54:00        3.525      126.118      -16.161       42.260       66.203       25.060     1785.926     4382.863      627.979        1.149        0.340      126.167       30.595        0.059      334.388        4.328      863.488
12/13/2014  17:55:00       14.006      110.498      -19.363       46.670       49.003       19.256     2178.110     2401.273      370.791        0.886        0.248      111.382       19.481        0.031      334.316        4.209      863.496
12/13/2014  17:56:00       -0.975       94.819      -10.602       36.725       69.892       26.321     1348.689     4884.840      692.807        0.801        0.346       94.824       40.573        0.183      334.304        4.188      863.503
12/13/2014  17:57:00       36.120       86.390       -5.675       33.722       47.745       30.047     1137.160     2279.572      902.796        0.656        0.216       93.637       33.845        0.131      334.279        4.145      863.499
12/13/2014  17:58:00       65.555       56.886       -4.428       39.512       30.990       20.506     1561.230      960.353      420.493        0.525        0.147       86.796       19.123        0.049      334.309        4.196      863.499
12/13/2014  17:59:00       93.875       58.768       -0.960       26.903       26.407       19.817      723.757      697.320      392.728        0.704        0.091      110.753       13.078        0.014      334.273        4.137      863.500
12/13/2014  18:00:00       65.417       37.489        7.734       63.616       34.048       28.659     4046.934     1159.255      821.315        0.588        0.301       75.398       28.022        0.138      334.192        4.002      863.490
12/13/2014  18:01:00       54.758       82.682       -3.043       53.226       49.210       34.749     2833.054     2421.658     1207.477        0.815        0.323       99.170       30.189        0.093      334.209        4.031      863.487
12/13/2014  18:02:00       91.824       73.863       26.065       49.404       32.100       37.382     2440.764     1030.395     1397.429        0.972        0.243      117.845       23.446        0.040      334.150        3.932      863.490
12/13/2014  18:03:00      112.412       87.925       12.687       51.099       38.132       40.660     2611.112     1454.020     1653.236        1.312        0.286      142.714       23.492        0.027      334.100        3.851      863.479
12/13/2014  18:04:00       81.396       67.714        5.601       49.505       39.810       38.867     2450.719     1584.872     1510.673        0.839        0.277      105.880       26.502        0.063      334.068        3.795      863.486
12/13/2014  18:05:00       29.408      129.493      -17.476       32.930       69.853       32.032     1084.404     4879.487     1026.034        1.246        0.349      132.790       40.852        0.095      334.157        3.943      863.509
12/13/2014  18:06:00       -7.910      184.709      -27.824       34.542       39.645       16.420     1193.134     1571.741      269.603        1.899        0.152      184.879       15.977        0.007      334.260        4.114      863.522
12/13/2014  18:07:00       -4.153      163.673      -25.071       20.459       31.065       16.515      418.573      965.057      272.754        1.455        0.083      163.725       15.338        0.009      334.193        4.002      863.537
12/13/2014  18:08:00       -7.946      177.586      -30.291       13.509       21.365       10.175      182.499      456.447      103.539        1.663        0.037      177.764        8.769        0.002      334.271        4.134      863.536
12/13/2014  18:09:00       -8.683      165.369      -27.012       13.130       17.944       11.714      172.409      321.984      137.220        1.439        0.032      165.597        6.008        0.001      334.274        4.137      863.536
12/13/2014  18:10:00        5.549      144.853      -26.600       15.871       16.039       10.596      251.877      257.234      112.265        1.117        0.031      144.959        6.995        0.002      334.225        4.056      863.537
12/13/2014  18:11:00       -0.974      154.973      -27.583       21.572       26.739       13.765      465.350      714.972      189.472        1.307        0.068      154.976       11.929        0.006      334.198        4.012      863.547
12/13/2014  18:12:00       -6.045      155.352      -28.574       35.599       32.227       14.665     1267.296     1038.585      215.074        1.375        0.126      155.470       13.977        0.008      334.176        3.976      863.565
12/13/2014  18:13:00        4.029      222.036      -31.873       29.352       44.970       17.834      861.511     2022.328      318.066        2.677        0.160      222.073       17.129        0.006      334.220        4.044      863.573
12/13/2014  18:14:00       -9.691      237.945      -37.540       22.758       33.655       13.576      517.941     1132.685      184.305        2.998        0.092      238.143        6.881        0.001      334.202        4.014      863.580
12/13/2014  18:15:00       -9.286      203.051      -32.685       26.874       30.212       18.715      722.212      912.778      350.253        2.218        0.099      203.263       16.097        0.006      334.199        4.011      863.593
12/13/2014  18:16:00        0.058      190.961      -30.904       31.867       39.994       18.546     1015.505     1599.538      343.971        2.019        0.148      190.961       16.033        0.007      334.102        3.850      863.606
12/13/2014  18:17:00      -49.338      184.535      -13.551       40.881       44.880       23.816     1671.283     2014.193      567.202        2.046        0.213      191.017       18.595        0.009      334.181        3.982      863.622
12/13/2014  18:18:00       -8.810      179.724      -24.515       29.063       51.636       19.704      844.646     2666.298      388.243        1.844        0.195      179.939       18.291        0.010      334.121        3.881      863.627
12/13/2014  18:19:00      -40.938      205.273      -31.527       29.697       43.346       19.886      881.939     1878.855      395.442        2.398        0.158      209.315       13.430        0.004      334.172        3.965      863.627
12/13/2014  18:20:00      -47.195      178.603      -19.832       37.223       79.944       29.061     1385.532     6390.974      844.557        2.157        0.431      184.733       36.376        0.039      334.155        3.938      863.621
12/13/2014  18:21:00      -65.638      128.590      -13.960       42.698       56.980       39.241     1823.089     3246.769     1539.840        1.382        0.330      144.373       37.466        0.067      334.256        4.108      863.629
12/13/2014  18:22:00      -90.251      193.664      -29.655       43.120       45.028       29.433     1859.375     2027.483      866.298        2.564        0.238      213.660       22.260        0.011      334.133        3.901      863.627
12/13/2014  18:23:00     -104.550      170.974      -24.127       42.415       63.991       33.310     1799.064     4094.865     1109.564        2.387        0.350      200.406       28.994        0.021      334.167        3.958      863.616
12/13/2014  18:24:00     -108.555      195.434      -29.332       47.338       58.596       32.256     2240.903     3433.442     1040.421        2.878        0.336      223.559       29.217        0.017      334.146        3.924      863.601
12/13/2014  18:25:00      -92.823      166.348      -31.114       35.688       49.559       22.485     1273.622     2456.057      505.597        2.074        0.212      190.493       12.477        0.004      334.158        3.943      863.591
12/13/2014  18:26:00      -99.309      182.488      -32.906       44.051       44.725       28.990     1940.450     2000.286      840.407        2.451        0.239      207.760       22.099        0.011      334.206        4.022      863.585
12/13/2014  18:27:00     -121.231      179.240      -34.099       48.039       43.290       32.392     2307.783     1874.011     1049.260        2.661        0.262      216.388       29.561        0.019      334.128        3.893      863.576
12/13/2014  18:28:00     -104.426      162.542      -35.172       52.203       49.388       28.134     2725.174     2439.199      791.506        2.226        0.298      193.196       24.621        0.016      334.174        3.970      863.587
12/13/2014  18:29:00     -117.577      209.104      -28.512       60.309       69.112       37.074     3637.177     4776.467     1374.447        3.407        0.489      239.893       32.349        0.018      334.154        3.934      863.607
12/13/2014  18:30:00     -113.467      223.656      -35.191       49.316       56.460       38.556     2432.107     3187.781     1486.595        3.562        0.355      250.792       31.154        0.015      334.162        3.949      863.629
12/13/2014  18:31:00     -111.536      153.434      -27.096       41.720       64.885       34.511     1740.524     4210.045     1190.975        2.193        0.357      189.690       32.688        0.030      334.221        4.047      863.642
12/13/2014  18:32:00     -155.060      155.289      -30.841       62.866       64.165       35.789     3952.074     4117.111     1280.870        2.923        0.468      219.450       40.559        0.034      334.242        4.082      863.654
12/13/2014  18:33:00     -139.651      146.536      -34.120       67.354       66.046       39.786     4536.588     4362.015     1582.916        2.631        0.524      202.423       31.975        0.025      334.193        4.002      863.682
12/13/2014  18:34:00     -121.778      155.344      -32.987       62.938       87.184       47.306     3961.251     7600.998     2237.903        2.692        0.690      197.387       52.579        0.071      334.177        3.976      863.693
12/13/2014  18:35:00     -163.692      185.742      -47.097       47.390       65.943       43.937     2245.772     4348.535     1930.496        3.602        0.426      247.579       33.648        0.018      334.137        3.904      863.692
12/13/2014  18:36:00     -170.305      155.339      -41.224       56.469       51.208       39.609     3188.727     2622.310     1568.854        3.111        0.369      230.508       27.697        0.014      334.174        3.969      863.687
12/13/2014  18:37:00     -178.523      192.095      -55.715       54.229       77.810       31.312     2940.833     6054.424      980.438        4.092        0.499      262.242       37.548        0.021      334.189        3.992      863.687
12/13/2014  18:38:00      -84.100      154.253      -21.275       46.814       54.565       35.417     2191.544     2977.307     1254.352        1.887        0.321      175.689       23.715        0.018      334.164        3.955      863.679
12/13/2014  18:39:00     -130.187      156.774      -33.281       52.039       66.490       37.654     2708.009     4420.913     1417.855        2.559        0.427      203.781       35.087        0.030      334.205        4.021      863.686
12/13/2014  18:40:00     -107.295      144.144      -27.675       61.381       61.446       37.982     3767.633     3775.575     1442.665        2.102        0.449      179.694       39.988        0.050      334.153        3.935      863.673
12/13/2014  18:41:00      -83.651      146.095      -29.125       47.836       60.287       34.602     2288.316     3634.471     1197.328        1.815        0.356      168.349       30.416        0.033      334.192        4.001      863.665
12/13/2014  18:42:00     -100.811      185.543      -31.032       44.315       71.642       35.883     1963.825     5132.532     1287.577        2.697        0.419      211.161       26.624        0.016      334.217        4.040      863.681
12/13/2014  18:43:00     -102.084      176.642      -24.468       62.523       69.672       33.112     3909.161     4854.174     1096.392        2.604        0.493      204.018       34.589        0.029      334.172        3.967      863.688
12/13/2014  18:44:00      -83.374      170.957      -19.787       45.754       49.695       34.954     2093.452     2469.553     1221.806        2.118        0.289      190.203       30.041        0.025      334.145        3.923      863.710
12/13/2014  18:45:00      -98.894      180.093      -29.040       69.892       59.598       35.326     4884.877     3551.933     1247.948        2.637        0.484      205.459       34.401        0.028      334.162        3.950      863.728
12/13/2014  18:46:00      -87.144      151.716      -23.048       56.468       64.063       33.315     3188.647     4104.074     1109.861        1.977        0.420      174.963       34.222        0.038      334.132        3.899      863.743
12/13/2014  18:47:00      -35.524      101.430       -9.631       33.259       56.819       25.012     1106.160     3228.426      625.613        0.830        0.248      107.471       24.307        0.051      334.218        4.044      863.757
12/13/2014  18:48:00      -55.571       63.640       -9.304       50.874       45.252       27.482     2588.153     2047.722      755.278        0.631        0.270       84.488       25.329        0.090      334.158        3.945      863.769
12/13/2014  18:49:00      -51.281       82.274      -10.702       44.170       47.646       28.421     1950.954     2270.182      807.776        0.727        0.251       96.947       32.217        0.110      334.075        3.808      863.779
12/13/2014  18:50:00      -49.831      185.113      -25.732       42.409       56.257       32.942     1798.553     3164.868     1085.150        2.173        0.302      191.703       31.308        0.027      334.056        3.775      863.788
12/13/2014  18:51:00      -22.824      126.293      -12.970       33.060       43.923       25.063     1092.985     1929.209      628.162        1.014        0.183      128.339       20.321        0.025      333.983        3.655      863.801
12/13/2014  18:52:00      -61.807      142.929      -22.841       56.464       60.805       26.612     3188.192     3697.265      708.222        1.618        0.380      155.721       29.849        0.037      334.056        3.776      863.801
12/13/2014  18:53:00      -62.303      114.926      -16.982       32.640       54.091       25.135     1065.352     2925.840      631.783        1.100        0.231      130.727       27.333        0.044      334.050        3.766      863.806
12/13/2014  18:54:00      -76.616      108.284      -13.297       43.270       49.988       28.045     1872.273     2498.790      786.535        1.146        0.258      132.647       15.563        0.014      334.072        3.802      863.821
12/13/2014  18:55:00      -69.521       99.175      -19.528       49.708       44.521       27.442     2470.924     1982.080      753.078        1.013        0.260      121.115       18.863        0.024      334.035        3.742      863.833
12/13/2014  18:56:00      -76.602       68.679      -15.504       35.451       54.287       24.438     1256.743     2947.044      597.219        0.781        0.240      102.882       23.339        0.051      334.048        3.764      863.837
12/13/2014  18:57:00     -101.127      173.786      -28.915       52.666       71.249       31.408     2773.696     5076.452      986.493        2.505        0.442      201.067       27.740        0.019      333.966        3.626      863.838
12/13/2014  18:58:00      -78.028       82.434       -6.179       50.268       68.531       35.035     2526.834     4696.430     1227.483        1.068        0.423      113.506       29.731        0.069      333.973        3.640      863.831
12/13/2014  18:59:00      -89.008       56.370      -17.247       29.280       48.488       28.562      857.343     2351.116      815.777        0.771        0.201      105.357       15.370        0.021      333.989        3.667      863.818
12/13/2014  19:00:00      -35.159      -22.993       -2.997       45.935       33.051       24.424     2109.986     1092.386      596.538        0.279        0.190       42.010       23.024        0.300      333.990        3.667      863.795
12/13/2014  19:01:00      -68.791       -6.498       -1.421       39.981       37.345       24.301     1598.456     1394.656      590.519        0.418        0.179       69.097       21.782        0.099      333.913        3.541      863.787
12/13/2014  19:02:00      -37.773        7.223       -5.401       35.447       63.026       33.170     1256.525     3972.287     1100.256        0.392        0.316       38.457       26.130        0.462      333.961        3.620      863.779
12/13/2014  19:03:00      -31.943       -5.568      -13.823       60.959       43.030       32.043     3715.990     1851.567     1026.778        0.392        0.330       32.424       31.967        0.972      333.954        3.609      863.776
12/13/2014  19:04:00      -34.314        0.760        0.320       38.626       49.043       24.798     1491.947     2405.254      614.947        0.284        0.226       34.322       17.175        0.250      333.990        3.668      863.769
12/13/2014  19:05:00      -35.626      -18.168       -2.938       57.145       39.481       28.038     3265.570     1558.780      786.106        0.361        0.281       39.991       27.624        0.477      334.028        3.730      863.778
12/13/2014  19:06:00      -44.081        1.391        5.171       58.297       46.021       24.683     3398.489     2117.898      609.259        0.405        0.306       44.103       24.367        0.305      333.938        3.582      863.763
12/13/2014  19:07:00      -43.327      -13.133       -0.156       41.166       26.362       17.599     1694.613      694.961      309.737        0.237        0.135       45.274       23.303        0.265      333.895        3.510      863.749
12/13/2014  19:08:00      -81.818      -24.515        0.885       51.913       54.897       32.771     2694.936     3013.709     1073.916        0.704        0.339       85.411       28.117        0.108      333.731        3.239      863.750
12/13/2014  19:09:00      -96.889      -57.625       -4.298       41.130       43.679       25.791     1691.683     1907.817      665.195        0.849        0.213      112.731       20.303        0.032      333.598        3.018      863.741
12/13/2014  19:10:00      -56.675       14.484       -8.857       24.341       22.890       12.486      592.468      523.953      155.907        0.239        0.064       58.497        8.296        0.020      333.607        3.033      863.742
12/13/2014  19:11:00      -88.164      -17.942      -11.932       28.099       29.571       17.686      789.540      874.468      312.792        0.511        0.099       89.971        9.058        0.010      333.711        3.207      863.741
12/13/2014  19:12:00      -39.417       -7.175        1.299       21.622       23.684       14.301      467.496      560.913      204.522        0.142        0.062       40.064       11.633        0.084      333.723        3.226      863.744
12/13/2014  19:13:00      -23.555       -4.554       -1.192       37.976       26.633       12.763     1442.164      709.319      162.903        0.145        0.116       23.991        9.709        0.164      333.742        3.258      863.744
12/13/2014  19:14:00       42.897       32.671        3.234       23.780       26.838       19.906      565.509      720.265      396.241        0.230        0.084       53.922       14.196        0.069      333.750        3.268      863.747
12/13/2014  19:15:00       47.688       69.542       -2.800       74.850       45.785       22.317     5602.482     2096.272      498.055        0.766        0.410       84.322       33.373        0.157      333.797        3.347      863.747
12/13/2014  19:16:00       38.224       64.218        2.935       47.312       26.992       20.592     2238.382      728.556      424.049        0.449        0.170       74.733       25.197        0.114      333.689        3.169      863.749
12/13/2014  19:17:00       48.238       34.392       16.054       36.949       22.164       18.590     1365.229      491.224      345.603        0.298        0.110       59.243        6.936        0.014      333.650        3.103      863.742
12/13/2014  19:18:00       78.980       37.730       12.650       43.812       29.293       23.265     1919.471      858.073      541.245        0.557        0.166       87.529       12.615        0.021      333.629        3.068      863.734
12/13/2014  19:19:00       43.754       68.095      -12.982       32.654       26.105       21.139     1066.280      681.450      446.865        0.446        0.110       80.941       16.321        0.041      333.639        3.085      863.734
12/13/2014  19:20:00       29.504       40.275       -4.607       24.992       29.579       17.621      624.592      874.896      310.496        0.216        0.090       49.925       19.940        0.160      333.603        3.027      863.728
12/13/2014  19:21:00       -2.277      114.575      -19.442       21.766       30.140       13.855      473.766      908.393      191.964        0.754        0.079      114.598       14.266        0.015      333.617        3.049      863.727
12/13/2014  19:22:00       23.480       79.135      -15.850       21.773       30.939       10.652      474.075      957.236      113.468        0.430        0.077       82.545       11.418        0.019      333.575        2.979      863.727
12/13/2014  19:23:00       -5.880       86.953      -16.029       15.405       19.196       11.868      237.325      368.485      140.854        0.430        0.037       87.152       10.648        0.015      333.667        3.132      863.719
12/13/2014  19:24:00      -23.468      112.979      -19.807       20.600       24.559       12.455      424.344      603.152      155.125        0.744        0.059      115.391        7.037        0.004      333.680        3.152      863.718
12/13/2014  19:25:00      -32.651       94.795      -13.229       22.214       42.545       20.078      493.441     1810.112      403.109        0.647        0.135      100.260       19.312        0.037      333.611        3.038      863.727
12/13/2014  19:26:00      -83.171       20.617       -5.941       33.207       23.025       20.745     1102.692      530.148      430.352        0.472        0.103       85.688       16.144        0.035      333.595        3.012      863.734
12/13/2014  19:27:00     -122.646       20.656      -10.602       25.005       21.764       13.261      625.230      473.693      175.859        0.843        0.064      124.373        8.994        0.005      333.613        3.043      863.753
12/13/2014  19:28:00     -138.288       -3.110      -24.366       22.014       30.819       16.764      484.611      949.810      281.045        1.072        0.086      138.323       15.052        0.012      333.552        2.941      863.772
12/13/2014  19:29:00     -114.710       12.709      -14.570       39.547       38.276       24.410     1563.983     1465.077      595.841        0.858        0.181      115.412       14.378        0.016      333.610        3.038      863.772
12/13/2014  19:30:00     -112.646       19.438      -12.075       37.954       44.438       28.924     1440.501     1974.710      836.588        0.873        0.213      114.310       16.442        0.021      333.608        3.034      863.781
12/13/2014  19:31:00      -84.107       -6.488       -0.860       44.211       25.760       28.349     1954.572      663.578      803.656        0.527        0.171       84.357       27.705        0.108      333.548        2.935      863.767
12/13/2014  19:32:00     -107.886        9.845      -15.414       31.875       41.797       21.219     1016.036     1747.015      450.252        0.759        0.161      108.334       19.874        0.034      333.683        3.159      863.758
12/13/2014  19:33:00     -104.769       12.426      -12.931       40.366       45.899       26.010     1629.393     2106.726      676.510        0.785        0.221      105.503       20.148        0.036      333.652        3.108      863.754
12/13/2014  19:34:00     -128.598        1.613       -9.011       46.642       41.391       26.874     2175.485     1713.176      722.224        1.062        0.231      128.608       22.187        0.030      333.582        2.991      863.752
12/13/2014  19:35:00     -119.468       19.850      -12.853       34.055       50.806       27.333     1159.748     2581.239      747.105        0.966        0.224      121.106       23.971        0.039      333.672        3.140      863.752
12/13/2014  19:36:00     -115.590       86.635      -32.807       30.283       42.789       24.342      917.061     1830.860      592.520        1.264        0.167      144.453       20.116        0.019      333.738        3.250      863.757
12/13/2014  19:37:00     -114.382       79.498      -19.831       45.585       48.677       34.479     2077.989     2369.405     1188.825        1.272        0.282      139.296       27.538        0.039      333.793        3.341      863.759
12/13/2014  19:38:00     -134.940       72.467      -24.816       47.974       47.332       31.213     2301.543     2240.346      974.227        1.480        0.276      153.167       20.751        0.018      333.788        3.332      863.766
12/13/2014  19:39:00      -91.881       56.100       -9.284       59.410       38.532       29.712     3529.519     1484.721      882.813        0.879        0.295      107.653       23.070        0.046      333.753        3.274      863.782
12/13/2014  19:40:00     -109.423       66.019      -15.937       59.025       38.121       31.137     3483.930     1453.214      969.531        1.125        0.295      127.796       24.621        0.037      333.804        3.357      863.788
12/13/2014  19:41:00     -103.644       19.294      -15.114       29.621       43.584       14.995      877.395     1899.531      224.855        0.717        0.150      105.425        9.570        0.008      333.852        3.440      863.785
12/13/2014  19:42:00      -66.121      -39.949       -8.803       33.250       30.450       23.595     1105.543      927.210      556.728        0.432        0.129       77.252       16.596        0.046      333.710        3.203      863.793
12/13/2014  19:43:00     -100.336      -16.415       -9.933       30.068       32.653       22.134      904.080     1066.198      489.917        0.645        0.123      101.670       14.447        0.020      333.653        3.109      863.801
12/13/2014  19:44:00      -95.969      -42.499       -7.830       40.606       37.080       20.178     1648.846     1374.894      407.168        0.725        0.172      104.958       10.723        0.010      333.603        3.027      863.813
12/13/2014  19:45:00      -99.619      -17.287      -13.670       44.225       35.669       34.113     1955.813     1272.269     1163.711        0.740        0.220      101.108        3.400        0.001      333.564        2.960      863.826
12/13/2014  19:46:00      -58.823      -20.698       -7.677       34.289       41.192       19.130     1175.766     1696.756      365.944        0.359        0.162       62.358       15.844        0.065      333.542        2.925      863.831
12/13/2014  19:47:00      -77.323        9.907       -5.568       43.373       26.274       15.403     1881.190      690.327      237.253        0.446        0.140       77.955       13.982        0.032      333.532        2.908      863.837
12/13/2014  19:48:00     -119.697       31.267      -21.619       32.952       67.135       25.678     1085.814     4507.067      659.356        1.101        0.313      123.714       33.674        0.074      333.577        2.981      863.833
12/13/2014  19:49:00     -116.436       35.684      -20.308       32.374       73.287       23.692     1048.104     5370.933      561.305        1.111        0.349      121.781       30.152        0.061      333.597        3.014      863.833
12/13/2014  19:50:00     -118.595       -1.230       -5.740       53.935       62.278       27.429     2908.984     3878.517      752.352        1.082        0.377      118.601       29.681        0.063      333.509        2.869      863.842
12/13/2014  19:51:00     -130.554       11.277      -16.214       51.399       38.677       32.480     2641.812     1495.921     1054.946        1.131        0.260      131.040       32.014        0.060      333.443        2.760      863.854
12/13/2014  19:52:00      -94.951       20.361      -12.640       41.924       36.586       21.640     1757.612     1338.505      468.290        0.658        0.178       97.110       13.906        0.021      333.458        2.784      863.864
12/13/2014  19:53:00     -101.302        1.353      -17.603       44.383       37.994       19.719     1969.849     1443.559      388.825        0.719        0.190      101.311       18.413        0.033      333.444        2.762      863.873
12/13/2014  19:54:00      -67.512      -53.154        1.628       26.729       38.570       15.641      714.436     1487.630      244.649        0.492        0.122       85.925       13.383        0.024      333.402        2.692      863.881
12/13/2014  19:55:00      -35.429       11.078       -6.704       16.953       44.234       21.458      287.413     1956.610      460.437        0.206        0.135       37.120       18.049        0.236      333.441        2.757      863.882
12/13/2014  19:56:00      -76.564       88.162      -18.024       42.284       44.532       29.814     1787.933     1983.060      888.859        0.931        0.233      116.767       17.338        0.022      333.474        2.811      863.878
12/13/2014  19:57:00      -77.845       44.333      -11.213       31.105       43.835       20.068      967.533     1921.546      402.723        0.572        0.165       89.584       19.759        0.049      333.472        2.808      863.875
12/13/2014  19:58:00      -58.824        6.044       -3.197       39.160       22.277       19.285     1533.506      496.282      371.899        0.295        0.120       59.133       23.859        0.163      333.418        2.720      863.862
12/13/2014  19:59:00      -42.052       30.589       -8.488       26.388       47.564       23.320      696.339     2262.307      543.826        0.314        0.175       52.000       15.114        0.084      333.353        2.612      863.858
12/13/2014  20:00:00      -56.844       19.022       -3.848       21.830       24.713       11.774      476.567      610.716      138.636        0.242        0.061       59.943        8.130        0.018      333.408        2.703      863.857
12/13/2014  20:01:00     -101.751       -9.247      -13.390       16.968       24.548       11.424      287.920      602.624      130.496        0.582        0.051      102.171        9.149        0.008      333.371        2.642      863.849
12/13/2014  20:02:00      -99.379      -31.730      -10.427       25.316       26.450       13.453      640.888      699.597      180.983        0.626        0.076      104.322        6.703        0.004      333.356        2.615      863.833
12/13/2014  20:03:00      -99.249      -34.342      -10.130       45.675       38.039       19.889     2086.172     1446.955      395.578        0.753        0.196      105.023       13.897        0.018      333.312        2.543      863.823
12/13/2014  20:04:00      -99.289       -3.509      -13.653       28.798       41.580       20.268      829.352     1728.936      410.776        0.651        0.148       99.351       20.052        0.041      333.333        2.578      863.815
12/13/2014  20:05:00     -141.734       -8.894      -19.675       41.346       35.972       16.590     1709.511     1293.949      275.229        1.192        0.164      142.013       18.743        0.017      333.291        2.508      863.804
12/13/2014  20:06:00     -137.123      -56.301       -9.921       36.451       33.030       22.351     1328.669     1090.962      499.550        1.249        0.146      148.231       18.510        0.016      333.149        2.274      863.787
12/13/2014  20:07:00     -132.848      -33.711      -10.247       38.213       26.836       25.143     1460.196      720.148      632.167        1.085        0.141      137.059       24.890        0.033      333.147        2.272      863.767
12/13/2014  20:08:00     -137.148      -23.071      -15.277       35.557       32.041       23.679     1264.331     1026.607      560.682        1.121        0.143      139.075       16.473        0.014      333.066        2.137      863.761
12/13/2014  20:09:00     -118.431      -18.752      -18.574       40.789       36.533       22.972     1663.728     1334.668      527.696        0.912        0.176      119.907       11.594        0.009      333.136        2.252      863.742
12/13/2014  20:10:00      -86.283       60.815      -10.023       47.501       71.034       31.610     2256.322     5045.823      999.174        0.977        0.415      105.561       28.348        0.072      333.239        2.424      863.729
12/13/2014  20:11:00      -74.990       25.451      -15.962       33.401       51.710       28.181     1115.609     2673.959      794.171        0.555        0.229       79.191       17.409        0.048      333.375        2.647      863.727
12/13/2014  20:12:00      -55.043       -3.862      -12.546       43.409       60.125       36.130     1884.360     3615.071     1305.342        0.500        0.340       55.179       28.229        0.262      333.431        2.740      863.744
12/13/2014  20:13:00      -62.474        5.429       -2.680       43.922       51.853       21.205     1929.138     2688.783      449.663        0.450        0.253       62.709       15.626        0.062      333.331        2.574      863.763
12/13/2014  20:14:00     -121.980      -23.588      -12.987       34.917       37.271       24.451     1219.211     1389.161      597.844        0.940        0.160      124.240       17.738        0.020      333.342        2.594      863.773
12/13/2014  20:15:00     -108.051      -49.984      -24.485       33.474       38.331       21.592     1120.489     1469.232      466.206        0.891        0.153      119.052        8.792        0.005      333.324        2.564      863.780
12/13/2014  20:16:00      -88.742      -21.406       -3.416       40.374       31.731       26.763     1630.061     1006.871      716.281        0.585        0.168       91.287       18.217        0.040      333.256        2.450      863.781
12/13/2014  20:17:00      -96.050      -27.487      -19.928       31.107       30.836       20.035      967.646      950.869      401.417        0.635        0.116       99.906        7.991        0.006      333.323        2.563      863.793
12/13/2014  20:18:00     -114.871      -39.030       -8.108       44.521       35.880       29.494     1982.127     1287.364      869.915        0.946        0.207      121.320       26.881        0.049      333.329        2.573      863.796
12/13/2014  20:19:00     -105.114        7.932      -14.758       31.643       21.797       16.252     1001.301      475.128      264.127        0.653        0.087      105.413       12.123        0.013      333.306        2.534      863.797
12/13/2014  20:20:00      -83.438      -22.094       -9.404       16.988       20.828       11.536      288.595      433.788      133.078        0.420        0.043       86.313        8.892        0.011      333.285        2.499      863.802
12/13/2014  20:21:00      -92.632      -27.552      -12.366       16.243       16.513       11.495      263.819      272.684      132.142        0.508        0.033       96.643        6.013        0.004      333.304        2.532      863.809
12/13/2014  20:22:00      -88.626      -12.603       -9.047       22.854       24.927       18.782      522.316      621.379      352.767        0.480        0.075       89.517       16.016        0.032      333.253        2.446      863.822
12/13/2014  20:23:00      -76.870      -17.002       -9.216       40.840       16.222       14.183     1667.876      263.147      201.158        0.421        0.107       78.727       15.353        0.038      333.186        2.335      863.826
12/13/2014  20:24:00      -74.887      -30.671       -9.802       26.767       25.410       11.659      716.464      645.652      135.942        0.407        0.075       80.924        6.781        0.007      333.253        2.446      863.819
12/13/2014  20:25:00      -53.972      -11.870       -0.759       32.297       22.049       15.039     1043.101      486.171      226.169        0.240        0.088       55.262       18.420        0.111      333.166        2.302      863.815
12/13/2014  20:26:00     -102.325        1.460      -14.257       20.825       16.813       12.462      433.663      282.686      155.295        0.577        0.044      102.335       10.027        0.010      333.262        2.461      863.822
12/13/2014  20:27:00      -63.815      -13.167       -6.454       26.424       21.245       12.944      698.221      451.362      167.537        0.280        0.066       65.159        9.049        0.019      333.171        2.309      863.821
12/13/2014  20:28:00      -32.115       -6.139        1.960       34.996       21.088       13.821     1224.724      444.694      191.027        0.147        0.093       32.696       14.308        0.192      333.183        2.331      863.814
12/13/2014  20:29:00       -7.943      -14.858       -5.204       11.734       18.316        7.848      137.691      335.475       61.597        0.042        0.027       16.848        9.173        0.296      333.148        2.273      863.812
12/13/2014  20:30:00       -1.335       25.602       39.530       10.737       29.985       23.232      115.291      899.121      539.740        0.189        0.078       25.637       23.625        0.849      333.110        2.208      863.816
12/13/2014  20:31:00       62.587       51.272       51.082       47.668       32.323       28.090     2272.195     1044.801      789.052        0.663        0.205       80.907       28.150        0.121      333.126        2.237      863.820
12/13/2014  20:32:00       21.529        7.506       36.512       48.337       34.547       29.606     2336.445     1193.479      876.496        0.313        0.220       22.800       20.645        0.820      333.076        2.156      863.840
12/13/2014  20:33:00       23.369       10.494       60.608       46.118       57.180       40.341     2126.915     3269.579     1627.380        0.568        0.351       25.617       36.856        2.070      333.037        2.090      863.860
12/13/2014  20:34:00       96.452     -108.933      -16.150       53.546       68.904       38.253     2867.217     4747.695     1463.274        1.525        0.454      145.497       43.208        0.088      333.102        2.197      863.859
12/13/2014  20:35:00      107.840     -115.226      -29.466       62.272       71.149       34.336     3877.792     5062.197     1178.978        1.794        0.506      157.817       36.685        0.054      333.129        2.240      863.853
12/13/2014  20:36:00       74.603     -107.623      -36.804       61.660       70.914       37.206     3801.987     5028.755     1384.306        1.436        0.511      130.951       23.962        0.033      333.139        2.257      863.848
12/13/2014  20:37:00       59.364      -86.591      -17.036       59.598       54.751       32.736     3551.958     2997.629     1071.630        0.947        0.381      104.986       29.497        0.079      333.168        2.305      863.852
12/13/2014  20:38:00       32.106      -38.682        8.051       42.653       48.918       37.353     1819.278     2392.929     1395.240        0.410        0.280       50.270       34.109        0.460      333.199        2.356      863.845
12/13/2014  20:39:00       50.133      -61.748        9.842       55.168       43.783       30.266     3043.547     1916.991      916.046        0.615        0.294       79.537       27.912        0.123      333.338        2.587      863.831
12/13/2014  20:40:00       60.824     -115.864      -15.270       42.748       48.659       33.097     1827.416     2367.747     1095.413        1.132        0.265      130.858       20.880        0.025      333.486        2.832      863.812
12/13/2014  20:41:00       61.952     -101.976      -11.322       52.263       51.469       40.119     2731.418     2649.014     1609.523        1.068        0.349      119.319       36.747        0.095      333.468        2.802      863.807
12/13/2014  20:42:00       17.728       -2.314       29.149       28.238       33.189       20.204      797.385     1101.501      408.187        0.174        0.115       17.879       16.463        0.848      333.210        2.374      863.799
12/13/2014  20:43:00       49.296      -44.526        7.342       37.344       41.976       26.250     1394.583     1762.016      689.056        0.416        0.192       66.428       29.312        0.195      333.232        2.412      863.780
12/13/2014  20:44:00        8.670       18.262       38.900       18.722       22.942       19.705      350.498      526.320      388.291        0.159        0.063       20.215       15.999        0.626      333.173        2.314      863.766
12/13/2014  20:45:00       -5.239       12.630       37.404       14.217       19.094        9.229      202.121      364.569       85.174        0.112        0.033       13.674        7.140        0.273      333.186        2.336      863.759
12/13/2014  20:46:00       -6.548        8.491       24.721        8.171       10.797       10.403       66.770      116.569      108.221        0.051        0.015       10.722        7.381        0.474      333.200        2.358      863.744
12/13/2014  20:47:00       29.755       25.356       -4.027       14.843       16.228       17.921      220.312      263.356      321.171        0.117        0.040       39.093       13.797        0.125      333.100        2.194      863.735
12/13/2014  20:48:00       16.203       18.577       -8.845       15.757       12.192       14.260      248.285      148.636      203.345        0.064        0.030       24.651       10.483        0.181      332.928        1.911      863.742
12/13/2014  20:49:00      -11.787       12.326      -11.385        8.798        9.976        6.779       77.413       99.519       45.949        0.032        0.011       17.055        2.524        0.022      332.896        1.859      863.752
12/13/2014  20:50:00      -13.151       -8.460       -9.925        7.738       11.430        9.064       59.873      130.634       82.158        0.031        0.014       15.637        2.312        0.022      333.033        2.082      863.761
12/13/2014  20:51:00      -34.019      -13.138        1.628        7.917        9.371        7.952       62.684       87.821       63.240        0.077        0.011       36.468        4.800        0.017      333.092        2.181      863.774
12/13/2014  20:52:00      -27.634        2.418       -6.827       20.448       17.019        8.642      418.131      289.661       74.677        0.080        0.039       27.740        3.897        0.020      333.047        2.106      863.775
12/13/2014  20:53:00      -22.802       17.086        9.527       27.484       15.591       11.993      755.370      243.091      143.832        0.102        0.057       28.494       15.489        0.295      332.995        2.021      863.789
12/13/2014  20:54:00        6.678       18.799       19.047        6.952       10.149        5.728       48.326      102.995       32.815        0.047        0.009       19.950        2.881        0.021      332.903        1.869      863.803
12/13/2014  20:55:00      -14.456        5.907       16.795       15.263       15.346        8.167      232.948      235.506       66.698        0.053        0.027       15.616        2.906        0.035      332.913        1.885      863.815
12/13/2014  20:56:00      -29.344       -1.043       -3.803       15.748        9.983        9.447      247.999       99.652       89.242        0.066        0.022       29.362        5.352        0.033      332.975        1.989      863.830
12/13/2014  20:57:00      -49.044       14.876       -2.851       28.709       15.015        9.368      824.181      225.453       87.752        0.189        0.057       51.250        9.004        0.031      333.004        2.035      863.844
12/13/2014  20:58:00      -45.953       18.584       -2.812       17.516       11.018        9.989      306.813      121.391       99.773        0.150        0.026       49.568        7.213        0.021      332.951        1.947      863.863
12/13/2014  20:59:00      -66.991      -22.920       -2.594       25.693       23.494       11.203      660.112      551.963      125.512        0.318        0.067       70.803        9.018        0.016      332.685        1.508      863.860
12/13/2014  21:00:00     -108.899      -31.096       -5.513       39.616       29.594       16.421     1569.402      875.821      269.645        0.779        0.136      113.252       19.529        0.030      332.557        1.297      863.850
12/13/2014  21:01:00      -86.375      -15.962       -1.801       35.699       25.454       17.311     1274.425      647.908      299.687        0.497        0.111       87.837       17.337        0.039      332.462        1.140      863.835
12/13/2014  21:02:00      -88.534      -16.018       -1.110       27.357       24.242       14.599      748.389      587.688      213.144        0.482        0.077       89.971       13.993        0.024      332.503        1.206      863.821
12/13/2014  21:03:00      -79.650        5.560       -4.506       35.563       35.750       22.704     1264.692     1278.030      515.471        0.473        0.153       79.844       19.729        0.061      332.552        1.290      863.813
12/13/2014  21:04:00      -78.360       -7.406       -5.224       29.696       25.336       18.067      881.830      641.930      326.414        0.404        0.093       78.710       17.440        0.049      332.614        1.392      863.797
12/13/2014  21:05:00      -73.965        7.041       -8.404       29.017       23.978       16.559      841.971      574.958      274.207        0.364        0.085       74.300       11.603        0.024      332.651        1.451      863.789
12/13/2014  21:06:00      -87.113      -17.440      -12.196       24.144       18.598       11.246      582.909      345.902      126.474        0.455        0.053       88.842        9.775        0.012      332.662        1.470      863.783
12/13/2014  21:07:00      -75.965      -31.745       -5.730       31.010       17.199       11.036      961.592      295.815      121.790        0.409        0.069       82.331       13.089        0.025      332.499        1.200      863.784
12/13/2014  21:08:00      -89.928      -20.555       -8.827       36.332       33.717       19.413     1319.988     1136.868      376.853        0.571        0.142       92.247       18.615        0.041      332.344        0.944      863.784
12/13/2014  21:09:00      -58.207       -8.574       -1.747       38.166       23.423       18.951     1456.640      548.616      359.158        0.291        0.118       58.835       16.658        0.080      332.298        0.869      863.787
12/13/2014  21:10:00      -74.325      -16.213       -0.819       30.810       19.389       12.455      949.275      375.923      155.116        0.363        0.074       76.073       11.915        0.025      332.348        0.952      863.784
12/13/2014  21:11:00      -89.103      -27.291       -8.113       15.626       19.506       13.252      244.184      380.468      175.618        0.477        0.040       93.189       10.526        0.013      332.387        1.016      863.785
12/13/2014  21:12:00      -61.366      -28.813       -5.944       20.723       15.786        9.738      429.456      249.209       94.836        0.270        0.039       67.794        9.664        0.020      332.385        1.015      863.776
12/13/2014  21:13:00      -67.421      -22.321       -8.121       13.883       14.155        9.679      192.747      200.358       93.689        0.280        0.024       71.020        6.942        0.010      332.281        0.843      863.755
12/13/2014  21:14:00      -64.638        1.134       -6.177        9.504       13.672       10.896       90.332      186.921      118.716        0.231        0.020       64.648        6.616        0.010      332.249        0.790      863.737
12/13/2014  21:15:00      -70.561       -7.567       -2.989       21.276       15.389       18.119      452.662      236.812      328.315        0.303        0.051       70.965       16.011        0.051      332.257        0.802      863.727
12/13/2014  21:16:00      -76.179       -2.325       -7.442       13.577       12.662       12.839      184.327      160.330      164.831        0.319        0.025       76.214        3.429        0.002      332.271        0.825      863.717
12/13/2014  21:17:00      -76.382       -1.503       -8.326       25.856       12.444       13.785      668.558      154.849      190.016        0.346        0.051       76.397       11.461        0.023      332.358        0.968      863.704
12/13/2014  21:18:00      -98.836        2.223       -9.150       10.227        8.648        7.974      104.582       74.781       63.580        0.505        0.012       98.861        5.811        0.003      332.369        0.987      863.696
12/13/2014  21:19:00      -88.380       -5.955       -8.950       16.710       10.059        9.806      279.209      101.176       96.162        0.420        0.024       88.580        8.241        0.009      332.289        0.854      863.690
12/13/2014  21:20:00      -82.647       -5.951       -7.795       21.461       15.026       13.419      460.570      225.782      180.062        0.390        0.043       82.861       13.406        0.026      332.277        0.835      863.670
12/13/2014  21:21:00      -89.563       -9.461      -12.246       16.900       16.339       10.537      285.598      266.972      111.023        0.446        0.033       90.061        7.828        0.008      332.254        0.798      863.666
12/13/2014  21:22:00      -75.926      -39.452       -8.885       18.413       19.408       12.048      339.046      376.676      145.156        0.413        0.043       85.564        6.577        0.006      332.304        0.879      863.653
12/13/2014  21:23:00      -56.233      -41.607       -5.762       20.825       19.694       12.924      433.663      387.848      167.020        0.296        0.049       69.952        6.088        0.008      332.267        0.818      863.644
12/13/2014  21:24:00      -61.727      -17.550      -12.774       16.382       14.796       12.654      268.385      218.935      160.130        0.246        0.032       64.173        4.651        0.005      332.246        0.786      863.635
12/13/2014  21:25:00      -81.439      -15.768      -13.499       11.325        8.888       13.470      128.260       78.993      181.429        0.373        0.019       82.952        4.862        0.003      332.205        0.716      863.638
12/13/2014  21:26:00      -97.886       -9.252      -11.796       18.547       16.658       15.231      343.993      277.497      231.985        0.533        0.043       98.323       11.337        0.013      332.160        0.643      863.655
12/13/2014  21:27:00     -109.634      -32.709      -14.836       27.898       19.050       11.522      778.302      362.920      132.762        0.729        0.064      114.410        9.757        0.007      332.144        0.616      863.675
12/13/2014  21:28:00     -108.437      -29.318       -9.800       22.985       27.228       12.517      528.328      741.380      156.678        0.707        0.071      112.330       11.300        0.010      332.055        0.469      863.696
12/13/2014  21:29:00      -78.992       -6.253       -2.604       27.618       20.231       19.192      762.733      409.298      368.336        0.391        0.077       79.239       14.268        0.032      332.016        0.404      863.708
12/13/2014  21:30:00      -93.179      -12.079       -6.862       36.678       20.431       16.386     1345.291      417.406      268.508        0.545        0.102       93.959       17.174        0.033      331.962        0.316      863.708
12/13/2014  21:31:00     -112.726      -30.445       -8.600       33.661       22.449       20.012     1133.054      503.977      400.472        0.787        0.102      116.765       19.988        0.029      331.929        0.261      863.706
12/13/2014  21:32:00      -89.284      -10.393       -4.167       44.897       29.454       20.806     2015.783      867.555      432.910        0.571        0.166       89.887       19.011        0.045      331.904        0.221      863.700
12/13/2014  21:33:00      -72.778       -3.515       -3.112       40.583       28.762       21.662     1647.017      827.241      469.244        0.413        0.147       72.863       22.054        0.092      331.948        0.293      863.688
12/13/2014  21:34:00      -79.146       -8.032       -6.380       33.455       27.134       16.614     1119.221      736.239      276.021        0.425        0.107       79.553       15.181        0.036      331.896        0.206      863.672
12/13/2014  21:35:00      -43.337      -17.165       -9.314       29.582       23.637       13.647      875.091      558.714      186.244        0.194        0.081       46.612       10.938        0.055      331.969        0.328      863.658
12/13/2014  21:36:00      -41.901      -15.841       -7.658       26.454       29.560       20.125      699.792      873.799      404.996        0.202        0.099       44.795       14.932        0.111      331.996        0.373      863.653
12/13/2014  21:37:00     -105.616       17.921       -7.266       58.345       43.700       27.928     3404.185     1909.719      779.964        0.881        0.305      107.126       30.362        0.080      331.941        0.280      863.670
12/13/2014  21:38:00     -139.665       31.601      -12.989       44.948       34.351       25.848     2020.313     1180.025      668.116        1.227        0.193      143.195       20.623        0.021      331.884        0.187      863.678
12/13/2014  21:39:00     -129.096       12.464      -15.133       38.257       31.666       23.836     1463.563     1002.759      568.161        1.004        0.152      129.696       16.018        0.015      331.881        0.182      863.673
12/13/2014  21:40:00     -113.533       17.994      -15.603       32.778       27.646       20.201     1074.418      764.289      408.097        0.785        0.112      114.950       11.282        0.010      331.856        0.142      863.668
12/13/2014  21:41:00     -142.401        6.399      -14.503       29.030       31.620       19.510      842.739      999.831      380.622        1.138        0.111      142.544       15.372        0.012      331.877        0.175      863.662
12/13/2014  21:42:00     -143.219       -3.364      -16.992       38.778       27.154       21.291     1503.727      737.360      453.304        1.175        0.135      143.258       22.542        0.025      331.817        0.077      863.672
12/13/2014  21:43:00     -139.148        7.751      -14.170       36.445       28.044       18.754     1328.247      786.457      351.706        1.104        0.123      139.364       16.305        0.014      331.828        0.096      863.672
12/13/2014  21:44:00     -124.739        3.490       -9.700       31.473       23.724       14.999      990.524      562.810      224.964        0.872        0.089      124.788       12.024        0.009      331.794        0.040      863.676
12/13/2014  21:45:00     -109.611        7.816       -9.759       35.546       35.504       19.686     1263.514     1260.568      387.550        0.754        0.146      109.889       11.117        0.010      331.827        0.094      863.687
12/13/2014  21:46:00     -128.119       13.751       -7.052       31.653       21.192       15.237     1001.897      449.101      232.162        0.917        0.084      128.855       12.349        0.009      331.782        0.019      863.693
12/13/2014  21:47:00     -161.656       14.724      -13.045       24.488       24.468       14.460      599.642      598.689      209.085        1.396        0.070      162.326       11.937        0.005      331.791        0.033      863.682
12/13/2014  21:48:00     -125.890      -15.312       -5.099       45.574       33.088       25.933     2076.954     1094.842      672.520        0.998        0.192      126.818       24.465        0.037      331.720       -0.083      863.677
12/13/2014  21:49:00     -147.008      -10.066      -15.045       41.780       29.078       21.789     1745.530      845.506      474.740        1.250        0.153      147.352       20.865        0.020      331.733       -0.062      863.688
12/13/2014  21:50:00     -131.034      -37.457      -13.209       37.918       20.386       23.023     1437.751      415.582      530.061        1.056        0.119      136.283       16.220        0.014      331.760       -0.017      863.701
12/13/2014  21:51:00      -91.653      -21.352       -6.593       50.198       30.236       22.612     2519.832      914.243      511.296        0.642        0.197       94.107       25.434        0.073      331.782        0.019      863.710
12/13/2014  21:52:00     -125.409       -5.755      -11.689       22.984       16.167       18.006      528.272      261.359      324.215        0.851        0.056      125.541       15.560        0.015      331.814        0.072      863.715
12/13/2014  21:53:00      -96.966      -22.931      -10.904       18.328       13.546       11.417      335.903      183.504      130.345        0.535        0.032       99.640        7.665        0.006      331.873        0.169      863.727
12/13/2014  21:54:00      -83.393       -2.728       -3.032       28.819       18.066       19.476      830.553      326.397      379.304        0.425        0.077       83.438       17.760        0.045      331.818        0.078      863.710
12/13/2014  21:55:00     -106.552       -3.527      -15.814       11.545       14.253       10.040      133.277      203.144      100.799        0.603        0.022      106.610        3.545        0.001      331.936        0.272      863.686
12/13/2014  21:56:00     -143.077       -0.943      -24.702       18.259       14.513       14.506      333.374      210.617      210.417        1.092        0.038      143.080       10.024        0.005      331.822        0.084      863.675
12/13/2014  21:57:00     -135.491      -17.941      -17.008       29.766       44.010       19.690      886.029     1936.842      387.716        1.109        0.161      136.674       15.830        0.013      331.811        0.068      863.664
12/13/2014  21:58:00     -208.938       48.319      -25.674       33.197       27.067       22.654     1102.039      732.631      513.193        2.450        0.117      214.452        5.286        0.001      331.752       -0.032      863.648
12/13/2014  21:59:00     -226.516       50.712      -19.491       29.330       30.024       17.188      860.259      901.455      295.425        2.816        0.103      232.123       12.094        0.003      331.754       -0.030      863.625
12/13/2014  22:00:00     -237.147       58.085      -18.611       34.854       29.748       21.897     1214.784      884.964      479.475        3.127        0.129      244.157       12.970        0.003      331.758       -0.024      863.603
12/13/2014  22:01:00     -241.308       40.326      -24.496       35.228       34.190       21.900     1241.037     1168.956      479.611        3.167        0.144      244.654       18.615        0.006      331.786        0.021      863.588
12/13/2014  22:02:00     -172.024        3.600      -26.676       39.352       29.955       15.727     1548.584      897.303      247.354        1.650        0.135      172.061       14.587        0.007      331.788        0.029      863.570
12/13/2014  22:03:00     -144.675       -7.906      -18.287       35.044       38.142       19.327     1228.079     1454.788      373.537        1.219        0.153      144.890        9.565        0.004      331.754       -0.028      863.575
12/13/2014  22:04:00     -152.983       18.328      -12.716       49.827       38.474       25.086     2482.747     1480.275      629.331        1.425        0.230      154.077       27.940        0.033      332.022        0.414      863.575
12/13/2014  22:05:00     -164.500       49.771      -14.314       36.289       22.572       14.372     1316.925      509.512      206.558        1.589        0.102      171.865       12.487        0.005      332.132        0.595      863.569
12/13/2014  22:06:00     -126.116       47.000       -7.116       29.850       25.815       23.753      891.011      666.412      564.183        1.014        0.106      134.589       19.683        0.021      332.269        0.820      863.573
12/13/2014  22:07:00     -115.482       28.834       -8.851       28.937       24.002       17.134      837.346      576.117      293.562        0.798        0.085      119.027       12.787        0.012      332.122        0.579      863.561
12/13/2014  22:08:00      -75.041        4.602       -5.274       24.715       26.635       15.466      610.827      709.419      239.189        0.362        0.078       75.182        9.612        0.016      332.068        0.489      863.543
12/13/2014  22:09:00      -66.798      -11.407       -2.804       25.131       28.222       17.603      631.578      796.478      309.849        0.317        0.087       67.765       15.398        0.052      331.963        0.317      863.536
12/13/2014  22:10:00      -65.381      -16.943       -7.240       17.481       23.184       11.749      305.576      537.512      138.045        0.280        0.049       67.540        8.432        0.016      332.010        0.393      863.530
12/13/2014  22:11:00      -62.600       -8.980      -13.484       17.962       20.025        9.578      322.629      401.004       91.737        0.250        0.041       63.240        5.798        0.008      331.987        0.356      863.536
12/13/2014  22:12:00      -67.344      -14.766       -9.827       24.446       17.321       13.381      597.616      300.019      179.046        0.296        0.054       68.944       13.087        0.036      331.886        0.191      863.535
12/13/2014  22:13:00      -72.154       -2.835      -13.368       24.449       22.911       14.066      597.768      524.898      197.857        0.336        0.066       72.209        9.114        0.016      331.987        0.356      863.532
12/13/2014  22:14:00      -65.759      -13.199      -14.072       19.747       21.119       12.582      389.954      446.022      158.299        0.285        0.050       67.071        7.458        0.012      331.922        0.250      863.536
12/13/2014  22:15:00      -66.397      -13.709      -13.518       17.106       13.211       11.548      292.627      174.524      133.363        0.269        0.030       67.797        8.106        0.014      331.909        0.229      863.531
12/13/2014  22:16:00      -40.705        2.021       -8.291       23.544       15.216       12.882      554.309      231.518      165.937        0.134        0.048       40.756       11.812        0.084      331.926        0.256      863.524
12/13/2014  22:17:00      -63.061       -2.276      -13.613       25.614       17.796       14.112      656.065      316.703      199.162        0.267        0.059       63.102       14.666        0.054      331.925        0.256      863.519
12/13/2014  22:18:00      -54.865       -3.638       -9.740       16.670       14.058       10.588      277.879      197.620      112.113        0.185        0.029       54.986        9.147        0.028      331.886        0.190      863.519
12/13/2014  22:19:00      -77.601      -19.303      -13.072       20.799       17.647       13.418      432.591      311.415      180.039        0.374        0.046       79.965       11.382        0.020      331.875        0.171      863.524
12/13/2014  22:20:00      -85.298      -20.819       -8.207       29.392       18.231       14.797      863.902      332.388      218.961        0.460        0.071       87.802       13.401        0.023      331.757       -0.022      863.523
12/13/2014  22:21:00      -80.948       -1.629      -10.959       30.459       22.683       15.216      927.752      514.531      231.541        0.417        0.084       80.964       11.067        0.019      331.739       -0.050      863.518
12/13/2014  22:22:00      -91.373      -11.422      -14.757       27.183       18.092       13.511      738.915      327.318      182.556        0.497        0.062       92.084       10.024        0.012      331.742       -0.045      863.520
12/13/2014  22:23:00      -64.923      -24.326       -5.605       23.183       13.734       10.802      537.445      188.626      116.678        0.284        0.042       69.331        9.049        0.017      331.776        0.010      863.527
12/13/2014  22:24:00      -30.597      -25.403       -7.018       23.194       14.069        8.840      537.944      197.949       78.141        0.122        0.041       39.768        8.966        0.051      331.808        0.062      863.537
12/13/2014  22:25:00      -36.568      -13.543       -1.120       25.486       11.091        9.501      649.525      123.013       90.277        0.119        0.043       38.995        3.301        0.007      331.789        0.031      863.536
12/13/2014  22:26:00      -65.212      -28.568      -10.856       12.173       11.689        8.722      148.180      136.639       76.074        0.277        0.018       71.195        6.492        0.008      331.845        0.121      863.540
12/13/2014  22:27:00      -60.125      -24.720       -9.504       12.938       10.378        9.922      167.379      107.711       98.439        0.234        0.019       65.008        5.587        0.007      331.846        0.125      863.540
12/13/2014  22:28:00      -36.563      -34.931       -2.074       21.605       14.393       11.550      466.755      207.172      133.395        0.168        0.040       50.567       10.063        0.040      331.931        0.264      863.546
12/13/2014  22:29:00      -55.517      -43.160       -6.645       12.788       15.667       11.615      163.545      245.464      134.912        0.277        0.027       70.320        7.238        0.011      331.985        0.352      863.542
12/13/2014  22:30:00      -40.300      -28.694        5.689       27.858       19.806       15.764      776.069      392.282      248.506        0.195        0.071       49.471       14.512        0.086      331.904        0.220      863.538
12/13/2014  22:31:00      -91.383      -45.344       -3.277       24.218       23.886       12.898      586.516      570.557      166.351        0.587        0.066      102.015        9.519        0.009      331.928        0.257      863.537
12/13/2014  22:32:00      -98.283      -36.854      -15.586       21.306       17.750       11.636      453.934      315.068      135.389        0.608        0.045      104.965        7.036        0.004      332.015        0.405      863.552
12/13/2014  22:33:00      -73.515      -44.228       -8.832       13.006       12.696       10.616      169.151      161.182      112.704        0.394        0.022       85.794        3.087        0.001      331.971        0.330      863.568
12/13/2014  22:34:00      -54.379      -38.839       -2.723       18.213       13.102       11.001      331.710      171.659      121.018        0.255        0.031       66.825        8.663        0.017      331.978        0.341      863.576
12/13/2014  22:35:00      -54.000      -37.494        1.583       18.966       16.352       12.797      359.710      267.395      163.755        0.256        0.040       65.740       12.270        0.035      331.926        0.255      863.581
12/13/2014  22:36:00      -53.616      -39.061       -1.372       27.126       21.396       12.846      735.837      457.774      165.011        0.288        0.068       66.336       14.260        0.046      331.948        0.292      863.593
12/13/2014  22:37:00      -63.852      -41.362       -4.489       17.067       14.125       12.525      291.267      199.506      156.867        0.323        0.032       76.078        9.539        0.016      331.919        0.244      863.597
12/13/2014  22:38:00      -58.725       -9.715       -6.190       12.112       10.960        9.374      146.694      120.124       87.864        0.197        0.018       59.524        4.751        0.006      331.859        0.146      863.608
12/13/2014  22:39:00      -36.278      -13.799       -5.890       12.984        9.548        7.140      168.583       91.158       50.979        0.093        0.016       38.814        6.733        0.030      331.873        0.169      863.614
12/13/2014  22:40:00      -45.582       -7.021       -2.615       11.528       12.294        8.138      132.904      151.143       66.228        0.124        0.018       46.119        7.094        0.024      331.838        0.110      863.627
12/13/2014  22:41:00      -48.733      -21.259       -4.275       13.761       16.255        7.412      189.359      264.209       54.933        0.168        0.025       53.168        6.259        0.014      331.843        0.120      863.631
12/13/2014  22:42:00      -52.525       -8.768        3.022       25.607       13.553       11.344      655.704      183.695      128.685        0.191        0.048       53.252       12.398        0.054      331.715       -0.091      863.636
12/13/2014  22:43:00      -63.476      -33.851        1.414       27.522       20.566       13.133      757.435      422.963      172.477        0.326        0.068       71.938       15.064        0.044      331.780        0.015      863.630
12/13/2014  22:44:00      -70.668      -38.926       -0.837       27.548       21.186       12.632      758.915      448.848      159.578        0.394        0.068       80.679       13.223        0.027      331.715       -0.089      863.626
12/13/2014  22:45:00      -65.351      -51.162        4.370       29.388       20.766       17.192      863.630      431.206      295.565        0.425        0.080       82.996       15.637        0.035      331.722       -0.080      863.631
12/13/2014  22:46:00      -75.919      -57.163       -1.952       32.683       20.196       20.325     1068.149      407.898      413.109        0.546        0.094       95.034       11.547        0.015      331.817        0.077      863.626
12/13/2014  22:47:00      -82.804      -52.776        1.204       35.794       31.829       20.328     1281.238     1013.067      413.242        0.617        0.135       98.193       17.599        0.032      331.795        0.041      863.627
12/13/2014  22:48:00      -61.041      -52.218        2.368       44.093       28.634       23.879     1944.191      819.927      570.224        0.490        0.167       80.329       25.590        0.101      331.800        0.049      863.621
12/13/2014  22:49:00      -96.577      -46.930       -1.391       46.496       21.983       17.194     2161.840      483.239      295.644        0.724        0.147      107.376       13.359        0.015      331.833        0.104      863.621
12/13/2014  22:50:00      -81.804      -51.758       -4.235       46.971       24.274       18.037     2206.230      589.236      325.343        0.625        0.156       96.803       17.281        0.032      331.852        0.135      863.618
12/13/2014  22:51:00     -111.760      -48.745       -2.043       24.286       17.504       18.221      589.830      306.400      331.994        0.805        0.061      121.928       15.959        0.017      331.866        0.157      863.630
12/13/2014  22:52:00      -62.398      -36.824        6.183       41.142       25.394       18.023     1692.642      644.879      324.813        0.397        0.133       72.453       20.307        0.079      331.798        0.047      863.640
12/13/2014  22:53:00     -106.957      -49.693       -2.033       30.653       27.245       18.303      939.636      742.290      335.011        0.796        0.101      117.937       11.267        0.009      331.801        0.050      863.650
12/13/2014  22:54:00      -96.584      -46.918        1.578       54.141       35.044       26.163     2931.267     1228.106      684.503        0.819        0.242      107.377       27.921        0.068      331.725       -0.074      863.661
12/13/2014  22:55:00      -84.566      -23.688       10.238       43.424       27.021       21.345     1885.609      730.109      455.616        0.544        0.154       87.821       21.846        0.062      331.650       -0.198      863.663
12/13/2014  22:56:00     -136.453      -25.109       -4.509       38.223       32.993       25.039     1461.015     1088.522      626.929        1.122        0.159      138.744       22.798        0.027      331.678       -0.152      863.657
12/13/2014  22:57:00     -129.767      -41.853       -9.466       57.719       33.220       22.770     3331.436     1103.555      518.471        1.182        0.248      136.349       28.278        0.043      331.586       -0.303      863.648
12/13/2014  22:58:00     -145.080      -78.994       -1.052       40.168       31.058       26.657     1613.437      964.597      710.611        1.529        0.164      165.191       25.155        0.023      331.602       -0.277      863.637
12/13/2014  22:59:00     -117.994      -55.033        4.500       41.495       40.301       20.346     1721.833     1624.189      413.967        1.036        0.188      130.196       14.453        0.012      331.577       -0.319      863.631
12/13/2014  23:00:00      -88.024      -43.372        0.423       40.904       30.249       23.238     1673.166      915.026      539.984        0.638        0.156       98.129       11.148        0.013      331.531       -0.394      863.624
12/13/2014  23:01:00      -97.028      -52.154       -6.819       43.827       28.734       22.729     1920.773      825.623      516.627        0.772        0.163      110.157       20.751        0.035      331.496       -0.451      863.615
12/13/2014  23:02:00      -86.287      -35.700       -2.923       32.551       43.543       22.970     1059.565     1895.962      527.641        0.611        0.174       93.381       20.820        0.050      331.558       -0.350      863.614
12/13/2014  23:03:00      -55.541      -50.738        2.260       32.843       30.432       17.354     1078.691      926.103      301.176        0.398        0.115       75.227       15.317        0.041      331.479       -0.479      863.611
12/13/2014  23:04:00      -68.145      -16.674      -10.067       33.323       22.924       19.090     1110.454      525.524      364.422        0.351        0.100       70.156       14.041        0.040      331.475       -0.486      863.611
12/13/2014  23:05:00      -86.052        9.353       -6.806       45.720       30.302       22.287     2090.347      918.232      496.729        0.552        0.175       86.559       21.818        0.064      331.412       -0.589      863.613
12/13/2014  23:06:00     -122.407        5.140       -8.156       34.687       35.379       22.445     1203.159     1251.649      503.800        0.902        0.148      122.515       18.696        0.023      331.350       -0.692      863.601
12/13/2014  23:07:00     -157.626       -0.666      -16.778       40.035       28.686       19.441     1602.838      822.889      377.948        1.397        0.140      157.627       16.675        0.011      331.399       -0.612      863.597
12/13/2014  23:08:00     -160.925      -16.090      -16.691       35.093       33.740       24.389     1231.525     1138.375      594.807        1.470        0.148      161.728       20.233        0.016      331.361       -0.674      863.586
12/13/2014  23:09:00     -164.621       18.738      -22.128       44.691       33.234       16.186     1997.300     1104.470      261.971        1.565        0.168      165.684       17.627        0.011      331.418       -0.580      863.576
12/13/2014  23:10:00     -130.916      -12.956       -7.293       29.009       25.524       19.934      841.533      651.485      397.349        0.962        0.095      131.556       14.793        0.013      331.518       -0.416      863.577
12/13/2014  23:11:00     -129.270        0.879      -14.319       40.837       35.975       27.849     1667.657     1294.202      775.574        1.033        0.187      129.273       22.933        0.031      331.509       -0.431      863.594
12/13/2014  23:12:00     -139.361        2.940      -12.706       34.131       25.070       24.997     1164.947      628.511      624.853        1.100        0.121      139.392       22.015        0.025      331.514       -0.423      863.600
12/13/2014  23:13:00     -131.021        9.048      -13.101       28.506       27.456       17.829      812.579      753.833      317.875        0.965        0.094      131.333       14.860        0.013      331.533       -0.390      863.596
12/13/2014  23:14:00     -150.207       14.666      -17.865       32.933       34.733       19.147     1084.557     1206.358      366.612        1.288        0.133      150.921       17.925        0.014      331.669       -0.165      863.581
12/13/2014  23:15:00     -133.329       22.362      -18.714       36.351       19.923       17.169     1321.376      396.932      294.790        1.032        0.101      135.191       16.366        0.015      331.655       -0.191      863.574
12/13/2014  23:16:00     -106.137      -13.548      -10.062       35.706       21.103       15.081     1274.924      445.327      227.423        0.675        0.097      106.998       13.207        0.015      331.676       -0.154      863.571
12/13/2014  23:17:00     -114.088       -3.694      -14.259       19.366       18.766       12.902      375.052      352.161      166.457        0.706        0.045      114.148       12.007        0.011      331.668       -0.167      863.561
12/13/2014  23:18:00     -115.065        2.970       -9.096       20.222       12.978       12.469      408.910      168.435      155.473        0.703        0.037      115.103        5.233        0.002      331.703       -0.110      863.555
12/13/2014  23:19:00     -104.809       -0.332       -8.821       22.673       13.827       10.102      514.051      191.179      102.048        0.593        0.040      104.809        8.829        0.007      331.712       -0.096      863.549
12/13/2014  23:20:00     -102.743       19.349       -9.659       19.764       13.176       10.336      390.635      173.598      106.829        0.585        0.034      104.549        7.508        0.005      331.773        0.005      863.541
12/13/2014  23:21:00      -86.704       21.123       -9.817       16.084       15.001        9.419      258.693      225.017       88.725        0.432        0.029       89.240        6.986        0.006      331.730       -0.066      863.547
12/13/2014  23:22:00      -91.105        3.202       -7.165       23.157       12.656       15.466      536.258      160.185      239.205        0.465        0.047       91.161       13.489        0.022      331.710       -0.099      863.553
12/13/2014  23:23:00      -99.483       12.487      -12.079       21.730       19.656       11.824      472.209      386.358      139.800        0.560        0.050      100.264        7.817        0.006      331.680       -0.146      863.542
12/13/2014  23:24:00      -79.833       -0.754       -2.448       46.528       19.567       16.006     2164.834      382.859      256.202        0.459        0.140       79.836       21.576        0.073      331.614       -0.257      863.518
12/13/2014  23:25:00      -73.225       -4.839       -6.511       27.730       14.471       12.604      768.952      209.405      158.872        0.328        0.057       73.385       12.937        0.031      331.587       -0.302      863.493
12/13/2014  23:26:00      -37.638      -20.955      -11.610       10.482        9.447        8.122      109.872       89.242       65.973        0.113        0.013       43.078        7.189        0.028      331.629       -0.232      863.479
12/13/2014  23:27:00      -33.155      -28.319       -2.838       11.393       13.167        8.608      129.811      173.359       74.093        0.114        0.019       43.603        5.651        0.017      331.713       -0.092      863.464
12/13/2014  23:28:00      -50.910      -18.765       -6.517       14.136        9.777        9.780      199.812       95.593       95.643        0.169        0.020       54.258        6.926        0.016      331.619       -0.249      863.460
12/13/2014  23:29:00      -65.645      -11.920      -11.862       12.893       17.072       10.427      166.222      291.462      108.715        0.258        0.028       66.718        8.070        0.015      331.460       -0.510      863.449
12/13/2014  23:30:00      -64.311      -31.016       -9.789        9.061       11.658        9.937       82.100      135.910       98.742        0.276        0.016       71.400        4.497        0.004      331.418       -0.580      863.430
12/13/2014  23:31:00      -74.137      -19.340      -13.118       15.441       10.515        8.897      238.414      110.559       79.155        0.324        0.021       76.618        8.476        0.012      331.403       -0.603      863.413
12/13/2014  23:32:00      -54.831      -19.322       -6.148       14.449       12.474        9.265      208.778      155.589       85.848        0.193        0.023       58.136        6.683        0.013      331.434       -0.554      863.398
12/13/2014  23:33:00      -65.924      -13.155       -4.560       21.352       14.754       10.858      455.925      217.694      117.892        0.267        0.040       67.223       10.553        0.025      331.478       -0.482      863.390
12/13/2014  23:34:00      -74.661      -10.154       -9.598       10.851        9.361        7.945      117.748       87.623       63.121        0.302        0.013       75.348        4.755        0.004      331.412       -0.589      863.385
12/13/2014  23:35:00      -54.291      -13.953      -14.349       16.358       11.156        7.013      267.592      124.457       49.180        0.189        0.022       56.055        7.615        0.018      331.387       -0.631      863.376
12/13/2014  23:36:00      -50.683       -8.277       -6.517       10.359       10.697        8.629      107.311      114.419       74.466        0.149        0.015       51.355        5.756        0.013      331.372       -0.656      863.356
12/13/2014  23:37:00      -19.151      -13.462        2.194       16.525       10.705        7.147      273.092      114.590       51.077        0.050        0.022       23.409        6.403        0.075      331.365       -0.669      863.347
12/13/2014  23:38:00        0.255       54.527       -4.414       12.181       49.018        5.552      148.380     2402.752       30.827        0.279        0.129       54.527        4.775        0.008      331.743       -0.046      863.338
12/13/2014  23:39:00       -4.025       60.344        3.933       17.772       31.375       11.996      315.842      984.418      143.911        0.256        0.072       60.478       14.537        0.058      331.810        0.066      863.330
12/13/2014  23:40:00       -7.492        4.514       -0.028       10.094       16.224       11.120      101.887      263.227      123.664        0.028        0.024        8.747        8.480        0.940      331.712       -0.096      863.322
12/13/2014  23:41:00      -34.896      -14.996       -6.302       14.472        8.808        7.280      209.434       77.579       52.998        0.091        0.017       37.982        5.322        0.020      331.617       -0.251      863.315
12/13/2014  23:42:00      -44.439       -3.220       -5.107       17.426       13.677        8.357      303.660      187.072       69.847        0.129        0.028       44.555        8.540        0.037      331.450       -0.528      863.304
12/13/2014  23:43:00      -47.760      -10.104       -5.795       11.914       12.479        7.814      141.943      155.725       61.058        0.139        0.018       48.817        4.635        0.009      331.401       -0.609      863.289
12/13/2014  23:44:00      -66.159      -13.826       -9.087       16.585       10.140        9.035      275.073      102.814       81.626        0.256        0.023       67.588        9.055        0.018      331.331       -0.721      863.278
12/13/2014  23:45:00      -71.407      -19.195       -9.790        9.887       11.903        9.198       97.751      141.689       84.601        0.294        0.016       73.942        4.304        0.003      331.330       -0.724      863.267
12/13/2014  23:46:00      -87.771      -21.355      -15.115       12.231       10.752        9.388      149.586      115.595       88.135        0.437        0.018       90.331        3.110        0.001      331.280       -0.808      863.257
12/13/2014  23:47:00      -95.744      -29.078      -10.359       22.912       15.869        9.381      524.974      251.817       88.008        0.549        0.043      100.063       10.594        0.011      331.177       -0.975      863.254
12/13/2014  23:48:00     -100.556      -38.631      -15.031       14.963       18.347       11.652      223.899      336.603      135.763        0.626        0.035      107.721        7.507        0.005      331.241       -0.870      863.251
12/13/2014  23:49:00     -116.473      -35.664      -13.447       21.865       17.797       11.283      478.071      316.739      127.308        0.797        0.046      121.811        9.549        0.006      331.224       -0.898      863.254
12/13/2014  23:50:00     -101.898      -28.407       -5.562       29.013       16.400       14.749      841.747      268.974      217.531        0.627        0.066      105.783       13.472        0.016      331.223       -0.901      863.252
12/13/2014  23:51:00      -88.712      -32.223       -9.129       21.440       16.512       12.536      459.661      272.646      157.164        0.494        0.044       94.383        6.455        0.005      331.248       -0.859      863.243
12/13/2014  23:52:00      -87.210      -44.554      -10.952       17.439       18.357       10.483      304.115      336.968      109.902        0.523        0.038       97.932        4.937        0.003      331.314       -0.751      863.243
12/13/2014  23:53:00      -48.111      -45.736        2.634       30.565       20.811       17.052      934.226      433.079      290.777        0.304        0.083       66.381       18.823        0.080      331.287       -0.794      863.240
12/13/2014  23:54:00      -70.535      -48.511       -4.120       20.396       20.469       15.836      416.011      418.995      250.766        0.422        0.054       85.606       12.500        0.021      331.319       -0.742      863.251
12/13/2014  23:55:00      -76.134      -54.513       -2.963       29.339       20.550       15.546      860.783      422.319      241.685        0.515        0.076       93.638       17.067        0.033      331.307       -0.761      863.268
12/13/2014  23:56:00      -70.112      -44.141       -0.247       19.497       14.242       13.095      380.135      202.844      171.478        0.381        0.038       82.850       10.750        0.017      331.349       -0.693      863.275
12/13/2014  23:57:00      -65.087      -48.621       -2.322       23.453       15.544       16.489      550.065      241.619      271.884        0.383        0.053       81.242       16.388        0.041      331.398       -0.613      863.285
12/13/2014  23:58:00      -50.286      -26.275        1.856       26.657       16.381       17.651      710.605      268.334      311.570        0.226        0.065       56.737       16.275        0.082      331.396       -0.615      863.284
12/13/2014  23:59:00      -90.384      -30.000      -11.477       16.925       16.988       11.067      286.466      288.593      122.474        0.495        0.035       95.233        6.497        0.005      331.376       -0.649      863.281
